ECMWFNIL_sfc_temp_000.txt.gz
Temp
67 69 68 67 67 67 66 66 67 66 67 67 67 68 68 71 71 69 70 71 71 68 69 72 72 70 70 70 70 70 69 71 70 70 69 68 67 67 67 67 67 67
66 69 69 68 67 68 66 66 67 67 67 67 67 68 70 71 71 70 69 71 70 68 70 70 72 70 70 70 69 69 70 69 68 71 67 66 67 67 67 67 67 67
66 67 66 65 65 67 68 68 68 68 68 69 69 69 70 71 70 70 70 70 70 70 70 70 71 71 70 69 70 70 69 69 68 70 69 67 67 67 67 67 66 67
67 66 67 67 66 66 67 67 67 68 68 68 68 68 69 71 70 70 69 71 70 70 70 70 71 72 72 71 70 69 70 69 70 70 67 67 68 67 67 67 67 66
66 67 67 67 67 67 66 66 66 67 67 67 68 69 69 69 68 69 69 68 66 66 69 70 71 71 72 72 71 70 71 70 70 71 70 69 68 68 67 67 66 66
66 66 67 66 66 66 65 65 66 66 67 67 67 68 68 68 68 68 68 68 69 67 68 69 70 71 71 71 70 70 70 70 71 71 70 69 69 68 68 67 66 66
65 65 65 65 65 65 65 65 66 67 66 67 67 67 67 67 67 68 68 69 69 70 70 70 70 70 70 70 70 69 69 70 70 69 68 68 69 67 68 68 67 66
64 64 64 64 64 64 64 65 65 65 66 66 66 67 67 67 67 67 67 68 67 68 69 68 68 69 70 69 69 69 69 71 69 67 67 68 69 67 67 68 68 67
63 63 64 64 63 63 64 64 65 66 67 66 65 65 66 66 66 67 67 67 67 66 66 67 68 68 69 69 68 68 69 70 70 67 67 67 67 67 68 69 69 69
63 63 63 63 63 63 63 64 65 65 66 65 65 65 65 67 67 67 67 66 66 67 67 67 67 67 68 68 68 68 68 68 68 67 67 68 68 68 68 69 69 69
62 63 63 62 63 63 63 64 65 66 66 67 66 66 66 66 67 67 66 66 66 67 66 67 67 67 67 68 68 69 69 68 68 67 67 68 69 70 69 70 69 69
62 63 62 63 63 63 63 64 65 66 66 67 67 66 67 67 67 66 67 66 67 67 66 66 66 66 67 66 67 68 68 68 69 68 68 68 68 69 70 71 70 69
62 63 62 62 63 63 63 64 65 66 67 67 68 68 67 66 67 67 67 67 67 67 67 66 66 66 66 67 68 68 68 68 68 68 68 69 69 69 70 70 71 71
62 63 63 63 63 64 63 64 64 65 66 67 68 68 67 67 67 66 66 66 66 67 68 67 66 66 66 67 67 68 67 68 67 67 67 68 68 69 69 70 71 72
63 63 64 64 64 63 63 63 64 64 65 67 67 67 68 68 67 67 66 65 66 66 67 67 67 67 67 67 66 66 66 67 67 67 67 67 68 69 69 69 70 71
63 64 64 63 62 62 62 63 63 64 65 66 67 67 67 67 67 66 66 65 65 66 66 66 67 67 64 59 61 63 63 64 65 66 67 67 67 68 68 69 69 70
63 63 62 62 62 62 62 63 63 64 65 66 66 66 66 66 66 65 65 65 65 65 65 66 66 67 61 60 62 63 63 63 64 66 67 67 68 68 67 68 69 70
63 63 62 62 62 62 62 63 64 65 65 65 65 65 65 66 65 65 65 65 65 65 65 65 66 62 58 59 61 61 62 63 64 66 67 67 67 68 68 68 68 68
63 63 63 62 62 62 62 63 63 64 64 64 64 65 65 64 64 64 64 64 64 65 65 65 66 61 58 59 60 59 60 63 64 66 67 66 66 67 68 68 67 66
62 63 63 63 62 62 62 62 63 63 64 64 64 65 64 64 64 63 63 63 64 65 64 65 66 59 57 57 57 57 59 62 66 67 67 66 66 66 67 68 67 66
61 61 62 63 63 62 62 62 63 64 64 64 63 63 63 63 63 63 64 65 64 65 65 64 66 58 57 56 56 56 58 63 67 68 67 66 66 67 66 66 67 67
61 61 62 63 63 63 63 63 64 64 64 64 64 63 64 64 64 63 64 63 64 65 64 64 65 58 56 56 56 56 60 66 66 67 66 66 66 66 67 67 67 67
62 62 62 63 63 63 63 63 63 64 64 65 63 63 63 64 64 64 64 63 64 65 64 63 64 60 55 54 55 56 61 66 65 65 66 66 66 66 66 67 67 67
62 62 63 63 63 63 63 64 64 63 63 65 62 62 62 64 65 64 64 64 65 64 65 64 64 60 54 53 55 56 59 64 64 63 63 63 62 63 65 65 67 67
62 63 63 63 63 64 64 64 63 63 64 64 62 63 63 63 65 64 64 64 65 65 66 65 64 62 55 53 54 55 61 64 63 63 62 62 62 61 61 61 60 60
63 64 64 63 63 64 64 64 64 64 63 63 64 63 63 62 63 63 63 63 64 64 65 64 64 64 61 52 52 55 57 63 64 63 61 61 62 61 60 60 59 59

ECMWFNIL_sfc_temp_003.txt.gz
Temp
67 67 67 66 66 66 66 65 65 65 65 65 65 66 66 68 69 68 69 69 70 69 69 69 69 69 70 69 69 69 69 69 70 68 67 68 66 66 67 68 69 68
66 67 68 67 66 66 66 66 65 65 65 65 66 66 67 68 68 69 69 69 69 69 69 69 69 69 69 68 68 67 67 68 68 70 67 67 66 67 67 68 68 68
65 65 66 65 65 65 66 66 66 66 65 66 67 67 67 69 69 69 69 69 69 69 69 69 69 69 69 69 68 68 68 68 68 69 69 68 67 67 67 67 67 68
63 64 65 65 65 65 65 65 65 65 65 65 66 67 68 69 68 68 68 70 69 69 69 69 69 69 69 69 69 68 69 68 69 69 68 69 69 68 68 67 67 67
63 64 64 65 65 65 65 64 64 65 65 65 66 66 67 67 66 67 67 67 67 67 68 68 68 68 68 69 69 68 69 68 69 69 68 68 68 68 68 67 66 66
62 63 64 64 64 64 64 64 64 64 65 65 65 66 66 66 66 66 67 66 67 67 67 67 67 67 67 68 68 68 68 68 68 68 68 68 68 67 67 66 66 66
62 62 63 63 63 63 64 63 64 65 64 65 65 65 66 65 65 65 66 67 67 68 68 68 68 68 69 69 68 68 68 68 68 68 68 67 68 67 67 67 67 67
62 62 62 62 62 62 63 63 63 63 64 65 64 65 65 65 65 65 66 67 67 67 67 66 67 68 69 68 68 68 68 69 69 68 68 68 68 68 68 68 68 67
61 62 62 62 61 61 62 62 63 63 64 64 64 65 65 65 65 65 66 66 66 66 66 66 66 66 67 67 67 67 67 68 68 68 68 67 67 68 68 68 67 67
61 61 61 62 61 62 62 62 63 63 64 64 65 65 65 65 66 66 66 66 65 66 66 66 66 66 66 67 67 67 67 67 68 68 68 68 68 68 68 68 67 66
61 61 61 62 62 62 62 63 63 63 64 65 65 65 66 66 66 67 66 66 66 66 66 66 66 66 66 66 67 67 67 67 67 67 67 67 67 68 67 67 67 66
61 61 61 62 63 63 63 63 63 63 63 64 65 65 66 66 66 66 66 66 66 66 66 66 66 66 66 66 66 67 67 67 67 67 67 67 67 67 67 68 67 67
61 61 61 62 62 62 63 63 63 63 64 64 65 66 66 66 67 67 67 67 67 66 66 66 66 66 66 66 65 66 66 66 66 66 66 67 67 67 68 68 68 68
61 61 61 62 62 63 63 62 63 63 63 64 65 65 65 66 66 67 67 67 66 66 66 66 65 65 65 66 66 65 65 66 66 66 66 66 66 67 68 68 68 69
61 62 62 62 63 62 62 62 62 62 63 63 64 64 66 66 66 67 66 66 66 66 66 65 65 65 65 64 62 63 64 64 65 65 65 65 66 67 67 67 68 68
61 62 62 62 62 62 62 61 61 62 63 63 64 64 65 66 66 66 66 66 65 65 65 65 65 66 63 58 60 62 62 63 63 63 64 65 66 66 67 67 68 68
61 62 61 62 62 61 61 62 62 62 62 63 63 64 64 65 65 65 66 65 65 64 64 65 65 65 60 60 61 62 63 62 62 63 64 64 65 65 65 66 67 68
61 61 61 62 61 62 62 62 62 62 62 62 63 63 64 65 64 65 65 65 65 64 64 65 65 62 60 60 61 61 62 61 61 61 63 63 64 65 66 66 66 67
60 60 61 61 61 62 62 62 61 62 62 62 63 64 64 64 64 64 64 64 64 64 64 65 65 62 60 58 59 60 61 62 61 61 62 63 64 65 65 66 67 67
60 59 60 61 61 61 61 61 61 62 62 62 63 63 63 63 63 63 63 64 64 64 63 64 64 61 58 57 57 57 60 62 63 63 64 65 66 66 66 66 66 66
59 59 59 60 61 61 61 62 62 62 62 62 62 62 62 62 62 62 63 64 64 64 64 64 65 60 57 56 55 56 58 62 65 65 65 66 66 66 66 66 66 67
59 58 59 60 61 61 61 62 62 62 62 62 62 62 62 62 63 63 63 63 64 64 63 63 64 60 56 55 55 56 58 63 64 64 65 65 65 65 66 66 66 66
59 58 59 60 61 61 61 61 62 62 62 61 61 61 61 62 62 62 63 63 63 64 63 63 63 61 56 53 54 56 58 63 63 62 62 62 61 61 61 64 66 66
59 59 59 60 60 60 61 62 62 62 61 61 60 60 60 62 62 62 62 62 63 63 64 63 63 61 55 52 53 55 56 62 61 60 60 61 60 60 59 59 59 59
60 59 60 60 60 60 61 62 62 62 63 61 60 60 61 61 63 62 62 61 62 63 65 64 64 62 57 53 52 53 58 61 61 59 58 58 59 58 59 58 58 59
60 60 60 60 60 61 62 62 63 62 61 61 60 59 60 60 61 61 60 61 62 62 63 63 64 64 62 52 51 52 54 60 61 59 57 57 58 58 57 57 57 57

ECMWFNIL_sfc_temp_006.txt.gz
Temp
66 67 67 67 66 67 66 66 66 66 66 66 66 67 67 68 69 69 69 70 70 70 70 70 71 71 71 71 70 70 70 70 71 71 71 71 71 71 71 71 71 71
66 67 68 67 66 67 66 66 66 66 66 66 66 67 67 68 69 69 69 70 70 70 71 70 70 70 70 70 70 69 69 70 70 72 70 70 70 71 70 71 71 71
65 66 66 65 65 65 66 66 66 67 66 67 67 67 67 68 69 69 69 70 69 69 70 70 70 70 70 70 70 70 69 69 69 70 70 70 70 69 70 70 70 70
65 65 65 65 65 65 65 65 65 65 66 65 66 67 67 68 69 68 68 69 68 68 69 69 69 70 70 70 69 69 69 69 70 70 69 69 70 70 69 69 69 69
64 64 64 65 65 65 65 64 64 65 65 65 66 66 67 67 67 67 67 67 67 68 68 68 69 69 69 69 69 68 69 69 69 70 69 68 70 70 70 69 68 68
64 64 64 64 64 64 64 64 65 65 65 65 65 67 67 67 66 66 67 67 67 67 68 68 68 69 69 69 69 68 68 68 69 69 68 68 69 70 70 69 68 68
63 63 63 63 64 64 64 64 64 65 65 65 66 65 66 66 66 67 67 67 67 68 68 68 68 68 68 68 68 68 68 68 69 69 68 68 69 69 70 70 69 68
63 63 63 63 63 63 63 63 64 64 65 65 65 65 66 66 66 67 67 67 67 67 67 68 68 68 68 68 67 67 67 68 68 68 68 68 68 68 69 69 69 67
62 62 63 63 62 63 63 64 64 64 65 65 65 65 66 66 66 67 66 67 66 67 67 67 67 67 68 67 67 66 66 67 68 68 67 67 67 67 68 69 69 68
62 62 62 63 63 63 63 64 65 64 65 64 65 65 65 67 67 67 67 67 67 67 67 67 67 67 67 67 67 66 66 66 67 67 67 67 67 68 68 68 67 67
62 62 62 63 63 64 65 65 65 65 65 65 65 65 66 66 67 67 67 67 67 67 67 67 67 67 67 66 66 66 66 66 66 67 67 67 67 68 67 68 67 67
62 62 62 63 64 65 65 65 65 64 65 65 65 65 66 66 66 67 67 67 68 68 67 67 67 67 66 66 66 65 65 65 65 66 66 66 67 67 68 68 68 68
62 63 62 63 63 64 64 65 65 65 65 64 65 65 65 65 66 66 67 67 67 67 67 67 66 66 66 66 65 64 64 64 65 65 66 66 66 66 68 68 68 68
62 62 62 62 63 64 64 64 64 64 64 64 65 64 65 65 66 66 66 67 67 67 67 67 66 66 66 65 65 63 63 63 63 63 64 65 66 67 68 69 69 69
62 62 63 63 64 63 63 64 64 64 63 64 64 65 65 66 66 66 66 66 67 67 67 67 65 65 65 65 63 63 63 62 63 63 63 64 65 66 67 68 69 69
62 62 63 63 63 63 64 64 63 63 64 64 64 65 65 65 65 66 66 66 66 66 66 66 65 66 64 59 60 63 62 62 62 62 62 62 63 64 66 67 68 69
62 62 62 62 63 63 63 63 64 64 64 63 64 64 64 65 66 65 66 65 65 65 65 65 65 66 61 60 62 63 63 61 61 61 61 61 62 63 64 65 67 69
62 62 62 62 63 63 63 64 64 63 63 63 63 63 64 65 64 65 65 65 65 65 65 65 65 62 60 59 61 61 62 62 61 61 62 62 62 62 63 64 66 67
62 62 62 62 63 63 63 63 63 63 63 64 64 65 64 64 64 64 64 64 65 64 65 65 65 62 60 58 60 60 60 62 62 63 63 63 63 63 63 64 65 66
61 61 61 62 62 62 62 62 62 63 63 64 64 64 63 63 63 63 64 64 64 65 65 65 65 61 59 57 56 57 59 61 63 64 63 63 62 62 64 65 65 65
62 61 61 61 62 62 62 62 62 63 63 64 63 63 63 63 63 63 64 65 65 65 64 64 65 60 57 56 55 55 56 61 63 63 62 62 61 61 60 60 61 62
62 61 61 61 61 61 61 62 62 63 63 64 64 64 63 63 63 63 64 64 64 64 64 63 65 59 57 55 54 54 56 62 62 61 60 60 60 60 60 60 61 61
63 61 61 61 61 61 62 62 62 63 64 64 63 63 62 62 63 63 64 64 64 65 64 64 64 61 56 54 53 53 56 62 61 59 59 59 59 60 59 60 61 61
62 62 62 62 62 62 62 62 63 63 63 64 63 62 62 63 63 62 64 64 64 64 65 64 64 61 56 54 52 52 53 60 60 58 59 59 58 59 59 58 60 62
63 62 62 62 62 62 62 62 63 63 64 63 62 62 62 62 63 62 63 64 64 64 64 64 64 62 57 56 53 51 56 60 60 58 58 58 58 58 59 58 59 59
63 63 63 63 62 62 62 62 63 64 63 62 62 62 62 62 62 61 62 62 63 64 64 64 64 64 63 56 53 51 52 58 60 58 57 58 58 58 57 58 58 58

ECMWFNIL_sfc_temp_009.txt.gz
Temp
74 74 74 74 73 73 73 72 72 72 72 73 73 73 73 74 75 75 76 76 76 76 76 76 76 76 76 76 76 75 74 74 74 74 73 72 70 71 72 72 72 72
74 74 74 74 74 74 73 72 72 71 72 72 73 73 74 74 75 75 75 76 76 76 76 76 76 76 76 76 75 74 74 74 74 77 74 73 71 73 73 73 73 73
74 73 74 73 73 73 73 73 72 72 73 73 74 74 74 75 74 75 75 75 75 76 76 76 76 76 75 75 75 75 74 74 74 76 75 74 74 73 73 74 73 73
74 73 73 73 73 73 73 72 72 72 73 73 73 74 74 74 74 74 74 74 75 75 75 75 75 76 75 75 75 74 74 74 75 75 74 74 74 74 73 74 73 72
73 73 73 74 74 73 73 72 73 73 74 74 74 74 73 73 73 74 74 75 74 75 75 75 76 76 75 75 75 73 74 74 75 74 73 73 74 74 74 74 74 73
74 74 73 73 73 73 72 73 73 73 74 74 74 74 74 74 73 74 75 75 76 76 75 76 76 76 76 75 74 73 73 73 74 74 73 73 74 75 75 75 74 73
74 73 73 73 73 73 72 73 73 73 73 74 73 73 74 74 73 74 74 75 75 74 74 74 74 74 75 74 73 73 73 72 72 73 72 72 72 73 74 74 73 73
74 74 74 73 72 73 72 73 73 73 74 73 73 73 73 74 73 74 74 74 74 74 74 74 74 74 75 74 73 72 72 73 72 71 71 72 72 71 72 73 72 71
74 74 74 73 73 74 75 75 76 75 74 73 73 74 74 73 73 74 73 73 73 73 73 74 73 73 74 73 73 72 71 71 71 71 70 69 70 71 72 72 72 71
74 74 73 74 75 75 75 76 77 76 75 73 73 73 73 74 74 73 73 73 73 73 73 73 73 73 73 73 72 72 71 71 71 70 69 68 68 69 69 70 72 71
74 74 74 74 75 76 76 78 78 78 77 74 74 74 74 74 74 74 73 73 73 73 72 71 72 73 73 72 72 72 71 71 70 70 69 68 67 67 67 69 69 70
74 74 74 74 75 75 75 75 75 74 75 76 75 75 75 75 74 74 73 73 73 73 72 71 72 72 72 71 70 70 70 71 71 70 70 68 68 68 69 70 69 69
74 74 74 75 74 74 74 75 76 76 77 76 76 75 75 75 75 74 74 73 73 73 73 72 72 72 71 70 68 69 69 69 70 70 69 69 69 69 69 70 71 71
74 74 74 73 73 73 73 74 74 74 74 74 74 74 76 75 76 74 75 74 74 73 73 73 72 72 71 69 68 68 68 67 67 66 66 68 68 68 68 68 69 71
74 74 73 73 72 72 73 73 74 74 74 74 73 74 74 76 75 75 73 73 74 73 73 73 72 72 71 68 67 67 67 67 67 66 67 67 67 68 68 68 69 70
73 73 72 72 72 73 73 74 74 74 74 73 73 74 74 74 73 73 74 73 73 73 73 73 72 72 67 60 61 66 67 68 67 67 67 66 66 65 67 67 68 70
72 73 73 72 73 73 74 74 73 73 73 73 73 73 73 73 73 73 74 74 73 73 73 73 72 72 63 60 62 62 66 68 67 66 66 65 65 64 64 64 66 68
73 73 72 73 73 73 74 74 73 72 72 72 73 73 73 73 73 73 73 73 73 73 73 73 73 67 61 60 61 61 62 65 66 66 67 65 64 63 62 62 62 64
73 72 73 73 73 74 73 73 72 72 72 73 73 73 73 72 73 73 73 73 73 72 72 73 74 66 61 59 60 59 60 62 66 67 66 64 64 63 63 61 61 62
72 72 72 73 73 73 72 72 72 72 72 73 73 73 73 73 73 73 73 73 73 72 72 73 73 66 60 58 57 56 58 61 68 67 65 64 63 63 62 61 60 60
73 72 72 73 73 72 72 72 72 72 73 74 74 73 73 72 72 72 72 73 74 74 73 73 74 63 59 57 55 54 54 60 68 66 63 62 62 62 61 61 60 60
73 73 73 73 73 72 72 72 73 73 73 73 72 73 74 73 73 73 73 73 74 74 73 73 75 63 58 57 54 54 54 66 67 64 62 61 61 61 61 61 61 61
74 73 73 73 73 72 73 73 73 73 73 73 72 73 73 73 74 74 74 74 74 74 73 72 74 66 58 55 54 53 57 67 66 63 61 61 60 61 62 62 62 62
74 74 73 73 73 73 74 74 75 74 73 73 72 72 73 74 74 74 74 74 74 73 75 73 74 67 57 53 53 55 55 63 65 62 61 60 61 62 61 61 61 62
75 74 73 74 74 74 75 74 73 73 74 73 73 73 73 73 73 73 73 74 77 75 69 70 74 70 58 54 54 54 58 65 64 63 60 60 61 61 62 61 61 61
74 73 73 73 74 74 74 73 74 74 75 74 74 75 74 74 73 73 73 75 77 75 75 73 72 73 70 57 54 54 54 60 63 62 61 61 61 61 61 61 61 61

ECMWFNIL_sfc_temp_015.txt.gz
Temp
84 84 83 83 82 82 82 81 81 81 81 81 81 81 81 81 82 82 82 82 82 81 82 81 81 80 80 80 80 79 78 79 79 79 79 78 77 76 75 75 74 74
84 84 83 83 82 82 83 83 82 81 81 81 81 81 81 81 82 82 81 81 81 82 82 82 81 80 80 80 80 79 78 78 78 80 78 78 78 78 77 76 75 74
84 84 83 82 83 83 83 83 82 82 82 83 82 81 81 82 82 82 81 81 81 81 81 81 81 81 80 80 79 79 78 78 77 80 77 77 78 77 76 75 74 75
84 83 83 83 83 83 83 82 82 82 83 82 82 83 82 82 82 81 81 81 80 81 81 81 81 81 81 80 80 79 79 78 78 78 76 77 78 77 77 76 76 76
84 83 83 83 83 82 82 81 82 83 83 82 83 83 82 81 81 81 81 81 81 81 82 81 82 81 81 80 80 78 79 78 79 78 77 76 77 78 78 77 76 76
84 83 83 82 82 82 82 82 82 82 82 82 82 83 83 82 81 81 81 81 82 82 82 82 81 81 81 80 79 78 78 78 78 78 77 76 77 78 78 77 76 75
83 83 83 83 83 82 82 82 82 82 82 82 82 81 82 82 81 81 81 81 81 80 80 80 80 80 80 79 78 78 78 78 78 77 76 76 76 76 78 77 76 75
83 84 84 83 82 82 82 82 82 82 83 82 82 82 82 82 81 81 81 81 81 80 80 80 80 80 81 79 78 77 78 79 78 77 76 76 76 75 76 77 77 75
83 83 83 82 82 82 83 84 86 85 85 83 83 83 83 82 82 81 80 80 80 80 80 80 80 80 80 79 78 77 77 77 78 77 76 76 75 75 76 76 76 75
83 83 82 84 85 84 84 85 86 86 86 85 84 84 83 82 82 81 81 80 80 79 80 80 80 79 79 79 78 78 77 77 77 77 77 76 76 76 76 76 75 74
83 83 83 83 83 86 86 87 88 88 86 84 83 83 84 84 83 84 81 80 80 80 79 79 79 79 79 79 79 79 78 78 77 77 77 76 76 76 75 75 75 75
83 83 83 84 84 84 85 85 84 83 85 86 87 87 85 85 83 83 82 80 80 79 79 77 76 78 79 79 79 79 79 78 77 77 77 77 77 77 77 77 76 75
84 83 83 84 83 83 83 84 85 86 86 85 85 85 85 85 85 83 83 81 80 80 79 79 77 77 78 79 78 78 78 77 77 76 77 77 77 77 78 78 78 76
84 84 83 83 83 82 82 82 82 82 81 82 83 83 84 84 84 83 83 82 81 81 81 80 79 80 79 79 78 78 78 77 76 76 76 76 76 77 78 79 78 77
83 83 83 83 82 82 81 81 81 81 81 81 82 82 83 84 84 83 81 80 81 81 81 81 79 79 80 79 78 78 77 77 77 76 76 75 76 77 77 77 78 77
82 82 82 82 81 81 80 81 81 81 81 81 81 82 82 81 80 80 81 80 80 80 80 80 80 79 70 68 70 75 76 76 76 75 75 75 75 74 76 77 77 77
81 81 81 81 81 81 81 80 80 80 80 80 80 80 80 79 80 80 80 81 81 80 80 80 78 76 66 66 66 67 73 75 75 74 75 75 75 75 74 75 76 76
81 81 81 81 81 80 80 80 80 80 79 80 80 80 80 80 80 79 79 80 81 81 80 79 80 71 61 64 65 65 67 73 75 75 75 75 76 75 75 75 74 74
81 81 81 80 80 81 80 80 79 79 79 80 80 81 81 79 78 79 79 80 80 79 79 80 81 69 61 63 64 64 64 67 74 74 74 75 75 75 75 74 74 72
81 81 80 80 81 80 80 80 79 79 80 81 81 80 80 79 79 79 80 79 79 79 79 80 80 70 61 62 62 62 62 65 74 74 74 74 71 70 71 73 73 72
81 81 80 80 80 80 80 79 79 79 79 80 81 80 79 79 79 79 79 80 81 81 81 80 81 65 60 61 60 59 60 63 72 73 74 73 71 72 71 73 73 72
82 81 80 80 80 80 80 79 79 79 79 80 80 81 80 81 80 81 80 81 81 81 81 79 82 62 60 59 59 58 59 68 73 73 73 73 72 69 70 73 73 72
82 82 81 80 80 80 80 80 79 79 80 81 79 80 80 80 79 81 81 81 81 80 79 75 78 70 58 57 57 57 60 73 74 74 71 68 69 74 75 74 74 73
83 82 81 81 81 80 80 80 81 81 81 81 80 80 80 81 81 81 81 81 81 81 80 77 78 71 55 53 53 55 61 73 73 71 70 69 71 74 75 74 74 69
84 83 82 82 81 81 81 81 81 81 82 82 82 81 80 79 81 81 81 81 83 78 73 76 78 70 53 53 53 55 60 71 72 71 70 71 72 73 74 74 74 72
83 82 81 82 81 81 81 81 82 82 82 83 81 82 82 82 82 81 79 81 81 79 79 79 76 72 64 52 54 54 56 66 71 71 71 71 72 72 72 73 73 73

ECMWFNIL_sfc_temp_018.txt.gz
Temp
82 81 79 79 79 78 78 79 79 79 79 80 78 78 78 79 80 79 80 80 80 79 79 79 79 78 78 77 78 77 76 76 76 76 76 75 74 74 74 72 69 69
82 82 80 80 78 79 79 80 80 79 79 79 79 80 80 79 80 80 79 79 79 79 79 79 79 78 78 77 77 76 75 76 75 77 75 74 74 74 74 75 74 74
82 82 81 80 80 81 82 81 80 80 80 80 80 80 80 81 80 80 79 79 78 79 79 79 79 78 78 77 77 75 74 74 74 77 75 75 74 74 74 75 74 74
82 82 82 82 81 81 81 80 80 80 80 80 80 81 81 81 80 79 79 79 78 78 79 79 78 79 79 78 78 76 76 76 76 76 75 76 76 75 75 75 75 74
82 81 81 81 82 81 80 80 79 80 80 80 81 80 80 80 79 79 78 78 78 78 78 79 79 79 79 78 78 76 76 76 76 76 75 74 74 75 76 75 73 73
82 82 82 81 81 80 79 80 80 80 80 80 80 81 80 80 79 79 79 79 80 79 79 79 78 79 79 78 77 76 76 75 75 75 75 74 75 75 76 75 74 73
81 81 81 81 81 80 80 79 80 80 79 79 80 79 80 79 79 79 79 78 78 78 78 77 77 77 78 77 76 76 76 75 76 75 74 74 74 74 75 74 73 73
82 82 82 81 80 80 80 80 79 79 80 80 79 79 79 80 79 79 79 79 78 77 77 77 77 77 78 77 76 75 75 76 76 75 74 74 74 73 74 75 74 72
82 81 81 81 81 80 81 81 82 80 79 78 80 81 81 80 79 79 78 78 77 77 77 77 76 76 76 76 75 75 75 75 75 75 74 73 73 73 73 73 73 72
81 81 81 82 82 80 81 83 84 83 82 82 83 82 80 80 80 79 78 77 77 77 77 76 77 76 76 76 75 75 75 74 74 73 73 74 74 73 73 73 72 72
81 81 81 80 81 84 84 85 86 86 83 81 80 80 80 79 79 81 79 78 79 78 77 76 76 76 75 75 75 73 72 72 72 73 73 73 73 73 74 73 73 72
80 81 81 82 82 83 84 83 83 81 82 83 82 82 81 82 79 79 79 78 79 79 78 77 76 76 75 74 74 73 69 66 66 68 68 70 73 74 74 74 73 73
81 80 81 83 81 81 81 82 83 84 84 82 82 82 82 81 81 79 79 79 79 79 78 77 77 77 75 75 75 71 68 67 68 70 70 71 74 75 75 75 74 74
82 81 81 81 81 82 81 81 81 80 79 79 80 79 81 81 82 80 80 79 78 77 77 77 77 77 76 75 73 71 71 69 70 71 72 74 74 74 75 75 75 75
81 81 81 81 80 80 79 79 79 79 79 79 79 79 80 82 81 81 78 76 77 77 77 78 77 77 75 73 73 73 73 72 73 73 73 73 73 74 74 74 75 75
80 80 80 80 79 78 79 79 79 79 79 79 79 79 79 78 78 78 78 77 77 77 77 78 77 77 71 68 69 72 74 74 74 73 73 72 72 72 73 74 74 70
79 79 79 78 78 78 78 78 78 78 78 77 77 77 77 77 77 77 78 78 77 77 76 77 77 77 68 64 65 66 71 73 73 72 73 72 72 71 71 72 72 71
79 79 78 78 78 78 78 78 78 78 77 77 77 77 77 78 77 77 77 77 77 77 77 77 77 75 66 64 65 66 67 72 73 72 72 72 72 72 71 71 70 71
79 78 78 78 78 78 78 78 78 77 77 77 77 77 78 76 76 77 76 77 77 76 76 77 77 73 64 64 64 64 64 67 72 72 72 72 72 72 71 70 70 69
78 78 78 78 78 78 78 78 77 77 77 78 78 77 76 76 77 77 77 76 76 76 75 76 76 72 64 62 62 62 63 65 72 72 72 72 71 71 70 70 69 69
78 78 78 78 78 78 77 77 77 76 77 77 78 77 76 76 76 76 76 76 77 78 77 76 76 62 64 61 60 60 61 63 71 72 72 71 71 71 70 69 69 68
79 78 78 78 78 78 77 77 77 76 76 76 76 77 77 78 77 77 76 76 77 78 77 75 77 66 64 62 59 59 60 67 71 71 71 71 71 71 69 68 68 68
80 79 78 78 78 77 77 77 76 76 76 77 76 76 76 76 76 77 77 77 77 77 74 73 75 70 62 59 58 57 61 69 71 71 71 71 70 70 70 70 70 69
80 79 78 78 78 77 77 78 78 77 77 77 76 76 77 78 78 77 78 77 78 77 78 75 77 64 55 55 54 55 61 68 70 70 70 70 70 71 71 71 72 72
81 80 79 79 78 78 79 78 77 77 77 77 78 78 77 77 77 76 76 77 81 81 74 75 77 68 54 54 53 55 59 67 69 70 69 69 69 69 71 71 71 71
81 79 79 79 79 78 78 77 78 78 78 78 78 79 78 77 76 76 76 78 80 81 79 78 76 75 64 53 53 54 56 63 68 68 68 68 69 69 68 69 69 70

ECMWFNIL_sfc_temp_021.txt.gz
Temp
74 73 72 71 71 71 70 71 69 70 69 69 70 69 70 71 73 73 73 73 74 73 72 72 73 72 73 71 71 71 70 70 70 70 70 70 68 68 69 67 66 65
73 75 75 73 72 73 70 70 70 70 70 71 70 70 69 72 72 73 72 72 73 72 72 72 72 72 71 71 71 70 69 69 68 72 70 69 68 68 68 68 68 67
74 73 73 71 71 71 72 71 71 70 71 70 71 71 72 72 71 71 72 72 71 71 72 71 71 71 71 70 70 70 69 68 68 69 69 69 69 68 68 68 68 68
74 73 73 73 71 70 70 71 70 69 70 72 70 72 72 74 72 71 71 74 71 70 70 71 71 71 71 70 70 69 69 69 69 69 69 69 69 69 69 68 69 69
74 73 73 72 71 71 70 70 71 70 70 70 71 72 72 71 71 70 70 70 70 70 70 70 70 71 71 71 71 69 70 70 69 70 69 68 68 69 69 69 67 67
74 74 73 73 71 70 71 70 70 71 71 71 71 72 71 71 71 71 70 70 70 71 71 71 71 72 72 72 71 70 70 70 70 69 69 68 68 69 71 69 67 66
73 73 73 72 72 71 70 70 70 72 71 72 71 70 71 71 71 71 71 71 70 70 70 70 70 70 70 70 70 69 69 69 69 68 68 67 68 68 69 68 67 66
74 74 73 72 72 72 72 71 71 71 72 70 70 71 71 72 72 72 71 71 70 69 69 69 69 69 70 70 69 69 68 70 70 68 68 67 67 67 67 68 68 66
74 74 74 73 73 72 73 72 73 73 73 71 71 72 72 72 73 72 71 70 70 70 69 69 69 69 69 70 69 68 68 68 69 68 68 66 66 66 67 68 68 66
74 74 74 74 73 72 73 74 75 74 73 72 72 72 72 70 71 70 70 69 70 69 69 69 68 69 69 69 69 68 67 67 67 66 66 66 65 65 67 67 67 66
75 74 73 73 73 74 75 76 76 75 72 72 70 70 70 69 70 70 70 69 71 70 69 68 68 69 69 68 68 67 67 65 65 64 64 64 65 65 68 67 67 66
74 74 74 74 74 74 74 74 74 71 71 73 71 73 73 73 72 70 71 69 70 69 68 68 68 68 68 68 68 67 66 64 64 64 64 64 65 65 66 67 67 66
74 74 73 74 73 73 74 73 73 75 75 73 74 74 74 72 71 69 70 70 69 70 71 70 69 68 68 68 68 66 65 65 64 64 64 65 65 66 67 67 67 67
75 74 73 73 73 72 72 72 71 70 70 70 73 72 72 70 70 72 71 70 70 71 69 69 68 68 68 67 67 66 66 65 65 65 65 65 65 65 66 66 67 67
75 74 74 73 73 72 71 71 70 69 70 70 71 70 72 71 71 72 71 69 69 69 68 69 70 70 69 69 67 65 65 66 66 65 65 65 65 66 66 66 67 67
73 74 73 73 72 71 71 70 70 70 71 70 70 71 70 69 69 69 69 69 68 67 67 69 70 71 70 68 69 69 67 68 67 66 65 65 65 65 65 66 66 65
72 72 72 71 71 71 70 70 70 70 70 70 70 69 70 70 70 68 70 69 69 68 68 69 70 72 69 65 66 67 68 67 66 66 65 64 64 63 64 65 66 65
72 71 70 70 70 70 69 69 69 69 69 69 69 69 69 70 69 69 69 68 69 68 68 69 69 71 67 64 65 65 66 67 66 66 66 64 64 64 65 64 64 65
70 71 70 69 69 69 69 69 69 69 69 69 69 70 68 68 68 68 68 68 68 67 68 69 69 69 66 65 63 63 64 65 66 65 65 65 64 64 64 64 63 65
71 70 70 70 70 70 70 70 70 70 70 71 70 69 69 68 68 68 68 68 68 67 68 69 68 66 65 64 62 61 62 64 64 64 65 65 65 65 65 64 64 63
71 70 70 70 70 70 70 70 70 70 70 70 71 69 68 68 68 68 67 68 68 69 69 69 70 62 62 63 61 59 59 63 63 66 65 65 65 65 65 65 64 64
71 70 70 70 70 70 70 70 70 70 70 70 70 69 69 69 68 68 68 68 68 69 69 67 68 61 62 61 60 58 60 63 62 63 63 64 64 65 64 64 64 64
72 72 71 71 71 71 71 71 70 70 70 70 70 69 69 69 69 69 69 69 69 69 66 65 66 64 59 58 57 57 59 62 62 63 64 64 64 64 64 65 65 65
73 73 72 72 71 71 71 71 71 70 70 71 70 69 69 70 70 69 69 69 69 68 69 67 68 59 54 53 55 55 60 62 62 62 62 63 64 64 65 64 65 69
74 73 73 72 72 73 73 72 71 71 72 71 71 71 70 69 70 69 68 69 70 70 71 71 68 59 50 51 53 54 57 61 61 61 61 62 63 62 63 63 62 65
74 74 73 73 73 73 73 73 72 72 72 72 71 71 70 70 70 70 69 70 71 71 70 69 67 64 57 52 52 53 56 60 60 59 60 60 61 62 62 61 60 61

ECMWFNIL_sfc_temp_024.txt.gz
Temp
71 71 70 69 68 69 68 68 67 68 68 68 67 68 67 69 69 69 69 68 68 68 68 68 68 69 72 69 68 68 67 66 66 66 66 66 65 65 66 65 63 64
71 72 73 71 71 71 68 68 68 68 67 67 68 67 68 69 69 69 68 69 69 69 68 68 68 69 68 69 68 67 66 66 66 69 67 66 66 65 65 65 65 65
71 71 71 69 70 69 69 68 68 67 68 68 67 67 68 70 69 68 68 68 68 68 68 68 68 68 68 68 68 69 69 65 66 66 67 66 66 65 66 65 65 65
71 71 71 71 69 69 68 68 68 68 67 68 67 69 70 71 69 68 68 72 68 68 68 68 68 68 67 68 68 67 67 67 67 66 66 66 67 67 66 65 66 65
71 70 70 70 70 69 68 68 68 67 67 68 67 67 70 68 68 68 68 68 68 68 67 68 67 67 67 67 67 67 67 67 67 66 66 65 66 67 67 67 65 65
71 71 71 70 69 69 68 68 69 68 67 66 67 69 68 68 68 68 68 68 68 68 68 67 66 67 67 67 66 67 68 68 68 66 66 66 66 65 67 67 65 64
71 70 70 70 70 70 70 69 68 69 68 69 67 67 68 68 68 69 68 68 68 68 68 67 67 67 67 67 66 67 67 67 67 66 66 65 65 65 65 65 65 64
71 71 71 70 70 69 70 69 68 68 69 67 67 69 68 69 69 69 68 68 68 67 67 68 67 67 67 66 66 66 66 68 68 66 64 65 63 64 64 65 65 64
71 71 70 70 71 69 70 69 69 69 69 68 68 69 68 69 69 69 68 68 67 67 67 67 67 67 67 67 66 66 66 66 67 65 65 64 64 64 64 64 63 64
71 71 71 71 72 71 71 71 71 71 70 68 68 68 68 69 68 68 68 68 67 68 67 67 67 67 67 67 67 66 66 66 65 64 64 64 64 64 64 63 63 63
71 71 71 71 72 72 72 72 72 72 70 69 69 68 68 68 68 68 67 67 68 67 66 66 67 67 67 67 67 67 66 66 65 64 64 64 64 64 65 64 64 63
72 71 72 72 72 72 72 72 72 70 69 70 69 68 67 67 66 66 68 65 65 66 65 66 66 66 67 67 67 67 66 65 65 64 63 63 63 63 63 63 63 63
72 72 72 72 72 71 71 71 71 71 71 70 69 70 69 68 66 65 66 66 66 65 65 66 66 66 66 66 66 66 65 64 64 63 63 63 63 63 63 63 63 64
73 72 72 72 72 71 70 70 70 69 69 69 69 68 68 67 66 66 65 66 66 66 66 66 65 64 64 64 65 66 65 65 64 64 63 63 63 63 63 64 64 64
73 72 72 72 72 70 69 69 69 68 67 68 68 68 69 66 66 66 65 65 65 65 65 66 67 67 67 65 65 66 65 65 64 64 64 63 63 63 63 63 63 64
72 72 72 71 70 70 69 69 69 68 68 67 67 67 66 66 66 66 65 66 66 64 64 66 67 67 69 68 68 67 65 66 65 64 64 64 64 63 63 63 63 63
72 71 71 70 70 70 68 68 67 68 67 67 66 66 67 67 67 65 66 66 66 66 65 66 67 68 68 65 65 67 67 65 65 65 64 64 64 63 63 63 63 62
72 71 70 70 69 69 68 68 67 67 67 66 66 66 66 67 66 66 67 67 68 67 67 67 67 69 65 64 65 65 67 67 65 65 65 64 64 63 63 62 62 63
72 71 70 69 69 69 68 67 67 67 67 66 67 68 66 66 67 66 67 67 67 67 67 68 67 68 64 63 63 64 64 66 65 64 64 64 63 63 62 62 62 63
71 71 70 69 68 68 67 67 67 68 68 68 67 67 67 67 67 67 67 67 67 67 67 68 67 67 64 63 62 62 63 64 64 63 63 63 63 63 63 62 62 62
69 69 69 68 68 67 67 67 67 67 67 67 67 67 67 67 67 67 68 68 68 68 67 67 68 64 62 62 60 59 60 63 62 63 63 63 62 63 63 63 62 63
69 69 69 68 67 67 67 67 67 67 67 66 67 67 68 68 68 68 68 68 68 68 68 67 68 64 61 61 60 58 60 63 61 61 61 62 62 62 62 62 62 62
70 69 68 68 67 67 67 67 67 67 66 66 67 67 67 67 67 68 68 68 68 68 67 67 68 63 59 58 58 58 60 61 60 61 61 61 61 62 62 62 62 62
70 70 69 68 67 67 68 69 68 65 66 67 68 67 67 68 68 67 68 68 69 69 69 68 69 64 57 56 56 57 61 61 61 61 60 60 61 61 61 61 62 67
70 70 70 69 68 69 70 68 66 66 69 69 69 69 69 69 69 67 65 64 65 67 71 70 69 63 54 55 55 54 59 60 61 60 59 59 60 60 59 60 59 61
71 70 70 70 70 69 68 67 67 67 67 68 67 68 67 65 63 63 63 63 64 65 68 69 68 64 57 51 51 53 56 61 60 59 60 59 57 59 59 58 56 57

ECMWFNIL_sfc_temp_027.txt.gz
Temp
70 69 68 67 67 68 66 66 66 67 66 66 66 66 65 68 67 66 67 66 67 66 67 66 67 67 68 67 67 66 66 66 66 64 64 64 63 63 64 63 62 63
69 70 71 69 68 69 67 67 67 67 67 66 67 66 66 66 67 67 67 67 67 67 66 66 66 67 66 67 66 66 65 65 66 67 65 64 65 63 64 64 64 63
69 69 69 68 68 67 67 67 68 67 67 67 67 66 67 67 67 67 66 67 67 67 67 66 66 66 67 66 66 67 67 64 65 65 65 65 65 64 65 64 63 64
69 70 70 69 69 68 67 67 67 67 67 67 67 67 67 69 68 67 66 70 67 67 66 66 66 66 66 66 66 66 66 66 66 65 65 65 65 65 65 64 65 64
69 69 69 69 69 69 67 67 67 67 67 68 68 66 68 68 67 67 66 66 67 67 66 66 66 66 66 65 65 65 66 66 66 65 65 65 65 65 66 64 63 64
69 70 69 69 69 68 67 67 68 67 67 67 67 67 67 67 67 67 67 67 67 67 66 66 65 66 65 65 64 65 66 66 66 65 65 65 65 64 66 65 64 64
69 69 69 70 69 68 68 68 68 68 68 68 66 66 66 66 66 67 67 67 67 67 66 66 66 66 66 65 64 65 65 65 65 64 64 65 65 64 63 64 64 64
70 70 70 69 69 68 68 67 67 68 68 66 66 67 66 67 66 67 66 66 66 66 66 66 66 66 66 65 65 64 64 66 66 65 64 64 63 63 63 63 63 62
70 70 69 69 69 68 68 68 68 68 68 67 67 67 66 67 67 66 66 66 65 66 66 66 66 66 66 65 65 65 65 65 66 64 64 64 63 63 63 62 61 62
70 70 69 69 69 68 69 69 69 68 68 67 68 67 66 67 66 66 66 65 66 66 66 65 65 65 66 65 66 65 65 65 65 64 64 64 64 64 63 62 62 61
70 70 69 69 70 69 69 70 70 70 68 68 67 66 66 65 66 65 65 65 66 66 66 65 65 65 65 65 66 65 65 65 65 64 64 64 64 64 65 63 62 62
70 69 70 70 70 69 70 70 70 69 68 69 68 67 66 65 65 65 67 65 65 65 65 65 65 65 65 66 66 66 65 65 65 64 64 63 63 63 63 62 62 62
70 70 71 71 70 69 70 69 70 71 71 70 69 68 67 65 64 63 65 65 64 64 64 64 64 64 64 65 65 65 64 64 64 64 63 63 63 62 62 62 62 62
71 71 71 70 70 69 69 69 69 69 69 69 68 66 66 66 65 65 64 65 64 64 64 64 64 64 63 64 64 64 64 64 64 64 63 63 63 62 62 62 62 62
72 72 71 70 70 69 69 69 69 69 69 67 67 66 68 67 67 66 64 63 63 63 64 64 65 65 65 64 63 63 64 64 64 64 64 63 63 62 62 62 62 62
71 71 70 69 69 69 69 69 69 68 68 66 66 67 67 67 66 65 65 65 64 63 63 64 65 65 67 67 67 65 64 64 64 64 63 63 63 63 63 62 62 61
72 70 69 68 69 69 69 69 68 68 67 66 65 66 67 67 67 65 65 64 65 65 64 65 66 67 67 64 65 66 66 64 64 64 63 63 63 62 63 63 62 61
70 69 69 69 69 69 69 70 69 67 66 65 65 65 66 67 66 66 65 64 65 64 65 65 65 68 64 64 65 64 66 66 64 64 64 63 63 63 63 63 62 62
70 69 69 69 69 69 70 68 67 67 66 66 66 67 66 65 65 65 64 64 65 65 65 65 65 66 64 63 63 63 64 65 65 64 64 64 63 63 62 62 62 62
69 70 69 69 70 69 68 67 67 67 68 67 67 66 66 65 64 64 64 64 65 65 65 65 64 66 64 63 62 62 63 64 64 64 64 63 63 63 62 62 61 61
70 69 69 69 69 69 68 67 67 68 67 67 67 66 65 65 65 64 65 65 66 66 65 65 66 64 62 62 61 60 61 63 62 63 63 62 62 62 62 62 61 61
70 69 70 70 69 68 67 67 68 67 67 66 66 65 65 65 65 65 65 66 67 66 65 65 66 63 61 61 60 59 62 63 61 61 61 61 61 61 61 61 60 60
69 69 69 69 69 68 68 68 68 67 66 66 66 65 65 65 66 66 66 66 67 66 64 64 65 64 60 58 58 59 60 62 60 61 60 60 60 61 60 60 60 60
70 70 70 70 68 68 68 69 69 67 66 67 67 66 65 66 66 66 66 66 66 64 65 65 65 64 60 58 56 58 61 63 61 60 60 60 60 60 60 59 59 65
70 70 70 69 69 69 69 68 67 67 67 66 67 67 66 65 66 65 64 63 64 65 68 66 64 63 61 58 57 57 60 62 61 60 60 60 60 60 58 58 57 60
70 70 69 69 69 69 68 68 67 66 66 66 65 66 65 65 64 64 63 62 63 64 65 64 63 64 64 57 54 54 57 62 61 59 60 61 60 59 59 56 55 55

ECMWFNIL_sfc_temp_030.txt.gz
Temp
71 71 70 69 68 69 68 68 67 68 68 68 69 68 68 70 70 69 70 69 70 69 69 69 69 70 71 70 70 69 69 69 69 68 67 67 67 66 67 66 65 66
70 71 71 70 69 70 68 69 68 68 68 68 68 68 68 69 69 70 69 69 70 70 69 69 69 70 69 70 69 69 69 69 69 70 68 67 68 67 68 68 68 67
70 70 70 69 69 69 68 68 68 68 69 68 69 68 69 69 69 69 69 69 69 69 69 69 69 69 69 69 69 69 70 68 69 69 69 68 68 68 68 68 67 67
70 70 70 70 70 69 68 68 68 68 68 68 68 69 70 70 69 69 68 71 69 69 69 69 69 69 69 69 69 69 69 69 69 69 68 68 68 68 68 68 68 68
70 70 70 70 69 69 68 68 68 68 68 69 69 69 69 69 69 69 69 69 69 69 69 69 68 69 68 68 68 68 68 69 69 68 68 68 68 68 69 68 68 68
70 70 70 70 69 69 68 69 69 68 69 68 69 69 69 69 69 69 69 69 69 69 69 69 68 69 68 68 67 68 68 68 68 68 67 68 69 68 68 68 68 67
70 69 69 70 69 69 69 69 69 69 69 69 69 68 69 69 69 69 69 69 69 69 69 69 68 68 68 68 67 68 67 68 68 67 67 68 68 68 68 67 67 67
70 70 70 69 69 69 69 68 68 69 69 69 68 69 69 69 69 69 69 69 69 69 69 69 68 68 69 68 68 67 68 68 68 67 67 67 67 67 68 67 67 67
71 70 70 69 69 69 70 69 69 69 69 69 69 69 69 69 69 69 69 68 68 69 68 68 68 68 68 68 68 68 68 68 68 68 67 67 67 67 67 67 66 66
71 71 70 70 71 69 70 70 70 69 69 69 69 70 69 69 69 69 68 68 68 68 68 68 68 68 68 68 68 68 68 68 68 67 67 67 67 68 68 67 67 66
71 71 70 70 71 71 71 71 71 71 70 70 69 69 70 69 69 68 68 67 67 68 68 68 68 68 68 68 68 68 68 68 69 68 67 67 67 67 68 68 67 66
71 71 71 71 71 71 71 71 71 70 70 71 70 70 70 69 69 68 68 68 68 68 68 68 68 68 68 68 68 68 68 68 68 68 67 67 67 67 67 67 67 67
71 71 71 71 71 70 70 71 71 71 71 71 71 71 70 69 68 68 68 68 68 68 68 68 68 68 67 67 67 67 67 67 67 67 67 67 67 67 67 67 66 66
71 68 70 70 70 70 69 70 70 69 69 69 70 69 70 69 69 68 68 68 68 68 68 67 67 67 66 66 67 66 67 67 67 67 67 67 67 67 67 67 66 66
68 69 69 70 70 69 69 69 69 69 69 70 69 69 69 70 70 69 68 66 66 66 66 67 66 66 66 66 66 66 66 67 67 67 67 67 67 67 67 66 66 66
70 69 70 69 69 68 69 69 69 69 70 70 69 69 68 69 68 68 68 68 67 66 66 66 67 67 67 66 67 68 67 67 67 67 67 66 66 66 67 66 66 66
69 70 71 69 69 69 69 69 69 70 70 70 68 67 67 68 68 67 68 68 68 68 67 67 67 68 66 63 64 66 68 67 67 67 67 66 66 66 66 67 67 66
68 69 69 68 69 69 69 69 70 70 69 69 68 67 67 67 67 67 67 68 68 68 68 68 68 68 63 63 64 64 66 68 68 67 67 67 66 66 67 67 67 67
69 69 68 68 68 69 69 70 70 69 69 68 67 68 67 66 67 67 67 67 67 67 67 68 68 67 63 63 63 63 64 66 68 68 67 67 67 67 67 66 66 66
68 68 68 68 69 69 69 69 69 69 69 69 68 67 67 67 67 67 67 67 67 67 67 68 68 66 63 62 62 62 63 64 67 67 67 67 67 67 67 67 66 66
68 68 69 69 69 69 69 69 68 68 68 68 68 67 66 66 67 67 67 68 68 68 68 68 68 64 61 61 60 60 61 63 66 67 66 66 67 67 67 67 66 66
69 69 69 69 69 68 67 67 67 67 67 67 67 67 67 68 67 68 68 68 68 68 68 68 70 63 60 60 59 59 60 65 65 65 65 65 66 66 66 65 66 65
69 68 68 68 68 68 68 67 67 67 67 67 67 67 67 66 67 67 68 68 69 68 67 68 69 65 59 58 58 58 60 64 64 64 64 64 65 66 65 65 65 64
69 69 68 68 67 68 68 68 68 68 68 68 67 67 67 67 68 67 67 68 68 67 68 67 69 65 59 56 56 57 61 65 64 64 64 64 65 65 65 64 64 64
69 68 68 68 68 68 69 68 68 68 69 67 68 68 68 68 68 67 67 66 66 67 68 68 69 67 60 56 55 56 60 64 64 64 64 64 64 63 62 61 60 63
69 69 69 69 69 69 69 68 68 68 68 68 67 67 67 67 66 66 66 66 66 67 68 69 68 68 67 58 56 55 57 64 64 63 63 64 64 61 61 60 60 60

ECMWFNIL_sfc_temp_033.txt.gz
Temp
82 81 81 80 80 81 79 79 79 79 79 80 80 79 79 80 81 80 81 81 80 80 80 79 79 79 79 79 79 79 78 78 78 78 77 77 77 77 76 76 75 75
81 81 81 81 80 80 79 80 79 79 79 79 80 80 80 80 80 81 80 80 80 80 80 80 79 79 79 79 79 78 78 78 78 79 77 77 77 77 77 77 77 77
81 80 80 80 80 79 80 80 79 79 80 80 80 80 80 80 80 80 80 80 80 80 79 79 79 79 79 79 78 78 78 78 77 79 78 77 78 77 77 78 77 77
80 80 80 81 81 79 79 79 78 79 80 79 79 80 80 80 80 79 79 79 79 79 80 80 80 80 79 79 78 78 78 78 79 79 78 78 78 78 78 78 77 77
79 79 80 80 80 80 79 78 79 79 79 79 80 79 79 79 79 79 79 78 79 79 79 79 79 80 79 79 78 78 78 78 79 78 77 77 78 78 78 77 77 76
80 80 80 80 79 79 78 79 79 79 79 79 79 80 80 79 79 79 79 79 80 80 80 80 80 80 80 79 78 78 78 79 79 78 77 77 78 78 78 77 77 76
79 79 79 80 79 79 78 78 79 79 79 80 79 79 80 80 79 79 79 80 80 80 80 79 79 79 79 78 78 77 78 78 78 77 76 77 77 77 78 76 76 76
79 80 79 79 78 78 78 79 79 78 79 78 79 79 79 80 78 79 79 79 80 78 78 79 79 78 80 79 77 77 78 79 78 77 76 77 77 76 77 77 76 75
79 79 78 77 76 76 79 80 79 78 78 78 78 80 78 78 78 78 77 78 77 78 77 78 78 78 79 78 78 77 77 78 79 78 77 77 76 76 77 77 76 75
77 75 75 77 77 76 78 79 79 78 77 77 77 78 77 76 77 77 77 76 76 77 77 77 78 78 78 78 77 77 77 77 78 77 77 77 77 77 78 77 76 76
73 73 73 73 75 75 76 78 78 78 76 76 77 76 77 76 75 76 75 75 76 76 76 76 78 78 77 78 77 77 77 77 77 77 77 77 77 77 77 77 77 76
70 70 70 71 73 74 75 76 77 76 76 76 76 76 76 76 75 75 75 75 75 75 76 77 77 77 77 77 77 77 76 76 77 76 77 77 77 78 78 78 77 77
69 69 70 72 73 72 73 74 75 76 77 76 76 76 75 76 76 75 74 75 75 75 76 76 76 77 76 76 76 76 75 75 76 77 76 77 77 78 79 79 78 77
70 71 72 74 74 73 73 73 73 73 73 74 75 74 75 75 76 75 75 75 75 75 75 76 76 77 76 76 76 76 76 76 76 76 77 77 77 77 78 79 78 78
73 74 75 76 76 74 72 71 72 72 73 73 73 73 74 76 76 76 74 73 74 75 76 76 76 76 77 76 76 75 76 76 76 77 77 77 77 78 79 78 78 78
74 75 73 72 73 71 71 72 72 72 73 73 73 74 75 75 75 74 75 74 74 75 75 76 75 76 72 67 69 76 77 77 77 77 77 77 76 76 78 78 78 78
74 73 72 70 69 69 72 72 71 72 72 72 73 73 73 73 73 73 73 74 75 75 75 75 75 75 67 64 64 66 75 78 76 76 76 76 76 75 76 77 78 78
73 73 72 72 71 71 73 73 73 72 72 73 73 73 73 72 72 72 72 74 74 75 76 76 77 70 64 63 64 63 66 75 77 76 76 76 77 77 77 77 77 78
74 74 74 74 74 74 74 73 73 73 73 73 73 75 74 71 70 71 72 73 74 74 75 77 78 69 63 62 63 63 63 68 77 76 76 77 77 77 77 76 76 77
74 74 74 74 74 75 75 73 73 73 74 76 76 76 74 73 72 72 73 73 74 74 75 77 77 70 63 61 61 61 62 65 75 76 77 77 76 77 77 76 76 76
75 74 73 72 73 73 72 72 72 74 75 76 77 76 74 73 73 73 73 74 75 76 76 76 77 67 62 61 59 59 60 64 74 75 76 76 76 77 76 76 77 76
75 74 73 74 73 73 72 71 72 72 73 75 75 76 76 75 74 75 75 75 76 76 77 76 79 66 62 60 59 59 60 70 73 73 74 74 75 75 76 76 76 75
75 74 74 74 74 74 73 73 73 73 74 75 74 75 75 74 74 75 75 76 77 76 75 75 77 69 60 58 58 58 61 71 72 73 73 73 74 74 75 75 74 73
75 75 73 72 72 72 73 74 74 74 75 75 75 76 76 76 77 76 76 76 77 76 78 76 77 71 60 57 56 58 62 71 72 72 73 72 70 71 71 71 70 67
76 74 72 72 72 72 72 72 73 74 75 75 75 76 76 76 76 76 76 76 76 76 71 75 78 74 61 58 56 56 62 71 71 72 71 71 70 69 70 70 70 67
75 73 73 73 74 74 74 73 73 73 75 75 75 76 76 76 76 76 75 76 77 76 77 76 76 78 73 57 55 55 57 70 73 71 70 70 70 70 70 69 70 69

ECMWFNIL_sfc_temp_036.txt.gz
Temp
88 88 87 88 87 88 87 86 87 86 86 87 86 85 86 85 86 86 86 85 85 84 84 84 84 83 84 83 83 83 82 82 83 83 82 81 81 81 81 80 80 80
88 88 88 88 88 88 88 87 87 86 85 86 86 87 86 86 86 86 85 85 84 84 84 84 84 83 83 83 83 82 82 82 82 84 82 81 81 81 81 81 81 81
88 87 87 87 88 87 89 88 87 87 87 87 87 86 86 86 85 85 85 85 84 85 84 84 83 83 83 83 83 82 82 81 81 84 82 81 82 81 81 82 82 81
87 88 88 88 89 88 88 87 87 86 88 87 87 87 87 87 85 85 84 84 84 84 84 84 84 84 83 83 82 82 82 82 83 83 82 82 82 82 82 82 82 81
87 87 88 88 88 88 87 86 87 87 87 87 87 86 85 85 84 84 84 84 83 84 83 83 83 84 83 82 82 81 83 83 83 82 81 81 82 82 82 82 81 80
88 87 87 87 87 87 86 86 87 87 87 87 86 87 86 85 84 84 84 84 85 84 84 84 83 83 84 82 82 81 82 83 84 82 81 81 82 83 83 82 81 80
87 87 86 88 87 87 86 86 86 86 86 86 85 85 85 84 84 83 84 84 84 84 84 83 82 83 83 82 81 81 82 82 83 82 81 81 81 81 82 81 80 79
87 87 87 87 86 86 86 86 86 85 85 85 85 84 85 85 83 83 83 83 83 82 82 83 82 82 84 82 81 81 82 83 83 81 81 81 81 80 80 81 80 79
87 86 85 85 84 85 87 87 87 85 85 84 84 85 83 83 83 82 81 82 82 82 81 81 81 82 83 83 82 81 81 82 83 82 81 81 81 80 81 81 80 79
85 85 85 85 85 85 87 89 89 87 85 84 83 84 81 81 82 82 82 81 81 81 81 81 81 82 82 83 82 81 81 81 82 82 82 82 81 81 81 80 80 79
84 85 84 85 86 87 89 90 90 89 86 85 83 83 81 80 80 81 80 80 80 80 80 80 81 81 81 83 82 82 82 82 82 82 82 81 81 81 80 81 80 80
84 83 83 85 87 87 89 89 86 82 83 83 82 82 81 81 80 79 79 79 79 80 80 80 80 81 81 81 82 82 82 82 83 82 83 82 82 82 82 82 81 81
84 83 84 85 83 83 85 86 83 84 84 83 83 83 82 82 82 80 79 79 79 79 80 80 80 81 81 80 81 82 82 82 83 83 82 82 82 83 84 84 83 82
84 83 83 83 83 82 83 85 84 82 81 82 82 83 84 84 84 82 83 82 81 81 80 80 80 80 81 80 81 82 82 82 82 82 83 83 83 83 84 85 84 84
83 83 83 83 83 83 83 83 83 83 82 82 82 84 85 86 84 84 82 81 81 80 79 79 80 80 81 81 81 81 82 82 82 82 82 82 82 84 84 84 85 85
83 82 82 82 82 81 81 83 83 82 83 82 83 84 83 83 83 82 83 82 80 78 78 79 80 81 77 72 74 81 82 82 82 82 82 82 81 81 83 84 84 85
82 82 81 81 81 82 82 82 82 82 81 81 82 82 82 81 81 81 82 83 81 79 77 78 79 80 71 66 67 68 78 81 82 81 82 81 81 80 80 81 83 84
81 81 80 81 81 81 81 82 82 82 81 81 81 81 81 81 80 80 81 82 81 80 79 78 78 74 66 65 66 65 67 78 82 82 82 82 82 81 81 81 81 83
82 81 80 80 81 81 81 81 81 80 80 81 81 82 82 79 77 79 80 80 80 78 78 79 80 71 64 64 64 64 63 69 81 82 81 82 82 82 81 80 81 81
82 81 80 80 81 81 81 80 80 80 81 83 82 81 80 79 78 78 79 79 79 78 78 80 81 71 63 63 62 62 63 66 80 81 81 82 81 81 81 81 81 80
80 80 79 80 81 82 81 80 80 81 81 82 83 82 80 79 79 79 79 79 80 80 80 80 82 66 61 61 60 60 61 64 79 81 81 81 81 81 80 81 81 81
81 80 79 80 81 81 81 80 80 80 79 80 80 80 81 82 80 80 79 80 80 80 81 80 83 64 61 61 60 59 60 72 77 78 79 80 80 81 81 81 81 80
81 80 80 80 81 81 81 81 80 79 79 80 78 79 81 80 80 81 80 80 79 79 79 79 84 69 60 60 59 58 63 76 76 78 78 79 79 80 80 81 81 80
81 80 80 79 80 80 81 82 82 81 81 80 79 79 80 79 78 79 81 80 80 80 82 82 84 73 58 58 57 57 66 76 77 77 78 78 79 80 80 79 79 76
82 81 81 81 80 81 83 82 81 80 81 80 80 80 80 80 79 80 81 80 81 80 77 81 84 76 56 58 56 57 65 75 76 78 77 78 78 78 79 79 78 74
82 81 80 81 81 82 82 82 81 81 79 79 78 79 80 82 81 81 80 81 80 81 83 83 82 83 74 54 55 55 60 75 78 77 77 77 78 77 77 77 77 77

ECMWFNIL_sfc_temp_039.txt.gz
Temp
89 89 89 89 89 89 89 88 88 88 87 89 89 88 88 88 88 88 88 86 86 86 86 85 85 84 85 85 84 84 84 84 84 84 82 82 82 83 82 82 82 81
90 89 89 89 89 89 89 89 88 88 87 88 89 89 88 88 88 88 87 86 85 86 85 86 84 84 84 84 83 83 83 83 82 86 83 82 82 83 83 83 82 82
90 90 89 89 90 90 91 90 89 89 89 89 89 89 89 88 87 87 86 86 85 86 85 85 84 84 84 84 84 83 83 82 82 85 83 82 83 82 83 84 83 83
90 90 90 90 91 90 90 89 89 89 90 89 89 90 89 88 87 86 86 85 85 85 85 85 84 84 84 84 83 83 83 83 83 84 83 82 83 83 83 83 83 83
90 90 90 90 91 90 90 89 90 90 90 89 90 89 87 86 86 86 85 85 84 85 84 84 84 84 83 83 83 82 83 83 83 83 82 81 82 83 84 83 82 82
90 90 90 90 90 90 89 89 89 90 90 90 89 90 88 87 86 86 85 85 86 85 85 85 84 84 84 83 82 82 83 84 84 83 81 81 83 84 85 84 82 81
90 90 90 91 91 90 89 89 89 89 90 90 89 88 88 87 86 85 85 85 85 84 84 83 82 82 83 83 82 82 82 82 83 83 81 81 81 82 84 83 81 81
91 91 91 91 90 90 89 89 89 89 89 89 88 88 87 87 85 86 86 85 86 83 81 82 82 81 83 83 82 81 81 83 82 82 81 80 81 81 82 82 82 80
91 91 90 90 90 90 91 91 91 90 90 88 88 88 87 86 85 85 84 84 84 83 81 82 82 81 81 82 82 81 81 82 83 81 80 80 80 81 81 82 81 81
90 90 90 92 92 91 92 93 93 91 90 88 88 88 86 86 85 85 84 83 83 82 82 82 82 82 81 81 81 81 81 81 82 82 81 81 81 82 82 81 81 80
90 91 90 90 92 93 93 94 94 93 91 90 88 88 88 85 84 85 83 83 82 82 82 82 82 82 80 81 81 81 82 82 82 81 81 81 82 82 82 81 81 81
89 89 89 91 91 93 94 94 94 92 91 90 90 89 88 87 84 84 84 82 82 82 82 81 81 81 80 80 81 81 82 83 83 82 82 82 82 82 82 82 82 81
89 89 89 92 90 90 92 93 95 95 94 92 91 90 89 88 87 84 84 83 82 82 82 82 82 81 80 80 80 80 81 81 83 83 82 82 83 83 84 84 83 83
89 89 89 90 90 89 90 91 93 92 91 90 90 89 90 88 88 85 85 84 83 82 82 82 82 81 80 80 80 80 81 81 82 82 83 83 83 83 84 85 84 85
88 89 89 89 90 89 89 90 91 91 90 89 88 89 89 90 89 88 84 83 83 83 82 82 82 81 80 80 80 80 81 81 82 82 82 82 83 84 85 85 86 86
88 88 87 87 88 88 87 89 91 90 90 89 88 89 88 88 87 86 86 84 83 82 82 82 82 81 77 72 74 80 80 81 82 82 82 82 82 82 84 85 85 86
87 87 87 86 86 87 87 88 88 88 87 87 86 86 87 86 86 86 86 85 84 83 82 81 81 81 71 67 69 72 79 81 81 81 82 81 82 81 81 83 85 85
87 87 86 86 86 86 86 86 87 87 86 85 85 85 85 86 86 85 85 85 84 84 83 81 81 74 66 66 68 67 71 79 82 82 82 82 83 82 82 82 83 84
86 86 85 85 85 85 86 86 85 86 85 85 85 85 85 84 83 84 84 85 83 81 82 81 81 70 65 65 66 66 66 73 81 82 82 82 83 83 83 82 82 82
86 86 85 85 85 85 84 84 85 85 86 87 86 84 83 83 84 83 83 83 82 80 79 81 81 69 64 62 63 63 64 68 81 82 82 82 82 83 83 83 82 82
86 85 85 85 85 84 83 83 84 84 85 86 86 84 83 82 83 82 82 83 83 82 80 80 81 65 62 61 61 61 63 66 79 82 82 82 82 83 82 82 82 82
85 84 84 84 84 84 83 82 82 82 83 84 85 85 83 84 84 84 82 82 82 82 81 79 82 61 61 60 61 61 61 72 78 79 80 81 82 82 83 82 82 81
86 84 84 84 84 83 82 83 82 82 83 84 83 83 82 82 82 84 82 81 80 80 80 78 81 64 59 58 60 60 63 75 77 78 79 79 80 81 82 82 81 81
86 86 84 83 83 82 82 83 84 84 84 83 82 82 82 82 82 83 82 80 80 80 82 81 81 67 57 58 59 58 65 74 76 77 78 78 79 81 81 80 81 80
87 86 84 83 82 82 83 83 83 83 84 83 82 82 81 80 81 81 81 79 80 81 76 77 79 73 56 59 56 56 64 73 74 76 75 77 78 78 79 79 80 80
87 85 83 83 83 83 83 84 84 84 84 84 82 81 80 81 80 80 80 81 82 81 81 81 82 79 62 56 55 55 59 70 73 73 75 76 77 75 76 78 80 80

ECMWFNIL_sfc_temp_042.txt.gz
Temp
86 86 85 85 85 86 85 85 85 85 84 85 84 83 83 83 85 84 84 83 82 82 82 81 82 81 82 81 81 81 80 80 80 80 79 79 79 79 79 78 78 78
86 86 85 86 85 85 85 86 85 85 84 84 84 84 84 84 85 84 83 82 82 82 82 82 81 81 81 80 80 79 79 80 79 82 79 78 78 78 79 79 79 78
86 86 86 86 86 86 88 87 86 86 86 86 86 85 85 85 84 84 83 83 82 83 81 81 81 81 81 80 79 79 79 78 78 81 80 78 78 78 79 80 78 78
86 86 87 87 87 87 87 86 86 85 86 85 86 87 86 86 84 83 83 83 81 81 82 82 81 81 81 80 80 78 79 78 79 80 79 79 79 79 79 79 79 78
86 86 87 87 87 87 87 86 87 87 87 86 87 86 85 83 83 83 82 82 81 82 81 81 81 81 80 79 79 78 79 78 79 78 78 78 78 78 79 78 78 78
87 87 86 87 86 86 86 86 87 87 87 87 86 87 86 84 83 83 83 82 83 83 83 82 81 81 81 79 78 77 78 78 79 78 77 77 79 79 80 79 78 77
87 87 87 88 88 87 87 86 87 86 87 87 86 85 86 85 83 82 82 82 82 81 82 81 80 80 80 79 78 77 77 77 78 78 77 77 77 78 80 79 78 77
88 88 88 88 88 87 87 87 87 86 87 86 86 86 85 85 83 84 82 82 82 81 80 81 80 79 80 79 77 77 78 79 78 77 76 76 77 76 77 79 78 76
88 88 88 87 87 88 89 89 89 87 87 86 86 87 85 84 83 83 81 81 81 80 80 80 79 79 80 79 78 77 77 78 79 78 77 77 76 76 77 78 77 77
87 88 88 89 89 89 90 90 90 89 88 87 87 87 85 84 83 83 82 80 80 80 80 79 79 79 79 79 78 78 77 77 77 77 78 77 77 77 78 77 77 76
87 89 88 88 89 90 90 91 91 91 89 88 87 87 86 84 82 83 81 80 80 80 79 79 79 79 79 79 79 79 78 78 78 77 77 77 77 77 78 77 77 77
87 88 87 89 90 91 91 91 91 89 89 89 89 88 87 86 83 83 81 80 80 80 79 79 79 79 78 79 80 79 78 79 78 78 78 78 78 79 79 79 78 78
87 87 88 90 88 89 90 91 92 92 91 90 89 89 87 86 85 83 81 81 80 80 80 79 79 79 78 78 78 78 78 78 79 79 78 78 78 79 80 80 80 79
87 88 88 88 89 88 88 90 91 90 89 88 88 88 88 86 85 83 82 81 80 80 80 80 79 79 78 78 78 78 78 78 78 78 78 78 78 79 81 81 80 81
87 88 88 88 88 87 87 88 89 88 88 88 87 88 88 89 87 85 81 80 80 80 80 80 79 79 79 79 78 78 78 78 78 78 78 78 78 80 80 80 82 82
87 87 87 87 87 87 86 87 89 88 89 88 87 88 87 86 84 83 83 81 79 79 79 79 79 79 76 71 73 78 78 78 78 77 78 78 77 77 79 80 81 82
87 87 87 86 86 87 87 87 87 88 87 86 86 86 86 84 83 82 82 81 81 80 79 79 79 79 71 68 70 72 77 78 77 77 78 78 78 77 77 78 80 81
87 87 86 86 86 86 86 86 87 87 86 86 85 85 84 84 83 81 81 81 81 81 80 79 79 73 67 67 68 69 73 78 78 78 78 78 79 78 78 78 78 80
86 86 85 85 85 86 86 85 85 86 86 85 85 85 84 82 81 81 80 81 81 79 80 80 80 69 65 65 66 67 69 75 78 78 78 78 78 78 77 76 77 77
86 85 85 84 85 85 85 84 84 84 86 87 86 84 82 82 82 81 81 80 80 79 79 80 80 67 64 64 65 65 66 70 79 78 78 78 77 78 78 78 77 77
85 85 84 84 84 84 84 84 84 84 84 85 85 83 81 80 81 81 80 81 81 81 80 80 79 63 62 62 63 63 63 67 78 77 77 76 76 77 77 77 77 78
85 84 84 84 84 84 83 83 83 82 82 82 83 83 82 82 81 82 81 81 81 81 81 79 76 60 61 61 60 61 62 72 75 75 75 75 76 76 75 75 76 76
85 84 84 83 83 83 82 83 82 82 82 83 82 82 82 81 80 82 81 82 82 80 79 78 73 62 59 58 59 61 64 72 74 73 74 74 75 74 75 76 76 76
85 85 83 83 83 83 82 82 83 83 83 83 82 81 81 82 82 80 81 81 81 80 81 79 74 62 58 57 60 59 65 72 73 73 73 74 74 75 74 74 72 74
85 84 84 84 83 83 83 82 82 82 83 83 83 83 83 81 81 80 79 79 80 80 77 78 74 65 58 58 57 57 65 73 72 73 71 72 72 70 68 68 69 71
84 83 83 83 82 82 82 82 82 84 84 83 83 83 83 82 80 79 77 78 79 79 76 76 72 67 62 57 57 55 61 74 73 71 71 71 71 68 68 67 68 69

ECMWFNIL_sfc_temp_045.txt.gz
Temp
82 82 81 81 81 81 80 80 80 80 79 79 79 79 79 79 80 79 78 78 77 77 76 76 76 75 76 73 74 75 74 74 74 73 73 72 72 72 73 71 71 70
82 82 81 81 81 81 80 81 81 80 79 79 79 79 78 79 79 79 78 78 77 76 76 76 75 75 75 74 73 73 73 73 73 75 74 72 72 72 72 71 72 71
82 81 81 81 81 81 81 81 81 81 80 80 80 79 79 80 79 78 78 78 77 76 76 76 75 75 75 75 73 74 73 72 73 74 73 73 72 72 72 72 71 72
82 82 82 82 82 82 81 81 81 81 81 80 80 80 81 80 79 78 78 79 77 76 76 76 76 75 75 75 74 73 73 72 73 73 73 73 73 73 72 72 72 72
82 82 82 82 83 82 82 81 81 81 81 80 81 81 80 80 78 78 78 77 77 77 76 76 76 75 75 74 74 73 73 72 72 72 71 72 72 73 73 73 71 71
82 82 82 82 82 82 82 81 81 81 82 81 81 81 81 80 79 78 78 77 77 77 77 76 76 76 75 74 73 73 73 72 73 72 72 71 72 73 75 73 71 71
82 82 82 83 82 82 82 82 82 82 82 82 82 80 81 80 79 79 78 78 78 77 77 76 75 75 75 74 72 72 73 73 72 72 72 71 72 72 73 72 71 72
82 83 83 82 82 82 82 82 82 82 82 82 82 81 81 80 80 79 79 78 78 77 76 76 76 75 76 75 73 72 72 74 73 72 72 71 71 71 72 73 72 71
83 82 82 82 82 82 82 83 83 82 82 82 82 82 80 80 80 80 78 78 77 76 76 76 75 75 75 75 74 73 73 73 73 73 73 72 71 71 71 71 71 71
82 83 83 83 83 83 83 83 84 83 82 82 82 82 80 80 80 79 78 77 77 76 76 76 75 75 75 75 75 74 73 72 72 72 73 73 72 72 72 71 71 70
82 83 83 83 83 84 84 85 85 84 83 83 82 82 81 80 79 79 78 77 77 76 76 76 76 76 75 75 75 74 74 73 73 72 71 73 73 73 74 72 72 71
82 83 82 83 84 84 85 85 85 84 84 83 83 82 81 81 79 79 78 77 77 77 76 76 76 75 75 75 75 74 74 74 74 73 72 72 73 73 73 72 72 71
83 83 83 84 84 84 85 85 85 86 85 84 84 84 82 81 80 79 79 78 77 77 77 76 75 75 75 74 75 75 74 74 74 74 73 72 73 73 74 74 73 73
83 84 84 84 84 84 84 85 85 85 84 84 84 84 83 82 80 79 79 78 78 77 77 77 76 75 75 75 75 75 75 74 74 74 73 73 73 74 74 74 73 73
83 84 84 84 84 84 83 84 84 84 84 84 83 84 83 83 82 81 79 77 77 77 77 77 76 75 75 75 74 74 75 74 74 74 74 73 73 73 74 74 74 74
83 83 83 83 83 83 83 84 84 84 84 83 83 84 83 82 81 80 80 78 77 76 76 76 75 76 72 68 71 75 74 74 74 74 74 73 72 72 72 73 74 75
83 83 83 82 83 83 83 83 83 84 83 82 82 83 83 81 81 80 79 78 78 77 76 76 75 75 67 66 68 70 74 74 73 73 74 74 73 72 72 73 74 75
83 83 82 82 83 83 83 83 83 83 82 82 82 82 82 81 80 79 79 78 78 77 76 76 75 70 64 66 67 67 70 74 74 74 74 73 73 73 73 73 73 74
83 83 82 82 82 83 83 82 82 82 82 81 81 82 81 80 79 79 78 78 77 76 76 76 76 67 63 65 66 66 67 72 75 75 74 73 73 73 72 71 71 72
83 83 82 82 82 82 82 82 82 82 82 82 81 80 80 80 79 77 77 76 76 76 76 76 76 65 62 63 65 65 65 69 74 73 73 72 72 72 71 71 71 70
83 83 82 82 82 82 81 81 81 81 81 80 80 80 80 79 77 77 76 76 77 77 76 75 76 61 61 61 63 62 62 66 73 73 72 71 72 72 71 71 70 72
83 82 82 81 81 81 80 80 80 80 80 78 79 79 79 78 77 78 76 76 76 76 76 75 71 59 61 61 61 61 63 67 71 71 71 71 71 71 70 70 71 71
83 82 81 80 80 80 80 79 79 79 79 78 77 77 77 77 76 77 76 77 76 76 76 75 67 60 59 59 59 60 63 68 70 70 70 69 70 69 69 71 71 69
83 82 80 80 80 79 79 79 79 79 79 78 78 77 77 77 76 76 76 77 77 76 77 73 66 61 58 58 58 60 64 69 70 70 69 69 70 69 70 69 71 75
82 81 80 80 80 80 80 79 79 78 79 78 78 78 78 78 77 76 75 76 77 78 73 70 67 62 57 57 58 58 63 69 70 70 68 67 68 67 67 66 68 72
81 80 80 80 79 79 79 79 78 78 78 79 78 78 77 77 75 75 75 75 76 77 74 71 68 65 60 56 57 58 60 69 69 68 67 66 67 66 66 67 67 67

ECMWFNIL_sfc_temp_048.txt.gz
Temp
80 80 79 79 79 79 79 78 77 77 77 77 77 77 77 78 78 78 77 77 76 75 74 73 73 72 73 72 72 71 71 71 71 70 70 70 69 69 70 67 67 67
80 80 80 79 79 79 79 79 78 78 77 78 78 78 78 78 78 78 77 76 76 76 75 74 73 72 72 72 71 71 70 71 71 72 70 70 70 69 70 68 69 68
80 79 79 78 79 79 79 80 79 78 78 78 79 78 78 78 77 77 77 77 76 76 75 74 73 73 72 72 71 71 71 70 71 71 71 70 70 70 70 69 68 68
80 80 80 80 80 79 79 79 79 78 79 78 78 79 79 78 78 77 76 78 76 75 75 74 74 73 73 72 71 70 71 71 71 71 71 70 70 70 70 69 69 68
80 80 80 80 80 80 79 79 79 79 79 79 79 78 78 77 77 76 76 76 76 75 75 74 74 73 73 72 71 70 70 70 70 70 70 70 70 70 71 70 69 68
80 80 80 80 80 79 79 79 79 80 79 79 79 79 78 78 77 77 76 76 76 76 75 75 74 73 73 72 71 71 70 70 70 70 70 70 70 70 72 70 69 68
80 80 80 80 80 80 80 79 80 80 80 80 79 78 78 78 77 77 77 77 76 76 75 74 73 73 72 72 71 71 70 70 70 69 69 69 69 69 70 70 69 69
80 80 80 80 80 80 79 80 80 80 80 80 79 79 79 78 77 77 77 77 77 75 75 75 74 73 72 72 71 71 70 71 71 70 69 69 69 69 69 70 70 69
80 80 80 80 80 80 80 80 80 80 80 80 79 79 79 79 78 77 76 76 76 75 75 74 73 73 73 72 72 72 71 71 72 71 70 69 68 69 69 69 69 69
80 80 80 80 80 80 80 81 81 80 80 80 80 80 78 78 78 77 77 76 76 75 74 74 73 73 73 73 72 72 72 71 71 71 71 71 70 69 69 69 69 68
80 80 80 80 80 81 81 81 82 81 81 80 80 79 79 78 78 78 76 76 75 75 74 74 73 73 73 73 73 73 73 72 72 71 71 70 70 69 71 69 69 69
80 80 80 80 80 81 81 82 82 81 81 81 81 80 79 79 78 77 77 76 76 75 75 74 74 74 73 73 74 73 73 73 72 71 71 71 71 70 71 70 70 69
80 80 80 81 80 81 81 82 82 82 82 81 81 81 80 79 78 77 77 77 76 76 75 74 74 74 74 73 73 73 73 72 72 71 71 71 71 71 71 71 71 70
80 81 81 81 81 81 81 81 82 81 81 81 81 81 81 80 79 78 77 77 76 76 75 75 74 74 74 73 73 73 73 72 72 72 71 70 70 70 71 72 72 71
80 81 81 81 81 80 80 81 81 81 81 81 80 81 81 81 80 79 77 76 76 75 75 75 74 74 74 74 73 73 73 72 71 72 71 71 69 69 71 71 72 72
81 81 81 80 80 80 80 81 81 81 81 80 80 81 81 80 80 79 78 77 76 75 75 74 74 75 72 67 69 74 72 72 71 71 72 71 71 70 71 71 72 73
81 80 80 80 80 80 80 80 80 81 80 80 80 80 80 80 79 78 78 77 76 75 74 74 74 75 67 65 66 68 71 71 71 71 71 71 70 70 70 71 71 71
81 80 80 80 80 80 80 80 81 80 80 80 80 79 79 80 79 78 78 77 77 76 75 75 75 70 66 64 65 64 67 70 72 72 71 71 71 71 71 70 70 70
81 80 80 80 80 80 80 80 80 80 80 80 80 80 80 79 78 78 77 77 77 75 75 75 75 69 65 63 63 64 68 70 72 72 71 71 71 71 69 68 68 68
81 81 80 80 80 80 80 80 80 79 80 81 81 80 79 79 79 78 77 76 77 76 75 76 75 68 63 61 60 64 66 68 71 72 71 71 70 69 69 68 68 68
81 81 80 80 80 80 80 80 80 80 80 80 81 80 79 79 79 78 77 77 77 77 75 75 76 65 60 59 59 62 64 65 70 72 70 69 69 69 69 69 69 69
82 81 81 80 80 80 80 79 79 79 79 80 80 80 80 80 79 79 78 77 77 76 76 74 75 61 59 58 58 60 62 67 68 69 69 69 69 69 69 69 70 70
82 81 81 80 80 80 79 79 79 79 80 80 79 79 79 79 79 78 78 77 76 76 75 75 71 59 58 56 58 59 61 68 69 69 69 68 68 68 69 69 70 69
83 82 81 80 80 80 80 80 80 80 80 80 79 79 79 79 79 78 77 77 76 75 76 74 69 59 55 55 57 58 63 69 69 69 69 68 67 67 67 68 69 74
83 82 82 81 80 80 81 80 80 80 80 79 80 80 79 79 77 77 75 75 76 76 71 73 70 61 54 56 57 58 63 70 69 69 68 67 66 65 65 66 67 73
83 82 82 82 81 81 81 81 81 80 80 79 79 80 78 76 75 75 74 74 75 76 74 74 70 66 59 56 57 57 60 71 69 68 67 66 65 65 65 65 66 68

ECMWFNIL_sfc_temp_051.txt.gz
Temp
78 78 77 77 77 77 77 76 76 76 76 76 76 76 76 76 77 76 76 76 75 74 73 72 72 71 71 70 70 70 69 69 69 68 68 68 67 67 67 65 64 66
78 78 78 77 77 77 77 77 77 77 76 76 77 77 77 76 76 77 76 76 75 75 73 73 72 71 71 70 69 69 69 69 69 70 68 68 68 67 68 66 66 65
78 78 77 77 77 77 78 77 77 77 77 77 77 77 77 77 76 76 76 76 75 75 73 72 72 71 71 70 69 70 70 68 69 69 69 68 67 68 68 67 66 66
78 78 78 78 78 77 78 77 77 77 77 76 77 77 77 77 77 76 76 77 75 75 74 72 72 72 71 70 70 69 69 69 69 69 69 69 68 69 68 67 68 67
78 78 78 78 78 78 78 77 77 77 77 77 77 77 77 76 76 75 75 75 75 75 73 72 72 72 71 70 70 69 69 69 69 68 68 68 68 69 69 68 67 67
79 79 78 78 78 78 77 77 78 77 77 77 77 77 77 77 76 76 75 75 75 75 74 73 72 72 71 71 69 69 69 69 69 68 68 68 68 69 70 68 67 67
78 78 78 79 78 78 78 78 78 78 78 78 77 77 77 76 76 76 76 75 75 75 74 73 72 72 71 71 70 69 68 69 68 68 68 68 68 68 69 68 67 67
79 79 79 79 78 78 78 78 78 78 78 78 77 77 77 77 76 76 76 76 75 74 74 74 73 72 72 71 70 69 69 69 69 68 68 68 68 68 68 68 68 67
79 79 78 78 78 78 78 78 78 78 78 77 77 78 77 77 77 76 75 75 75 74 74 73 73 72 72 72 71 70 70 69 69 68 68 68 68 69 68 68 67 67
79 79 78 78 78 78 78 79 79 79 79 78 78 78 77 77 77 76 75 75 75 74 74 73 73 72 72 72 72 71 70 70 68 68 68 69 69 69 68 68 68 67
78 79 78 78 78 79 79 79 80 80 79 78 78 77 77 77 76 76 75 75 74 74 74 73 73 72 72 72 72 72 72 71 69 68 68 69 69 69 70 69 69 69
78 78 78 78 79 79 79 80 80 79 79 79 79 78 78 77 76 76 76 75 75 75 74 74 73 73 72 72 72 72 72 71 70 69 69 70 70 69 70 69 69 69
78 78 78 79 79 79 79 80 80 80 80 79 79 79 78 77 77 76 76 75 75 75 75 74 74 73 73 72 72 72 71 71 70 69 70 70 70 70 70 70 70 70
79 79 79 79 79 79 79 79 79 79 79 79 79 79 79 78 77 76 76 76 75 75 75 75 74 73 73 72 72 72 71 70 70 70 70 70 69 69 70 70 70 70
79 79 79 79 79 79 78 78 79 79 79 79 79 79 79 79 79 78 76 75 75 75 75 75 74 74 73 73 72 72 71 71 71 71 70 70 69 69 70 70 70 71
79 79 79 79 78 78 78 78 78 79 79 79 78 79 79 79 78 78 77 76 75 74 74 74 74 74 71 66 68 73 71 72 71 71 70 70 69 69 69 70 70 71
79 79 79 78 78 78 78 78 78 78 78 78 78 78 78 78 78 77 77 76 75 75 74 74 74 74 66 64 65 68 72 72 71 70 70 70 70 70 69 70 70 70
79 79 78 78 78 78 78 78 78 78 78 77 78 77 78 78 77 77 77 76 76 75 75 75 74 69 64 64 65 65 68 72 72 70 71 71 70 70 70 70 69 69
79 78 78 78 78 78 78 78 77 77 77 77 77 78 78 77 77 77 77 76 76 75 75 75 75 67 63 63 64 64 65 69 71 72 71 70 70 70 70 68 67 67
79 79 78 78 78 78 78 78 77 77 78 78 78 78 77 77 77 77 77 76 76 76 75 75 75 65 62 61 62 62 64 68 71 71 71 70 70 70 69 67 67 66
79 79 78 78 78 78 78 77 77 77 77 78 78 78 77 77 77 76 77 77 77 77 76 75 76 63 60 60 60 60 63 67 71 70 69 69 69 69 69 68 67 68
79 79 79 78 78 78 77 77 77 77 77 78 78 78 78 78 77 78 77 77 77 77 76 74 75 61 59 59 59 59 62 69 69 68 68 68 68 68 68 68 68 68
80 79 78 78 78 77 77 77 77 77 78 78 77 78 77 77 77 77 78 77 77 76 75 75 74 62 58 57 57 57 61 69 68 67 67 67 68 67 67 68 68 68
80 80 79 78 78 78 78 78 78 78 78 78 78 77 77 78 78 78 78 78 77 76 76 75 75 63 56 56 56 57 62 67 68 67 67 67 67 67 67 67 68 73
81 80 80 79 78 79 79 78 78 78 79 79 79 79 78 79 78 78 77 77 77 77 71 74 75 64 54 55 55 56 64 68 68 67 66 67 66 66 66 66 66 71
81 81 80 80 79 79 79 79 79 79 79 79 78 79 79 79 78 77 77 76 76 77 76 75 74 66 59 54 54 55 61 67 68 66 66 66 65 65 64 64 65 67

ECMWFNIL_sfc_temp_054.txt.gz
Temp
78 77 77 77 77 77 77 76 76 76 76 77 77 77 77 77 77 77 77 77 77 76 75 74 74 74 73 73 72 72 71 71 71 71 71 71 71 70 70 69 69 69
78 78 78 77 77 77 77 77 77 76 76 76 77 77 77 77 77 78 77 76 77 76 76 75 74 74 73 72 72 71 71 71 71 72 70 70 71 70 71 70 70 69
78 77 77 77 77 77 78 78 77 77 77 77 78 77 77 78 77 77 77 77 76 77 75 75 74 74 73 73 72 72 72 70 71 71 71 70 71 70 71 70 70 69
78 78 78 78 78 77 77 77 77 77 77 77 77 78 78 78 77 77 77 77 76 76 76 75 74 74 73 73 72 72 72 71 72 71 71 71 71 71 71 70 71 70
78 78 78 78 78 78 77 77 77 77 77 77 78 77 77 77 77 77 76 76 76 76 75 74 74 74 73 72 72 71 71 71 71 71 71 70 70 71 71 71 70 70
78 78 78 78 78 78 77 77 77 77 77 78 77 78 78 77 77 77 77 76 77 77 76 75 74 74 74 72 72 72 72 71 71 70 70 71 71 71 72 71 71 70
78 78 78 79 78 78 78 77 78 77 78 78 78 77 78 77 77 77 77 77 77 76 76 75 74 73 73 72 72 71 71 71 71 70 70 70 71 70 71 71 70 71
78 79 79 78 78 78 77 78 78 78 78 77 77 77 77 78 77 77 77 77 77 76 76 75 74 74 74 73 72 71 71 71 71 70 70 70 70 70 70 71 71 70
79 78 78 78 78 78 78 79 79 78 78 77 77 78 77 78 77 77 76 76 76 76 75 75 74 74 74 73 72 72 72 71 72 71 70 70 70 70 70 71 70 70
78 78 78 79 79 79 79 79 80 79 79 78 78 78 77 77 78 77 77 76 75 75 75 75 74 74 74 73 73 73 72 72 71 71 71 71 71 71 71 70 70 70
78 79 78 78 79 80 79 80 80 80 79 79 78 78 78 77 77 77 76 76 75 75 75 75 75 74 74 73 73 73 73 73 72 71 71 71 71 71 72 71 71 71
78 78 78 79 79 80 80 80 80 79 79 79 79 79 78 78 77 77 77 76 76 76 76 75 75 75 74 74 74 74 73 73 72 72 72 72 72 72 72 72 71 71
78 78 78 79 79 79 80 80 80 81 80 80 80 79 79 78 78 77 77 77 76 76 76 76 75 75 74 74 74 73 73 72 72 72 72 72 72 72 72 72 72 71
78 78 79 79 79 79 79 79 80 79 79 79 79 79 79 79 78 77 78 77 77 76 76 76 75 75 74 74 74 73 73 72 72 72 72 72 72 72 72 72 72 72
78 79 79 79 79 78 78 78 79 79 79 79 79 79 79 80 79 79 77 76 77 76 76 76 75 75 75 75 74 73 73 73 72 72 72 72 72 72 72 72 72 72
78 78 78 78 78 78 78 78 79 79 79 79 79 79 79 79 79 78 78 77 76 76 76 76 75 76 71 66 68 74 73 73 73 72 72 72 72 71 72 71 72 72
78 78 78 77 78 78 78 78 78 78 78 78 78 78 78 78 78 78 78 78 77 76 75 75 76 75 67 63 65 67 73 73 72 72 72 72 72 71 71 71 71 71
78 78 78 78 78 78 78 78 78 78 77 77 78 77 77 78 78 77 77 78 77 77 76 76 76 69 64 63 64 65 68 73 73 73 72 72 72 71 71 71 71 70
78 78 77 78 77 78 78 78 77 77 77 77 77 78 78 77 77 77 77 77 77 76 76 77 76 68 63 62 63 63 65 70 73 73 73 72 72 71 71 70 69 68
78 78 77 78 78 78 78 77 77 77 78 79 78 78 77 77 77 77 77 77 77 77 76 77 76 67 62 60 61 62 63 68 73 73 73 73 72 71 71 69 68 68
78 78 77 78 78 78 77 77 77 77 78 78 79 78 77 77 77 77 77 77 78 78 77 77 77 64 60 59 59 60 61 65 73 73 73 72 72 71 71 69 68 68
78 78 78 78 78 77 77 77 77 77 77 77 78 78 78 78 78 78 77 77 78 78 77 76 78 61 59 59 59 59 60 68 71 71 71 71 71 71 69 69 69 69
79 78 78 78 78 77 77 77 77 77 77 78 77 78 78 77 78 78 78 78 78 77 77 76 77 62 58 57 58 58 61 70 70 70 70 70 70 69 68 69 69 69
79 79 78 78 78 77 77 78 78 78 78 78 77 77 78 78 78 78 78 78 78 78 78 77 78 63 56 55 56 57 63 70 70 70 69 68 68 67 68 68 69 71
80 79 79 79 78 78 79 78 78 78 79 79 79 79 78 78 78 78 78 78 79 79 72 75 78 63 54 55 56 56 64 71 70 70 70 68 68 67 67 67 67 71
80 79 79 79 79 79 79 79 79 79 79 79 79 79 79 79 78 78 77 78 78 79 78 77 77 67 59 54 55 56 61 71 70 70 70 69 68 67 66 66 67 68

ECMWFNIL_sfc_temp_057.txt.gz
Temp
83 83 82 82 83 83 83 82 83 83 83 85 85 84 84 85 85 85 85 85 85 84 85 84 82 82 82 81 81 81 81 81 82 82 81 81 81 81 81 81 80 80
82 83 83 83 83 83 83 84 83 83 83 83 85 85 85 85 85 85 84 84 84 84 84 84 82 82 81 82 81 81 80 81 81 82 80 80 81 81 81 81 81 81
83 83 83 82 83 83 85 84 84 84 84 85 85 85 85 85 85 85 84 85 84 85 84 83 82 82 82 81 81 81 81 80 80 82 80 80 81 80 81 82 81 80
82 83 83 84 84 84 84 84 84 83 85 84 84 86 86 86 85 84 84 83 84 84 84 84 83 83 82 82 81 81 81 80 82 81 80 80 80 81 81 81 81 81
83 83 84 84 84 84 84 83 84 84 84 84 85 85 84 84 84 84 84 83 83 84 84 83 83 83 82 81 81 80 81 81 81 80 80 79 80 80 81 80 80 80
83 83 83 83 84 83 83 84 84 85 85 85 84 86 85 85 84 84 84 84 85 85 85 85 83 83 83 81 80 80 81 81 81 80 79 79 80 81 82 80 80 79
83 83 83 84 84 84 83 83 84 84 85 86 85 84 85 85 84 84 84 84 85 84 85 84 82 82 82 81 80 79 80 80 81 79 79 79 79 79 81 79 79 79
84 84 84 84 84 84 83 84 84 84 84 84 84 84 85 86 84 85 84 84 85 84 83 84 82 82 83 82 80 79 80 81 80 79 78 79 79 78 79 79 79 78
84 84 84 83 84 84 85 86 85 84 85 84 84 86 85 85 85 85 83 83 83 83 83 83 82 82 82 81 80 79 79 80 81 80 79 79 78 78 79 79 79 78
83 84 84 85 85 85 86 87 87 86 85 84 85 86 85 84 85 84 84 83 83 82 82 82 82 82 82 82 81 80 80 79 79 79 80 80 79 79 80 79 79 78
83 84 84 84 86 87 87 88 88 88 87 86 85 86 86 85 84 84 83 83 82 82 82 82 82 82 81 82 81 81 81 81 80 79 80 80 80 80 79 79 79 79
83 83 83 85 86 87 88 88 88 87 88 87 87 86 86 87 84 84 83 82 83 83 83 83 83 82 81 81 82 82 81 82 81 80 80 80 81 81 80 80 80 80
83 83 83 86 85 85 86 87 88 89 88 88 87 87 87 87 87 84 84 83 83 83 83 83 83 83 82 81 81 81 81 81 82 81 80 80 81 81 82 82 81 81
83 83 84 84 85 84 85 86 87 87 86 86 87 86 87 87 88 86 85 84 84 83 83 83 83 82 82 81 81 81 81 80 81 81 81 81 80 81 82 83 82 82
83 84 84 84 84 83 83 84 85 85 85 86 85 86 87 88 88 88 85 83 84 83 83 84 83 82 82 82 81 80 81 81 80 80 80 80 80 82 82 82 83 83
83 83 83 83 83 83 83 84 85 85 86 85 85 86 85 85 86 86 86 84 83 83 83 83 82 83 76 68 71 80 81 81 80 80 80 80 80 80 81 82 82 83
83 83 83 82 82 83 83 83 83 84 84 83 83 84 84 84 84 85 85 85 84 84 83 82 82 82 68 65 66 69 78 81 80 79 80 80 80 79 79 80 81 82
83 83 82 82 82 82 83 83 84 83 83 83 83 83 83 84 83 83 83 85 85 85 84 83 83 72 65 64 65 65 69 80 81 80 80 80 81 81 80 80 80 81
83 83 82 82 82 82 83 83 82 82 82 83 83 83 83 82 82 83 83 83 84 83 83 84 84 70 64 63 63 64 64 73 82 81 80 80 81 81 81 80 79 79
83 83 82 82 82 82 82 82 82 82 83 85 84 83 82 82 83 82 83 82 83 83 82 84 83 69 63 61 62 62 63 68 81 81 81 81 80 81 81 80 79 78
83 83 82 82 83 82 82 82 82 82 83 84 85 84 82 81 82 82 82 83 84 84 83 83 84 65 61 60 60 60 61 65 80 81 81 80 81 81 81 81 80 79
84 83 82 83 83 82 82 82 82 81 81 82 83 85 84 84 83 84 83 83 83 85 84 83 86 64 60 59 59 59 60 72 78 80 80 80 80 80 81 80 80 79
84 83 83 83 83 82 82 82 81 81 82 83 82 83 84 83 83 84 84 84 84 84 83 82 85 68 58 57 58 57 62 75 77 78 79 78 79 80 80 81 80 79
83 83 82 82 82 82 82 83 83 83 83 83 83 83 84 84 85 84 84 84 85 84 84 83 86 70 56 56 57 56 64 75 77 78 78 78 78 79 80 80 78 73
85 83 83 83 83 83 84 83 83 83 84 84 84 84 84 84 84 84 84 84 85 86 75 81 86 73 55 57 56 55 65 77 77 78 77 77 77 77 78 77 77 73
84 83 83 83 83 83 84 84 84 85 85 84 84 84 84 85 84 84 83 84 86 86 85 84 84 82 64 56 55 55 60 76 79 78 77 77 77 77 75 74 74 74

ECMWFNIL_sfc_temp_060.txt.gz
Temp
87 87 87 88 88 89 88 88 89 89 89 91 91 90 91 91 91 92 92 91 90 90 90 89 89 88 88 88 87 87 87 87 88 88 86 86 85 85 86 85 85 85
87 87 87 88 88 88 89 89 89 89 89 89 91 92 91 91 91 91 91 91 90 90 90 90 89 88 88 88 87 87 87 87 86 90 86 85 85 85 86 86 86 86
87 87 88 87 89 89 91 90 89 90 90 91 91 91 92 92 91 90 90 91 90 91 90 90 89 88 88 88 87 87 87 86 86 90 87 85 86 85 86 87 86 86
87 87 88 89 89 89 89 89 89 89 91 90 91 92 92 93 91 91 90 89 90 90 91 90 90 90 88 88 87 87 88 86 87 88 87 86 86 86 86 86 86 86
87 87 88 89 89 89 89 89 90 90 90 91 92 91 90 90 90 91 90 89 89 90 90 90 89 90 88 87 87 87 88 87 87 87 86 85 85 85 87 86 85 85
88 88 88 88 89 88 89 89 89 91 91 92 90 92 92 91 90 91 91 91 91 91 92 91 90 90 90 88 87 87 88 88 88 86 85 85 86 87 87 86 85 84
88 88 88 89 89 89 89 89 89 90 91 92 91 91 92 91 90 90 90 91 91 90 91 90 89 89 89 88 86 86 87 87 88 86 84 85 85 85 87 86 84 84
89 90 89 89 89 89 88 89 90 89 90 90 91 90 91 92 90 91 90 91 91 90 89 90 89 88 91 89 86 86 86 88 87 86 84 85 85 84 85 86 84 83
89 89 89 89 89 90 91 92 91 90 90 90 91 93 91 91 91 91 89 89 89 89 89 89 88 88 89 88 87 86 86 87 88 86 85 85 85 85 85 85 84 83
88 89 90 92 91 91 92 93 94 92 91 90 91 93 92 90 91 91 90 88 89 88 89 88 88 89 88 89 87 87 86 86 86 86 86 86 86 85 86 85 84 83
89 90 90 90 92 93 94 95 95 95 93 92 92 92 94 91 90 90 89 89 88 88 88 88 88 88 88 89 88 88 87 87 87 86 86 86 86 86 84 85 85 84
88 89 89 91 92 94 95 95 96 94 95 94 93 92 93 94 91 90 90 88 88 89 89 88 88 88 88 88 90 89 88 88 88 87 87 87 87 87 87 87 86 85
88 88 89 92 91 91 94 95 96 97 97 96 95 94 94 94 95 91 90 89 89 89 89 89 88 89 88 87 88 88 87 87 89 88 87 87 88 88 89 88 88 87
89 89 89 90 91 90 91 93 94 94 93 94 94 93 94 95 95 93 92 91 90 90 89 89 89 88 88 87 87 88 88 87 87 88 88 88 88 88 90 90 89 88
89 89 89 89 90 90 89 90 92 92 92 93 92 94 94 96 95 96 92 90 90 89 89 90 89 88 89 88 87 87 88 87 87 87 87 87 87 89 90 90 91 90
88 88 88 88 89 88 88 89 91 92 93 92 92 93 92 92 93 93 95 92 90 89 89 89 89 89 81 72 75 87 87 87 87 87 87 87 87 87 89 90 90 92
88 88 88 87 87 88 88 88 89 90 90 90 90 90 90 90 91 92 93 93 92 91 89 89 89 88 71 67 69 72 85 87 87 86 86 87 87 86 86 88 90 90
88 88 87 87 87 87 88 88 89 89 88 88 89 89 89 91 90 90 90 92 93 92 91 89 89 77 67 66 67 68 73 86 88 87 87 87 88 87 87 88 89 90
88 87 87 87 87 87 87 87 87 87 88 88 89 89 89 88 88 89 89 90 91 90 91 91 91 73 65 64 66 66 67 77 89 88 87 87 87 87 87 87 87 87
88 87 87 87 87 87 87 87 87 86 88 90 90 88 87 88 88 88 88 88 89 89 89 91 91 72 63 62 63 63 65 72 88 88 88 88 87 87 88 87 87 87
88 87 87 87 87 87 86 86 86 87 87 89 91 89 87 86 87 87 88 88 90 91 90 90 91 68 61 61 61 61 63 67 86 88 88 87 87 87 86 87 87 87
88 87 87 87 87 87 86 86 86 86 86 87 89 90 90 90 89 89 89 88 89 90 90 89 92 65 60 60 60 60 61 76 82 85 86 86 86 86 86 86 87 87
89 88 87 87 87 87 86 86 86 86 87 88 87 89 90 89 89 90 89 90 89 89 88 88 91 71 58 58 59 58 63 80 81 83 84 84 85 86 86 87 87 87
89 89 87 87 87 87 87 87 88 88 88 88 88 88 90 91 91 89 90 89 90 89 90 89 91 75 56 57 57 56 66 80 82 82 82 83 84 85 87 86 85 77
90 89 89 89 87 88 89 88 88 88 89 89 90 90 90 90 90 90 90 89 91 91 78 86 91 78 55 58 56 56 67 81 82 83 82 82 83 84 85 86 85 80
90 89 88 89 88 88 89 89 89 90 90 90 90 90 90 91 90 90 89 90 92 92 91 90 89 91 70 56 56 55 60 79 83 82 82 82 83 83 84 84 84 85

ECMWFNIL_sfc_temp_063.txt.gz
Temp
89 89 89 89 90 90 90 90 91 90 90 92 92 91 91 92 92 93 93 92 91 91 91 90 90 89 90 89 89 88 89 88 88 88 87 87 86 86 87 86 86 86
89 89 89 90 89 90 90 91 90 90 90 91 92 93 92 92 93 93 93 93 91 91 91 91 90 89 89 90 89 88 88 88 87 90 87 86 86 86 87 87 87 87
89 89 90 89 91 91 93 92 91 91 92 93 93 93 94 93 93 92 92 93 92 92 91 91 90 89 90 90 89 88 88 87 87 91 88 86 87 86 86 89 88 87
89 89 90 91 92 91 91 91 91 91 92 92 92 94 95 95 93 93 92 91 92 91 92 91 91 91 90 90 89 89 88 87 88 88 88 87 87 87 86 87 87 87
89 89 90 91 91 91 91 91 92 92 92 93 94 93 92 92 92 93 92 91 91 92 91 91 91 91 90 89 88 88 89 89 88 88 87 87 87 87 88 87 86 86
89 89 89 90 90 90 91 91 91 93 93 94 93 95 95 94 93 93 93 92 93 93 93 93 92 91 91 89 88 88 89 89 89 87 86 86 88 88 89 87 86 85
90 89 90 91 92 91 91 91 91 92 94 94 93 93 94 94 93 92 93 93 93 92 93 92 90 90 91 89 88 87 88 88 89 87 86 87 86 87 88 87 86 85
90 91 91 91 91 91 91 92 92 92 92 93 94 93 93 95 93 94 93 93 93 92 91 92 91 90 92 90 88 87 88 89 89 87 86 86 86 85 87 87 86 84
91 91 91 91 91 92 94 94 94 93 93 92 93 95 93 93 94 94 92 92 92 92 91 91 91 91 91 90 89 88 87 89 90 88 87 86 86 86 87 87 86 85
90 91 92 93 93 94 94 95 96 95 94 93 93 95 94 92 93 93 92 91 91 91 91 90 91 91 91 91 89 89 88 87 88 88 88 87 87 87 88 87 87 85
91 93 93 93 94 95 96 97 97 98 96 95 94 95 96 94 92 93 91 91 91 91 91 90 91 91 90 91 91 90 89 89 89 88 88 88 88 87 87 87 87 86
90 91 92 94 95 96 97 98 98 97 98 96 96 95 95 97 93 93 92 91 91 91 91 90 90 90 90 90 92 91 90 90 90 89 90 89 89 89 89 89 88 87
91 91 92 95 94 95 97 97 98 99 99 99 97 96 96 97 97 93 92 92 91 91 92 91 90 91 90 89 90 90 90 89 91 90 90 90 90 90 91 90 89 89
91 91 92 93 94 93 94 96 98 97 96 97 97 95 97 97 98 96 94 94 92 92 91 91 90 90 90 89 90 90 90 89 89 90 91 90 90 90 91 92 91 90
91 91 92 92 93 92 93 94 95 95 96 96 96 97 97 98 98 99 95 92 92 91 92 92 91 90 91 90 89 89 90 90 89 89 90 89 90 91 91 92 93 92
91 91 90 91 92 91 91 93 95 95 97 96 96 97 96 95 95 96 98 95 92 91 91 92 91 91 84 75 77 89 89 90 90 89 89 90 89 89 91 92 93 94
90 90 90 90 90 91 92 92 93 94 94 93 94 94 94 93 94 95 96 97 94 93 92 91 91 91 74 69 71 74 87 89 89 88 89 89 90 88 88 90 92 93
90 90 89 89 90 90 91 91 92 92 92 92 93 93 92 95 94 93 93 96 96 95 93 92 92 79 69 68 69 69 74 89 91 90 89 89 90 90 89 90 91 92
90 90 89 89 89 90 90 90 90 91 91 92 93 93 93 91 91 93 92 93 95 93 93 94 93 76 67 66 68 68 69 79 91 90 90 90 89 90 90 89 89 90
90 90 89 89 90 89 90 90 90 89 92 94 94 92 91 91 92 91 92 91 92 92 92 94 93 75 65 64 65 65 67 73 90 91 90 90 89 90 90 90 89 89
90 90 89 89 90 89 89 89 89 89 90 92 94 93 91 89 90 90 91 91 93 94 93 94 94 71 63 62 63 63 65 69 89 91 91 90 90 90 89 90 89 90
91 89 89 89 89 89 89 88 89 88 88 90 92 94 93 93 92 92 92 91 92 93 93 92 96 68 61 62 61 62 63 77 84 87 88 89 89 89 89 89 89 89
91 90 89 89 89 89 88 89 88 88 89 90 90 92 93 92 91 92 91 92 92 91 90 91 94 73 59 60 60 60 65 81 83 85 86 87 88 89 89 90 90 90
91 91 90 89 89 89 89 90 91 90 90 90 90 91 93 94 93 92 92 92 93 92 93 91 94 76 56 59 59 58 67 81 83 84 84 85 86 88 89 89 88 78
92 91 91 91 90 90 91 90 90 90 91 91 92 92 92 92 93 92 92 92 94 94 82 89 93 81 56 59 57 57 68 82 84 84 83 84 85 85 87 88 88 81
92 91 90 91 90 90 91 91 91 92 92 92 92 92 92 93 93 92 92 93 95 94 94 93 92 93 71 57 56 56 60 80 85 84 83 83 84 84 85 86 87 87

ECMWFNIL_sfc_temp_066.txt.gz
Temp
85 85 85 85 86 86 86 86 86 86 85 88 87 87 86 87 88 88 89 88 87 87 87 86 87 86 87 86 86 86 84 84 85 84 83 82 81 82 83 82 82 82
85 85 85 86 85 86 86 87 86 86 86 86 87 87 87 88 89 89 88 88 87 88 87 88 87 86 86 86 85 85 83 84 84 86 83 82 82 82 83 83 83 82
86 86 86 86 87 87 90 89 88 88 88 89 89 88 88 89 89 88 88 88 88 89 87 87 87 86 86 86 85 85 84 83 83 87 83 82 83 81 82 84 82 83
85 86 87 87 88 88 88 88 88 87 89 88 88 90 90 91 89 89 88 88 87 87 88 88 87 88 87 86 85 85 85 84 84 85 84 83 83 83 83 82 83 83
86 86 87 87 88 87 87 87 89 89 89 89 90 89 88 87 88 89 88 88 87 88 87 87 87 87 86 86 85 84 85 84 85 84 83 82 82 83 84 82 81 82
86 86 86 87 87 87 88 88 88 90 90 91 89 91 90 89 89 89 89 89 90 90 89 89 88 88 88 86 85 84 85 85 85 84 83 83 83 84 85 83 81 81
86 86 87 88 88 88 88 88 88 88 90 90 89 89 90 90 89 89 89 89 90 88 90 87 86 87 87 86 85 84 84 84 85 84 83 83 83 83 84 83 81 81
87 88 88 88 88 88 88 88 88 88 89 89 90 89 90 91 89 91 89 89 90 88 87 88 87 86 88 86 85 84 84 86 85 84 83 83 83 82 82 84 82 80
87 88 88 88 89 89 90 91 90 89 89 89 90 92 90 90 90 90 88 88 88 87 87 87 86 87 87 86 85 84 84 85 86 85 83 83 83 82 83 83 83 81
87 88 89 89 89 90 91 92 92 91 90 90 91 92 91 89 90 90 88 87 88 87 87 87 87 87 87 87 86 85 84 84 85 85 85 84 84 84 84 83 83 82
88 89 89 89 90 91 91 93 93 93 92 91 91 92 93 90 89 89 88 87 88 88 87 87 87 88 87 88 87 87 86 85 85 85 85 84 84 84 84 83 83 83
87 88 88 89 90 92 92 93 94 93 93 92 92 92 92 93 90 90 89 88 88 88 88 87 87 87 86 87 89 88 86 87 86 85 86 85 85 85 85 84 84 83
88 88 89 91 90 90 92 93 94 95 95 94 93 92 92 93 93 90 89 89 88 89 89 88 87 88 86 86 87 87 86 86 87 86 86 86 86 86 87 86 86 85
88 88 89 89 90 89 90 92 94 93 92 93 92 92 93 93 94 92 91 90 90 89 88 88 87 87 87 86 87 87 87 86 86 86 87 86 86 87 87 87 87 87
88 88 89 89 89 88 89 90 91 91 91 92 92 93 93 94 94 95 91 89 90 89 88 89 88 88 88 87 86 86 87 87 86 86 86 86 86 88 88 87 88 88
87 88 88 88 88 88 88 89 91 91 93 92 92 93 92 91 91 92 93 91 89 88 88 88 88 88 83 75 77 86 86 87 87 86 86 86 85 85 87 88 89 89
87 87 87 87 87 88 88 89 89 91 90 89 90 90 91 89 90 91 93 93 91 90 88 88 88 88 74 69 71 74 84 86 86 85 85 85 86 85 85 87 88 88
88 87 87 87 87 87 88 88 89 89 88 88 89 90 89 91 91 90 90 92 92 91 90 89 89 79 70 69 70 70 74 86 87 86 86 86 87 86 86 86 87 88
88 87 87 87 87 87 88 88 87 88 88 89 90 90 90 88 88 90 89 90 91 89 90 90 90 77 68 67 68 68 69 78 88 87 87 87 86 87 86 85 85 86
88 88 87 87 87 87 87 87 88 87 90 92 92 90 88 89 90 89 89 88 89 89 88 90 89 77 66 65 66 66 67 72 87 88 87 88 87 87 87 86 86 85
88 88 87 87 87 87 87 87 87 87 88 90 93 91 89 87 89 89 89 89 91 92 90 91 91 73 65 63 63 64 65 67 84 88 88 87 87 87 86 86 86 87
89 88 87 87 87 87 87 87 87 87 87 88 90 92 91 91 90 91 90 90 90 91 91 90 93 71 64 63 63 62 64 72 80 85 86 86 86 86 87 86 86 86
90 88 87 87 88 87 87 87 87 87 87 88 88 90 91 90 90 91 90 91 91 90 89 89 92 75 61 61 61 61 63 75 78 82 84 85 85 86 87 87 87 87
89 89 88 88 87 87 87 88 89 89 89 88 88 89 91 92 92 90 90 90 91 90 91 90 90 79 59 59 59 60 65 76 79 81 82 83 84 85 86 86 86 79
90 89 89 89 88 88 89 88 88 88 89 89 90 90 90 90 90 90 90 90 92 92 82 87 91 83 59 58 57 58 65 78 80 81 81 82 82 83 84 85 85 81
90 88 88 89 88 88 89 88 88 90 90 90 90 90 90 91 91 90 89 90 92 92 93 91 90 91 74 56 56 56 59 76 81 81 81 81 82 82 82 83 84 85

ECMWFNIL_sfc_temp_069.txt.gz
Temp
81 81 81 81 81 81 81 81 81 81 80 81 81 81 82 82 83 83 83 82 82 82 81 82 81 81 82 81 80 80 79 79 79 78 77 76 75 74 76 74 74 74
81 81 81 81 81 81 81 82 82 82 80 80 81 81 82 82 83 84 82 82 82 83 82 82 81 81 81 81 79 79 78 79 78 80 78 76 76 75 76 74 75 74
81 81 81 81 81 82 82 82 82 82 82 82 82 81 82 83 83 83 83 83 82 83 82 81 81 81 81 81 80 79 79 78 78 80 78 77 76 76 76 76 75 75
81 82 82 82 82 82 83 82 82 82 83 82 82 83 83 84 83 83 82 83 82 82 83 82 82 82 81 81 80 79 79 79 79 79 78 77 77 77 76 76 75 76
81 82 82 82 83 83 83 82 83 83 83 83 84 83 83 82 82 83 82 82 82 82 82 82 82 82 81 80 80 79 79 79 79 78 77 77 77 77 78 77 75 75
82 82 82 82 82 82 83 83 83 83 83 83 84 84 83 83 83 83 83 83 83 83 83 83 82 83 82 81 80 80 80 79 79 79 77 77 78 78 80 77 76 75
81 82 82 83 83 83 83 83 83 83 84 85 84 84 84 83 84 84 84 84 83 83 83 83 82 82 82 82 80 80 80 80 79 79 78 77 77 77 79 78 77 76
82 83 83 83 83 83 83 83 83 83 84 84 84 84 85 84 83 85 84 84 84 83 83 83 82 82 83 82 81 80 80 81 80 79 78 78 77 77 78 78 77 76
82 82 82 82 83 83 83 84 84 84 84 84 84 85 85 85 84 84 83 84 84 83 82 83 82 82 82 82 81 80 80 80 81 79 79 78 77 77 77 78 77 76
82 82 82 83 83 84 84 84 85 85 84 84 85 85 84 85 85 84 83 83 83 83 82 82 82 82 82 82 81 81 80 80 80 80 79 79 79 78 78 78 78 76
82 83 82 83 83 84 84 85 86 86 85 85 85 85 86 84 84 85 83 82 83 83 83 83 82 82 82 83 82 82 81 81 81 80 80 80 80 80 80 78 78 78
82 82 82 83 84 84 85 86 86 86 86 86 86 86 86 86 85 84 84 83 83 83 83 83 83 83 82 83 83 83 82 82 81 81 81 80 80 80 80 80 79 79
82 82 83 84 84 84 85 86 86 87 87 87 87 87 87 86 86 85 84 84 84 84 84 83 83 83 82 82 83 83 82 81 81 81 81 81 81 81 81 81 81 80
83 83 84 84 85 84 85 86 86 87 86 86 86 87 87 87 87 85 85 85 85 84 84 84 83 83 83 82 82 83 82 81 81 81 81 81 81 81 82 82 81 81
83 84 84 84 84 84 84 85 85 86 86 86 86 87 87 88 88 87 85 84 84 84 84 84 84 83 83 83 82 82 83 82 82 81 81 81 81 82 82 82 83 83
83 83 83 83 84 83 83 84 85 86 87 86 86 87 87 87 87 87 86 85 84 84 84 84 84 84 80 74 75 83 82 83 82 82 82 81 81 81 82 82 83 83
83 83 83 82 83 84 84 84 84 85 85 85 85 85 86 85 86 86 87 86 85 85 84 83 84 84 73 68 70 72 81 83 82 81 82 82 81 80 80 82 82 83
84 83 83 83 83 83 83 84 85 85 84 84 85 85 84 86 85 85 86 86 86 86 85 84 84 77 70 68 68 68 72 83 83 82 82 82 82 82 81 82 82 83
84 83 83 83 83 83 83 83 83 84 84 84 85 85 85 84 84 85 85 86 85 84 85 85 85 75 68 67 67 66 67 74 84 83 82 82 82 82 82 81 81 81
84 83 83 83 83 83 83 83 83 83 85 86 86 85 84 84 85 85 85 85 85 84 84 86 85 75 67 65 65 65 66 69 83 83 83 83 82 82 83 82 82 82
84 83 83 83 83 83 83 83 83 83 84 86 86 86 85 84 84 84 85 85 86 86 84 85 85 73 65 64 63 63 64 66 81 83 83 83 83 83 83 83 82 82
85 84 83 83 83 83 82 82 83 83 83 85 86 87 86 86 85 86 85 85 85 86 86 84 86 71 65 63 62 62 63 71 78 81 82 83 83 83 83 83 83 83
85 84 84 83 83 83 82 83 82 82 83 85 84 86 86 85 85 86 86 86 86 85 85 86 86 74 63 61 61 61 63 75 77 79 81 82 83 83 83 83 83 83
86 85 84 83 83 83 83 84 84 84 84 84 84 85 86 87 87 86 86 87 86 86 86 86 87 76 61 60 59 60 65 76 77 78 79 80 81 82 83 83 84 78
86 85 85 84 84 84 85 84 84 84 85 84 85 85 86 86 85 86 86 86 87 87 81 84 86 80 59 58 58 58 64 77 78 78 78 79 80 81 81 82 83 80
86 85 85 85 84 84 85 84 84 85 85 85 85 86 85 85 85 85 85 86 86 86 87 85 85 85 71 55 56 56 58 74 78 78 78 78 79 80 80 80 81 82

ECMWFNIL_sfc_temp_072.txt.gz
Temp
79 79 78 78 78 78 79 78 78 78 77 78 78 78 79 80 80 80 80 80 80 80 79 79 79 78 79 78 77 77 76 76 76 75 74 73 72 71 72 71 71 71
79 79 79 79 78 78 78 79 79 79 77 77 79 79 79 79 80 80 80 80 80 80 80 80 79 78 78 78 77 77 76 76 75 77 75 74 73 72 73 72 72 71
79 79 79 78 79 79 79 79 79 79 79 79 79 79 79 80 80 80 80 80 80 80 79 80 79 79 79 78 77 77 77 75 76 76 75 75 74 73 73 72 71 71
79 80 80 80 80 79 80 79 79 79 80 78 78 80 81 81 80 80 79 81 79 80 80 80 80 80 79 79 78 77 77 76 77 76 75 75 74 74 74 73 72 72
79 79 80 80 80 80 80 79 79 80 80 80 80 79 79 79 80 80 79 79 79 80 79 79 80 80 79 79 78 77 77 77 76 76 75 74 74 74 75 74 72 72
79 80 80 80 80 80 80 80 80 80 80 80 80 80 80 80 80 80 80 80 80 80 80 80 80 80 80 79 78 78 77 76 77 76 75 75 75 75 76 74 73 73
79 79 79 80 80 80 80 80 80 80 81 82 81 79 80 80 80 80 80 80 80 80 80 80 79 79 79 79 78 78 77 77 77 76 75 75 75 74 75 74 74 73
80 80 80 80 80 80 80 80 80 80 81 81 81 81 80 81 80 81 81 81 81 80 80 80 80 79 80 79 78 78 78 78 77 76 75 75 75 74 74 75 74 73
80 80 80 80 80 80 80 81 81 81 81 81 81 82 81 81 81 81 81 81 80 80 79 80 80 80 80 79 79 78 78 78 78 77 76 76 75 75 75 75 74 74
79 80 80 80 80 80 80 81 82 82 81 81 82 82 82 82 82 82 81 80 80 80 79 80 80 80 80 80 79 79 78 78 78 77 77 77 77 76 76 75 75 74
79 80 80 80 80 81 81 82 82 83 82 81 82 82 82 82 81 81 81 80 80 80 80 80 80 80 80 80 80 80 79 79 78 78 78 78 78 77 77 76 76 75
79 79 79 80 80 81 81 82 82 82 82 82 82 82 82 83 82 81 81 81 81 81 81 80 80 80 80 80 80 80 80 80 79 79 78 78 78 78 78 77 77 76
79 79 80 80 80 81 82 82 82 83 83 83 83 83 83 83 83 82 81 81 81 81 81 81 80 81 80 80 80 80 80 79 79 79 79 78 78 78 79 78 78 77
80 80 80 80 81 81 81 82 82 82 82 83 83 83 83 83 83 82 82 82 82 81 82 82 81 80 80 80 80 80 80 79 79 79 79 79 79 79 79 79 79 79
80 80 81 80 81 80 80 81 82 82 82 82 82 83 84 84 84 84 82 81 82 81 81 82 81 80 81 81 80 80 80 80 79 79 79 79 79 79 79 79 80 80
80 80 80 80 80 80 80 81 81 82 82 82 82 83 83 83 83 83 83 82 81 81 81 81 81 81 78 72 73 81 80 81 80 79 79 79 78 78 79 79 79 80
80 80 80 79 80 80 80 80 81 81 81 81 81 82 82 82 82 83 83 83 82 82 81 81 81 81 72 68 68 70 79 80 80 79 79 79 79 78 78 79 79 80
80 80 79 79 80 80 80 80 81 81 81 81 81 81 81 83 82 82 82 83 83 83 82 81 81 75 69 67 67 67 69 80 81 80 79 79 79 79 79 79 79 79
81 80 80 80 80 80 80 80 80 80 80 80 81 82 82 81 81 82 82 82 83 82 82 82 82 73 68 66 65 66 65 72 81 81 80 80 79 79 79 79 79 79
81 81 80 80 80 80 80 80 80 80 81 82 82 81 81 81 81 81 82 81 82 82 82 83 82 74 67 64 64 64 64 67 80 81 81 80 80 80 80 80 79 79
81 81 80 80 80 80 80 80 80 80 80 82 82 82 81 81 81 81 81 82 83 83 83 82 83 72 65 63 62 62 63 64 78 81 81 81 81 81 80 80 80 80
82 81 81 81 80 80 80 80 80 80 80 81 82 83 83 83 82 82 82 82 82 83 83 82 84 70 64 63 61 61 62 69 75 78 80 81 81 80 81 81 81 81
83 82 81 81 81 80 80 80 80 80 81 81 81 82 82 82 82 83 83 83 83 82 82 83 84 73 63 61 60 60 61 72 75 77 78 79 80 81 81 81 81 81
83 83 81 81 81 80 80 81 82 82 82 82 81 81 82 83 83 83 83 83 83 82 83 83 83 76 61 59 58 59 64 74 75 76 77 78 79 80 81 81 81 76
84 83 82 82 81 81 82 81 81 81 82 82 82 83 83 83 83 83 83 83 84 83 79 81 84 77 59 59 57 57 63 74 76 76 76 77 77 78 80 80 81 78
84 83 83 83 82 82 83 82 82 82 82 82 82 83 83 83 83 82 82 82 83 83 83 82 82 82 66 58 57 57 59 73 77 77 76 77 78 78 78 78 79 80

ECMWFNIL_sfc_temp_075.txt.gz
Temp
79 78 78 77 77 77 77 76 77 76 76 76 76 76 77 78 78 77 78 77 77 77 77 76 77 77 77 76 76 75 74 74 74 73 72 72 70 70 71 69 68 68
78 78 78 78 77 77 77 77 77 76 76 76 77 77 77 77 77 78 77 77 77 77 77 77 77 77 76 76 76 75 74 74 73 75 73 71 71 70 71 69 69 69
78 78 78 77 77 77 78 78 77 77 77 76 76 76 77 78 77 77 77 77 77 77 77 77 77 77 77 76 76 75 75 73 74 74 73 73 71 71 71 70 69 69
78 78 78 78 78 77 78 77 77 77 77 75 76 77 78 78 78 77 77 79 77 77 77 77 77 77 76 76 76 75 75 75 75 74 74 73 73 72 72 71 71 70
78 78 78 79 79 78 78 77 77 77 77 78 77 76 77 77 77 77 77 77 77 77 77 77 77 77 77 76 76 75 75 74 74 74 73 73 73 73 73 71 70 70
78 78 78 78 78 78 78 77 78 78 78 77 77 77 77 77 77 77 77 77 78 78 78 77 77 77 77 76 76 76 75 75 74 74 73 73 73 73 74 72 71 71
78 78 78 79 78 78 78 78 78 78 78 79 77 76 77 77 77 78 78 78 78 78 78 77 77 77 77 77 76 75 75 75 74 74 73 73 73 73 73 73 72 72
78 79 79 78 78 78 78 78 78 78 78 78 78 78 77 78 78 78 78 78 78 78 78 78 77 77 77 77 76 76 76 76 75 74 74 74 73 73 73 73 73 72
79 78 78 78 78 78 78 78 79 78 79 78 78 79 78 78 78 78 78 78 78 78 77 77 77 77 78 77 77 76 76 76 76 75 74 74 73 73 73 73 72 72
78 78 78 78 78 78 78 79 80 79 79 78 79 79 78 78 78 78 78 77 77 77 77 77 77 77 77 77 77 77 76 76 76 75 75 75 75 75 74 73 73 72
78 78 78 78 78 79 79 79 80 80 79 79 79 79 79 78 78 78 78 77 77 77 77 77 78 78 77 77 78 78 77 77 77 76 76 76 76 75 76 74 74 73
78 78 78 78 78 79 79 80 80 80 80 80 79 79 79 80 78 78 78 77 78 78 78 78 78 78 78 78 78 78 77 77 77 77 77 76 76 76 76 75 75 74
78 78 78 79 79 79 79 80 80 80 80 80 80 80 80 79 79 79 78 78 78 78 78 78 78 78 78 78 78 78 78 77 77 77 77 77 77 77 77 76 76 76
78 79 79 79 79 79 79 79 80 80 80 80 80 80 80 80 80 79 79 79 79 79 79 79 78 78 78 78 78 78 78 77 77 77 77 77 77 77 77 77 77 77
78 79 79 79 79 78 78 79 79 79 79 80 80 80 80 81 81 81 80 79 79 79 79 79 78 78 78 79 78 78 78 78 78 77 77 77 77 77 77 77 77 77
78 78 78 78 78 78 78 78 79 79 79 79 79 80 80 80 80 80 80 80 79 79 79 79 79 79 76 70 71 79 78 78 78 78 77 77 77 76 76 77 77 78
78 78 78 77 78 78 78 78 78 79 79 78 78 79 79 79 80 79 80 80 80 79 78 78 79 79 71 67 66 68 77 78 78 77 77 77 77 76 76 77 77 77
78 78 77 77 77 77 78 78 78 78 78 78 78 78 78 79 79 79 79 80 80 80 79 79 79 73 68 66 66 65 67 78 79 78 78 77 77 77 77 77 77 77
78 78 77 77 77 78 78 78 77 77 77 77 78 78 79 78 78 79 79 79 80 79 79 80 80 72 67 65 65 64 64 69 79 79 78 78 78 77 77 77 77 77
78 78 77 77 78 78 78 77 77 77 78 79 79 78 78 78 78 78 79 78 79 79 79 80 80 73 66 64 63 63 63 65 77 79 79 78 78 78 78 78 78 77
78 78 78 78 78 78 77 77 77 77 78 78 79 78 78 77 78 78 78 79 79 80 80 80 80 70 65 62 61 61 61 63 75 78 79 79 79 79 78 79 78 78
79 78 78 78 78 78 77 77 77 77 77 78 78 79 79 79 79 79 79 79 79 80 80 79 81 69 64 62 60 60 60 67 72 75 77 78 79 79 79 79 79 79
80 79 78 78 78 78 77 77 77 77 78 79 78 78 79 79 79 79 79 79 79 79 79 79 81 72 63 60 59 58 60 70 72 74 75 77 78 79 79 80 79 79
81 80 79 79 78 78 78 78 79 79 79 79 78 78 78 79 80 79 80 80 80 79 80 79 80 74 62 59 58 58 63 71 72 73 74 75 76 78 79 79 80 76
82 81 80 80 79 79 80 79 79 79 80 80 80 79 79 80 80 79 80 80 80 80 77 79 80 76 63 59 57 56 63 73 74 74 74 74 75 76 77 78 79 78
82 81 81 81 80 80 80 80 80 80 80 79 79 80 79 80 80 80 79 79 80 80 81 80 80 80 74 59 57 55 58 72 74 74 74 74 76 75 76 76 78 78

ECMWFNIL_sfc_temp_078.txt.gz
Temp
78 78 77 77 77 77 77 76 76 76 75 76 76 76 76 77 78 78 78 78 78 78 77 77 78 78 78 78 78 78 77 76 76 75 75 74 73 74 74 73 73 73
78 78 78 78 77 77 76 77 76 76 75 75 77 77 77 77 78 78 78 78 78 78 78 78 78 78 78 78 77 77 76 76 76 76 75 74 74 73 75 74 74 73
78 78 78 77 78 77 78 78 77 77 76 77 77 77 77 78 78 78 78 78 78 78 77 77 77 78 78 78 77 77 77 76 76 76 75 75 75 73 74 75 74 73
78 78 78 79 79 78 78 77 77 76 77 76 76 78 78 78 78 78 77 78 77 78 78 78 78 78 78 78 77 77 77 77 77 76 75 75 75 75 75 74 74 74
78 78 78 79 79 78 78 77 77 77 77 77 78 77 77 77 77 77 77 77 78 78 78 78 78 78 78 78 77 77 77 77 77 76 75 75 75 75 75 74 74 74
78 78 78 78 78 78 77 77 78 78 78 78 77 78 78 78 78 78 78 78 78 78 78 78 78 78 78 78 77 77 77 77 77 76 75 75 76 76 76 75 74 74
78 78 78 79 78 78 78 77 78 78 78 79 78 77 78 78 78 78 78 78 79 78 78 78 77 77 78 77 77 77 77 77 76 76 75 76 76 75 76 75 74 74
78 79 79 78 78 78 78 78 78 78 78 78 77 77 78 78 78 79 78 78 79 78 78 78 78 78 78 78 77 76 77 77 77 76 75 76 75 75 75 75 75 74
79 78 78 78 78 78 79 79 79 78 78 78 78 79 78 78 78 78 78 78 78 78 78 78 78 78 78 78 77 77 77 77 77 76 76 76 75 75 76 76 75 75
78 78 79 79 78 79 79 79 80 79 79 78 79 79 78 78 78 78 78 77 77 77 78 78 78 78 78 78 78 78 77 77 77 77 77 77 76 76 76 76 75 75
78 79 78 78 79 79 79 80 80 80 79 79 79 79 79 78 78 78 78 77 77 78 78 78 78 78 78 78 78 78 78 78 78 77 77 77 77 77 77 76 76 75
78 78 78 78 79 79 80 80 80 80 80 80 80 79 79 79 78 78 78 77 78 78 78 78 78 78 78 78 79 79 78 78 78 78 78 78 77 77 78 77 77 76
78 78 78 79 79 79 80 80 80 81 81 80 80 80 80 79 79 78 78 79 78 79 79 79 78 79 78 78 78 79 78 78 79 78 78 78 78 78 78 79 78 78
78 78 78 78 79 78 79 79 80 80 79 80 80 79 80 80 80 79 79 79 79 79 79 79 78 78 78 78 78 79 79 78 78 78 78 78 78 79 79 79 79 78
78 78 78 78 79 78 78 78 79 79 79 79 79 80 81 81 81 81 79 78 79 79 79 79 79 78 79 79 78 78 79 79 78 78 78 78 78 79 79 79 80 80
78 78 77 77 77 77 77 78 79 79 80 79 79 80 80 79 80 80 80 79 78 78 79 79 79 79 75 69 71 79 78 79 79 78 78 78 78 78 79 79 79 80
77 77 77 76 77 77 77 77 78 78 78 78 78 78 79 78 79 79 80 80 79 79 78 78 79 79 70 65 65 67 77 79 78 78 79 78 78 78 78 79 79 80
77 77 76 76 77 77 77 77 78 78 77 77 78 78 78 79 79 79 79 80 80 80 80 79 79 72 66 65 65 64 67 78 79 79 79 79 79 79 79 79 79 80
77 77 77 77 77 77 77 77 77 77 77 77 78 78 78 77 77 78 78 79 79 79 79 80 80 71 65 64 64 63 63 70 80 80 79 79 79 79 79 79 79 79
77 77 77 77 77 77 77 77 77 76 78 79 79 78 77 77 78 78 78 78 78 78 78 80 79 71 65 63 62 62 62 65 77 79 80 80 79 79 80 79 79 79
77 77 77 77 77 77 77 77 77 77 77 78 79 78 77 77 77 77 78 78 79 80 79 79 80 69 64 61 60 60 60 63 75 78 79 79 80 80 79 80 80 80
78 77 77 77 77 77 77 76 76 76 76 77 78 79 79 79 78 79 78 78 79 79 79 79 81 68 63 61 59 59 60 68 73 75 77 78 79 79 80 80 80 80
79 78 77 77 77 77 76 77 76 76 77 78 77 78 78 78 78 79 79 79 79 79 78 78 80 71 62 59 58 58 60 71 73 74 75 76 77 79 79 80 81 80
79 78 78 77 77 77 77 78 78 78 78 78 78 78 78 79 79 79 79 79 79 79 80 79 79 73 61 58 57 57 63 72 73 74 74 75 76 78 79 79 80 76
80 79 79 79 78 78 79 78 78 78 79 79 79 79 79 79 79 79 79 79 81 80 75 78 80 75 61 58 57 56 63 74 74 74 74 75 76 76 78 78 79 77
80 79 79 79 78 79 79 79 79 80 79 79 79 79 79 80 79 79 78 79 80 80 81 80 80 80 72 57 57 55 58 73 75 75 74 75 76 76 77 77 78 78

ECMWFNIL_sfc_temp_081.txt.gz
Temp
82 82 82 83 83 84 83 83 84 84 84 86 86 85 85 86 86 86 86 86 85 85 85 84 84 84 85 85 85 85 85 85 86 86 84 84 84 84 85 84 83 83
82 82 83 83 83 83 84 84 84 84 83 84 85 86 86 86 86 86 85 85 85 85 85 85 84 84 84 85 84 84 84 85 84 87 84 83 84 84 85 85 85 85
83 83 83 83 84 84 86 85 84 84 85 86 86 85 86 86 86 85 85 85 85 86 85 85 85 84 84 85 84 84 85 84 84 87 84 84 85 84 85 87 86 85
82 83 84 85 85 85 85 84 84 84 85 84 85 87 86 87 86 85 85 84 85 85 86 85 85 86 85 85 84 85 85 84 86 85 84 84 84 85 85 85 85 85
83 83 84 85 85 85 84 84 85 85 85 85 86 85 84 84 85 86 85 84 84 85 85 85 85 86 85 84 84 84 85 85 85 84 84 83 84 84 85 85 83 84
83 83 83 84 84 84 84 84 85 86 86 86 85 87 86 85 85 86 86 86 87 87 87 87 85 86 86 85 84 84 85 86 86 84 83 83 85 86 86 85 83 83
83 83 83 85 85 85 84 84 85 85 86 87 86 85 86 86 85 85 85 86 87 86 87 86 85 85 85 85 84 84 84 84 85 84 83 84 84 84 85 84 83 83
84 85 85 85 85 85 84 85 85 85 85 85 86 85 86 87 86 87 86 86 87 85 85 86 85 84 86 85 84 83 84 86 85 84 83 83 83 83 84 84 83 82
84 84 84 84 85 85 86 87 86 86 86 85 86 87 86 86 86 87 85 85 85 85 84 85 84 85 85 85 84 84 84 85 86 84 83 83 83 83 84 84 83 83
84 84 85 86 86 86 86 87 88 87 86 85 86 88 86 85 86 86 85 84 84 84 84 84 84 85 85 85 84 84 84 83 84 84 84 84 84 84 85 84 84 83
84 85 85 85 86 87 88 88 89 89 87 87 87 87 88 86 85 85 84 84 84 84 84 84 85 85 84 86 85 85 85 85 85 84 84 84 84 84 84 84 84 84
84 84 85 86 86 88 88 89 89 88 88 87 88 87 87 88 86 85 85 84 84 85 85 84 84 85 84 85 86 86 85 86 85 85 85 85 85 85 85 85 85 84
84 84 85 87 86 86 88 88 89 89 89 88 88 88 88 88 88 86 85 85 84 85 85 85 85 85 84 84 85 85 85 85 86 86 85 85 86 86 87 87 86 86
84 84 85 85 86 85 86 87 88 88 87 87 87 87 88 88 88 87 87 87 86 86 85 86 85 85 84 84 84 85 85 85 85 85 86 86 86 86 87 88 87 87
83 84 85 84 85 84 84 85 86 86 86 86 86 87 88 89 89 89 87 86 86 85 85 86 86 85 85 85 84 84 85 85 85 85 85 85 86 87 87 87 88 88
83 83 83 83 83 83 83 84 86 86 87 86 86 86 86 86 87 87 88 86 85 85 85 85 85 85 80 72 74 84 85 86 85 85 85 85 85 85 87 87 88 89
82 82 83 82 82 83 83 83 84 85 84 84 84 85 85 84 85 86 87 87 86 86 85 85 85 85 71 66 67 69 82 85 84 84 84 84 85 84 84 86 88 88
83 82 82 82 82 82 82 83 84 83 83 83 83 84 83 85 85 84 85 86 87 87 87 85 86 76 67 65 66 65 69 83 86 85 85 85 86 86 86 86 86 88
82 82 81 82 81 82 82 82 82 82 83 83 84 84 84 83 83 84 84 85 86 84 86 87 87 73 65 64 64 64 63 73 85 86 85 86 86 86 86 85 85 85
82 82 81 81 82 82 82 82 82 82 84 85 85 84 83 83 84 83 83 83 84 84 84 86 86 74 64 63 63 62 63 67 84 85 86 86 86 86 86 86 85 85
82 82 81 82 82 82 81 81 81 82 83 85 86 84 83 82 83 83 83 84 85 86 85 86 86 69 62 61 61 60 61 64 82 85 86 86 86 86 85 86 86 86
83 82 82 82 82 81 81 81 81 81 81 83 84 86 85 85 84 85 84 84 85 86 86 85 87 68 62 61 60 59 60 73 79 82 83 84 85 85 85 85 86 86
84 82 82 82 82 81 81 81 81 81 82 83 83 84 85 84 84 85 84 85 85 85 84 84 87 72 61 59 59 58 63 78 79 81 81 82 83 84 85 86 86 86
83 83 82 82 82 81 82 82 83 83 83 83 83 84 85 86 86 85 85 85 86 85 86 85 86 75 58 58 57 57 66 79 80 80 81 81 82 84 85 85 85 79
84 83 83 83 82 83 84 83 83 83 84 84 85 85 85 85 85 85 85 85 88 87 78 83 87 78 58 59 56 56 66 80 81 81 80 81 82 82 84 85 84 81
84 83 83 84 83 83 84 84 84 85 85 85 85 85 85 86 86 85 84 85 87 87 88 86 85 87 74 56 56 55 59 78 82 81 81 81 82 82 83 83 84 84

ECMWFNIL_sfc_temp_084.txt.gz
Temp
87 87 87 87 88 89 89 89 90 90 89 92 92 91 91 91 91 92 93 92 91 91 91 90 90 89 90 89 89 89 90 90 90 91 89 89 89 89 90 90 89 89
86 87 87 88 88 88 89 90 89 90 89 90 92 92 92 92 92 92 91 91 91 91 90 91 90 89 89 90 89 89 89 89 89 93 89 88 88 89 90 90 90 90
87 87 87 87 89 89 92 91 90 90 91 92 92 92 92 92 92 91 91 91 91 92 91 90 90 89 90 90 89 89 90 88 88 93 90 89 90 89 90 92 91 91
87 87 89 89 90 90 90 90 90 90 92 91 92 93 93 94 92 92 90 90 90 90 92 91 91 91 90 90 89 90 90 89 90 90 90 90 90 90 90 90 91 92
87 87 88 89 90 90 90 89 91 91 91 92 93 92 91 90 91 92 91 90 90 91 91 90 91 91 90 89 89 89 90 90 90 89 89 88 89 89 91 91 89 90
88 88 88 88 89 89 90 90 90 92 91 93 91 93 93 91 91 92 92 92 93 93 93 93 91 91 92 90 89 89 90 92 92 89 88 88 90 91 92 91 89 88
88 88 88 89 90 90 89 90 90 90 92 93 92 92 92 92 91 91 91 92 93 92 93 91 90 90 91 90 88 88 89 89 90 89 88 88 88 89 91 90 88 88
89 90 90 90 90 90 89 90 91 90 91 91 92 91 92 93 91 93 92 92 93 91 91 92 90 89 92 91 89 88 89 91 90 88 87 88 88 87 88 90 88 87
90 90 90 89 90 91 92 93 92 91 91 91 92 93 92 92 92 93 91 90 90 90 90 90 90 90 90 91 90 89 88 91 92 90 88 88 88 88 89 89 88 88
89 89 91 92 92 92 93 94 95 93 92 91 92 94 93 91 92 92 91 89 89 89 89 89 89 90 90 91 90 89 89 88 89 90 90 89 89 89 90 89 89 88
90 91 91 91 93 94 94 95 96 96 94 93 93 94 95 93 91 92 90 89 90 90 89 89 90 90 89 91 91 91 90 90 90 89 89 89 90 89 89 89 89 89
89 90 91 92 93 95 96 96 97 96 95 94 94 94 94 95 92 92 91 89 89 90 90 89 89 90 89 89 92 92 91 91 91 90 91 90 90 91 91 90 90 90
89 90 91 93 92 94 95 96 96 97 97 95 95 95 95 96 95 92 91 91 90 91 91 90 89 90 89 89 90 91 90 90 92 92 91 91 91 92 93 93 92 92
89 90 91 91 92 91 93 95 96 96 95 95 94 94 95 96 96 94 93 93 92 92 91 91 90 90 89 89 89 90 91 90 90 91 92 92 91 92 93 94 94 94
89 90 90 91 92 91 91 92 94 94 94 94 93 94 96 97 96 96 93 92 92 91 91 92 91 90 90 90 89 89 90 91 90 90 91 91 91 93 94 93 95 96
88 88 89 89 90 89 89 91 93 93 95 93 93 93 93 93 94 94 95 93 92 91 91 91 91 91 85 77 80 89 89 91 91 90 90 90 90 90 93 94 95 96
88 88 88 87 88 89 89 90 91 92 92 90 91 91 92 91 92 93 94 94 93 92 91 91 91 91 75 69 70 74 88 90 90 89 89 89 90 89 89 92 95 95
88 87 87 87 87 88 88 88 90 90 89 89 90 90 90 92 92 91 91 94 94 94 93 92 92 81 68 67 69 68 75 89 91 90 91 90 91 91 91 91 92 94
87 87 87 87 87 87 87 87 88 88 89 89 90 90 91 89 89 90 90 91 92 91 93 94 93 75 65 66 67 67 67 78 91 91 91 91 91 91 91 90 91 91
87 87 86 87 87 87 87 87 87 87 90 91 91 90 88 88 90 89 89 88 90 90 90 93 93 75 65 63 65 64 65 71 89 90 91 91 91 91 92 91 91 91
87 87 86 87 87 87 86 86 86 87 88 90 92 91 88 87 88 88 88 89 90 92 91 92 93 69 63 62 62 61 63 68 87 90 91 90 90 91 90 91 91 91
88 87 86 87 86 86 86 86 86 86 86 88 90 92 91 91 90 90 90 89 90 91 91 90 94 65 61 61 60 61 61 77 84 86 88 89 89 89 90 89 90 90
89 88 87 87 87 86 86 86 86 86 87 88 89 91 91 90 90 91 90 91 91 90 89 90 93 72 60 59 60 58 64 82 83 85 85 86 88 89 89 90 91 90
89 88 87 87 87 86 87 87 88 88 88 88 89 90 92 93 92 91 91 91 92 91 92 91 93 77 58 58 58 57 69 83 84 84 84 84 86 88 89 89 90 84
90 88 88 88 87 88 89 88 88 88 89 89 90 91 91 92 91 91 92 91 94 94 84 89 93 81 57 59 56 56 70 84 85 85 84 84 85 86 87 88 88 85
90 88 88 89 88 88 89 88 89 90 90 90 90 91 91 93 92 91 91 92 94 94 94 93 91 92 71 57 56 55 61 82 86 85 84 84 86 85 87 87 87 88

ECMWFNIL_sfc_temp_087.txt.gz
Temp
89 89 89 89 90 91 90 90 91 91 90 93 93 91 92 92 93 93 94 93 92 92 91 91 91 91 91 91 90 90 91 91 91 92 90 90 90 91 91 91 91 90
88 89 89 90 90 90 91 92 91 91 90 91 93 93 92 93 93 93 92 93 92 92 91 92 91 90 90 91 90 90 90 90 90 94 90 90 90 91 92 92 92 92
89 89 90 90 91 91 94 93 92 92 93 94 94 94 94 94 93 92 92 93 92 93 91 91 91 90 91 91 90 90 90 89 89 93 91 90 91 90 91 94 93 92
88 89 90 91 92 92 92 92 92 91 93 93 93 95 95 96 93 93 92 92 92 91 92 92 91 92 91 91 90 90 91 90 91 91 91 91 90 91 91 92 93 93
89 89 90 91 92 91 92 92 93 93 94 94 95 94 93 92 92 93 92 92 91 92 92 91 92 92 91 90 90 90 91 91 91 90 90 90 90 90 92 92 91 91
89 89 89 90 91 91 92 92 93 94 94 96 94 95 95 94 93 93 93 92 93 93 94 94 92 92 93 91 90 90 91 92 92 90 89 89 91 92 94 92 91 90
90 89 90 91 92 92 92 92 92 93 95 96 94 94 94 94 93 92 93 92 93 92 94 92 91 91 91 90 89 89 89 90 91 90 88 89 89 90 93 92 90 90
91 92 91 91 92 92 92 93 93 93 94 94 95 94 94 95 93 94 94 93 94 92 92 93 92 90 93 91 89 89 89 92 91 90 89 88 89 88 90 92 91 89
91 91 91 91 93 93 95 95 95 94 94 93 95 96 94 95 94 95 92 92 92 92 91 92 91 92 92 91 90 89 89 91 93 91 89 89 89 88 90 90 90 89
91 91 93 94 94 94 95 96 97 95 95 94 95 97 95 94 95 94 93 91 92 92 91 91 91 92 92 92 91 90 90 89 90 91 91 90 90 90 91 90 90 89
92 93 93 93 94 96 96 97 98 98 95 95 96 97 97 94 93 94 92 91 92 92 91 91 92 92 91 92 92 92 91 91 91 90 91 91 90 90 91 91 90 90
91 92 93 94 95 97 97 98 99 98 97 96 97 96 97 97 94 94 93 91 91 92 92 91 91 91 90 91 94 93 92 92 91 91 92 91 91 92 92 92 92 91
91 92 93 95 95 96 97 98 98 99 99 97 97 97 97 98 96 94 94 93 92 93 93 92 91 92 90 90 92 92 92 91 93 93 92 92 92 93 94 94 93 93
91 92 94 94 95 93 95 97 98 98 97 97 96 96 97 98 98 96 95 95 93 93 93 93 91 91 91 90 91 92 93 92 91 92 93 93 93 93 94 95 95 95
91 92 93 93 94 93 94 95 96 97 97 96 95 96 98 99 99 98 95 94 94 92 93 94 93 91 92 91 90 90 92 93 92 91 93 92 93 94 94 94 96 97
91 91 91 92 92 92 92 94 96 96 98 97 96 96 95 95 95 97 97 95 94 93 93 94 93 93 87 79 82 90 91 94 92 91 91 92 92 92 95 95 96 98
90 90 91 90 91 92 92 93 94 95 95 94 94 94 94 93 95 96 97 96 95 95 93 93 93 94 78 71 73 77 89 91 92 91 91 91 92 91 91 94 96 97
90 90 89 90 90 90 91 91 94 94 93 93 94 94 92 96 95 95 94 97 97 96 95 94 94 84 70 70 71 71 78 90 93 92 92 92 92 93 92 93 94 96
90 89 89 89 90 90 90 90 91 92 93 93 94 94 94 92 92 94 94 95 96 93 95 95 95 78 67 68 69 69 69 81 94 93 93 93 92 93 93 92 92 93
89 89 89 89 90 90 90 90 90 90 94 96 95 93 91 92 94 92 93 92 93 94 92 95 95 75 66 65 67 66 68 73 92 94 94 94 93 93 94 93 93 93
89 89 88 89 89 90 89 89 90 90 92 94 95 94 91 90 92 92 92 93 94 95 94 95 96 68 64 63 64 64 65 70 90 93 94 93 93 94 92 93 93 93
90 89 88 89 89 89 89 88 89 89 89 92 93 95 93 93 93 94 93 93 93 94 95 93 95 62 64 62 63 63 63 80 86 88 90 91 92 92 92 91 92 93
91 90 89 89 89 89 88 89 88 89 90 92 92 94 93 92 92 94 92 94 93 93 93 91 95 68 61 60 61 61 67 84 85 86 86 87 90 91 91 92 93 92
91 90 89 89 89 89 89 90 91 91 91 91 92 93 95 94 94 93 94 93 94 93 94 93 96 73 58 59 60 58 71 84 85 85 85 85 87 89 91 91 91 88
92 90 90 90 89 90 91 90 90 90 92 92 93 94 94 95 94 93 94 93 96 96 86 92 96 80 57 59 58 57 71 85 86 86 84 85 86 87 89 90 90 88
92 90 90 91 90 90 91 90 91 92 92 92 93 94 94 96 95 93 93 94 96 97 96 95 94 91 68 58 57 56 63 84 87 85 85 85 86 86 87 87 88 90

ECMWFNIL_sfc_temp_090.txt.gz
Temp
85 85 86 86 86 86 86 86 87 87 86 88 87 87 87 87 89 88 89 88 89 88 88 88 88 88 89 88 87 87 86 86 87 86 86 86 85 87 88 87 86 85
86 86 85 86 85 85 86 87 87 86 86 86 87 87 88 88 89 89 88 88 88 89 88 89 87 87 87 87 87 87 86 87 86 90 86 86 86 86 88 87 88 87
86 86 87 87 88 88 91 89 88 88 89 89 89 88 89 90 89 88 88 89 88 90 88 87 87 87 87 87 86 86 87 86 86 89 86 86 86 86 87 90 88 88
86 87 88 89 89 89 89 88 88 88 89 88 89 92 91 93 89 89 88 89 88 88 89 88 88 89 88 88 87 86 87 86 87 87 87 86 86 87 87 87 89 88
87 87 88 88 89 88 88 88 90 90 90 89 91 89 88 88 88 89 88 88 87 89 88 88 88 88 87 87 87 85 87 87 87 86 86 86 86 87 89 87 87 88
87 87 87 88 88 88 89 89 89 90 90 92 90 92 91 90 89 90 89 89 90 90 90 90 89 89 89 87 86 86 87 88 88 86 86 85 87 88 90 88 86 86
87 87 88 89 90 89 89 89 89 89 91 92 90 90 91 91 90 89 89 89 90 89 90 88 87 87 88 86 85 85 86 86 87 85 85 85 85 86 89 88 86 86
88 89 89 89 90 90 89 90 90 89 90 90 91 90 91 92 90 91 90 90 90 89 88 89 87 86 90 88 86 85 86 89 88 86 84 85 85 85 86 88 87 85
88 88 89 89 90 90 91 91 91 91 91 90 92 93 91 91 91 91 88 88 89 88 87 88 87 88 88 87 86 85 85 87 88 87 86 85 85 85 86 86 86 86
87 88 90 90 90 91 91 92 93 92 92 91 93 94 92 91 91 90 89 87 88 87 87 87 87 88 88 88 87 87 86 85 86 86 87 86 86 86 87 86 86 85
89 90 89 89 90 92 92 93 94 94 93 93 93 94 94 92 90 90 88 88 89 88 87 87 88 88 87 89 88 88 87 87 87 87 87 86 87 86 87 86 86 86
88 89 89 90 91 92 93 94 94 94 94 94 94 93 93 94 91 91 90 88 88 88 88 87 87 87 87 87 90 89 88 88 88 87 88 87 88 88 88 88 87 86
88 88 89 91 91 92 93 94 95 95 95 94 94 94 94 94 93 91 90 90 89 90 90 89 88 89 86 87 88 88 87 87 89 88 88 88 88 89 90 89 89 89
88 89 90 90 91 90 91 93 95 95 93 93 93 93 95 95 94 92 92 92 90 90 90 90 88 88 87 87 87 88 89 88 88 88 89 88 89 89 90 91 90 90
88 89 90 89 90 89 90 91 93 93 92 92 92 93 96 96 95 94 92 91 91 89 90 90 90 88 89 88 87 87 88 88 87 88 88 88 88 90 90 90 92 92
87 88 88 88 89 88 89 91 93 93 95 93 92 93 92 92 92 92 93 92 90 89 89 90 89 90 85 79 81 87 87 90 88 87 88 87 87 87 90 91 92 93
87 87 88 87 87 89 89 90 91 92 92 90 90 91 90 89 91 92 93 92 92 91 90 90 90 90 78 72 73 78 87 87 87 86 87 87 88 86 87 89 91 91
88 87 87 87 87 87 88 88 91 90 89 89 90 91 88 92 92 91 91 92 93 92 91 90 90 82 71 70 71 72 78 87 89 88 88 88 89 89 88 89 90 91
87 87 87 87 87 87 88 88 88 89 90 90 91 91 91 89 88 90 90 91 91 89 91 91 91 78 68 69 69 70 71 82 89 89 89 89 89 89 89 87 87 87
87 87 87 87 87 87 87 87 88 88 91 93 93 90 88 89 91 89 90 88 90 89 88 91 90 76 66 67 68 67 69 74 89 90 90 90 88 89 90 89 88 88
88 87 87 87 87 87 87 87 87 88 90 92 94 92 89 88 90 89 89 90 91 93 90 92 93 71 64 64 65 65 66 71 87 91 91 89 89 89 88 88 87 89
89 87 87 87 87 87 87 87 87 86 87 89 91 94 92 91 90 91 90 91 91 93 93 90 93 65 64 63 64 64 65 77 84 86 87 88 88 88 88 87 88 88
89 88 87 87 87 87 87 87 86 86 88 89 90 92 92 91 90 92 90 92 92 90 90 89 90 67 63 61 62 63 67 80 83 84 84 84 85 87 87 89 90 88
89 88 87 87 87 87 87 88 89 89 90 90 90 91 93 93 92 91 91 92 92 91 92 90 92 70 59 59 61 60 70 81 82 82 83 83 83 85 86 87 88 88
90 88 88 88 87 88 90 88 88 88 90 90 92 93 92 91 91 90 91 91 94 93 86 89 93 74 56 60 59 59 70 83 82 83 82 82 82 83 84 85 85 86
90 88 88 89 88 88 88 88 89 91 91 91 91 92 92 93 92 90 90 91 93 93 93 92 92 83 64 58 58 57 63 82 83 82 81 81 82 82 82 83 84 86

ECMWFNIL_sfc_temp_093.txt.gz
Temp
81 81 81 80 80 81 81 80 79 79 78 80 80 81 81 81 84 83 84 83 83 82 82 81 82 82 83 82 81 81 81 80 81 80 80 79 78 78 81 79 78 78
81 81 82 81 79 79 81 82 81 81 79 79 81 80 81 82 83 83 83 83 83 83 82 82 81 82 82 81 81 81 80 81 80 83 81 79 79 79 80 80 81 79
82 81 81 81 81 80 82 83 82 82 81 81 81 82 82 83 82 82 83 83 83 84 82 81 82 81 81 81 80 81 81 80 80 83 80 80 80 80 79 81 81 79
81 82 82 83 83 82 82 82 82 82 83 81 81 84 85 86 83 82 82 84 82 83 82 82 82 82 82 81 81 80 80 79 80 80 80 80 81 80 81 79 80 80
82 82 83 83 83 83 83 82 83 83 83 83 84 83 83 83 83 82 82 82 82 83 82 82 82 82 82 80 81 80 80 80 80 79 79 79 80 81 82 80 78 80
82 82 82 83 83 83 83 83 83 83 84 84 84 84 84 84 84 84 83 83 83 84 84 83 82 83 82 81 80 81 81 80 81 80 79 79 80 81 84 81 80 78
82 82 82 83 83 83 83 83 83 84 84 85 85 84 84 84 84 85 84 84 84 83 84 83 82 82 82 81 80 80 80 80 80 80 79 78 79 79 83 81 80 80
83 83 83 83 84 84 83 84 84 84 85 84 84 85 85 85 85 86 85 85 85 83 83 83 82 82 82 82 80 79 81 82 80 80 79 79 78 78 79 81 80 79
83 83 83 83 84 84 84 85 85 85 85 85 85 86 86 85 85 86 84 84 84 83 82 82 82 83 82 82 81 80 80 82 81 80 80 79 79 79 79 79 78 78
83 84 84 84 84 85 85 86 86 86 85 85 85 86 86 85 85 85 84 83 84 83 82 82 82 83 83 82 82 81 81 80 80 80 80 80 80 80 80 80 79 78
83 84 84 84 85 86 86 87 87 87 86 86 86 87 87 86 84 85 83 83 84 83 83 82 82 83 82 83 82 83 82 82 81 80 80 80 81 80 82 80 80 79
83 84 84 85 85 86 87 88 88 87 87 87 87 87 87 87 85 85 84 83 84 84 83 83 82 83 82 83 83 83 82 83 82 81 81 81 81 81 82 81 81 80
84 84 84 85 85 86 87 88 88 88 88 88 88 88 88 88 87 86 85 84 84 84 84 84 83 83 82 82 83 83 82 82 83 82 81 81 82 83 83 83 82 82
84 84 85 85 86 86 86 88 88 88 88 88 88 88 88 88 88 86 86 85 85 85 85 84 83 82 82 82 83 83 83 82 82 82 83 82 82 82 84 84 83 83
84 85 85 85 85 85 85 86 87 87 87 87 87 88 90 89 89 88 86 85 85 84 84 85 84 83 83 82 82 82 83 82 82 82 82 82 82 83 83 84 85 86
84 84 84 84 85 84 85 86 87 87 88 87 87 88 88 88 88 88 87 86 85 84 84 84 84 84 81 76 78 83 82 84 83 82 82 82 81 82 83 83 85 86
83 83 84 83 84 85 85 85 86 87 87 86 86 87 87 86 86 87 87 87 86 85 84 84 84 85 76 70 72 75 82 82 82 81 82 81 81 81 81 83 84 85
83 83 83 83 83 83 84 85 86 86 85 85 86 86 85 87 86 86 86 87 87 86 85 85 85 80 71 69 70 70 76 83 83 82 82 82 82 82 82 82 83 84
83 83 83 83 83 84 84 84 84 85 85 85 86 87 87 85 85 85 86 86 86 85 85 86 85 77 69 68 69 69 70 79 84 83 82 82 83 83 82 81 81 81
84 83 83 83 83 84 84 84 84 84 87 87 87 86 85 85 86 85 84 85 86 85 84 86 85 77 67 66 67 67 68 73 84 84 83 83 83 83 84 82 81 81
84 83 83 83 83 84 83 84 84 84 86 87 87 86 85 85 86 85 84 84 86 86 85 85 86 73 65 64 64 64 66 70 83 85 84 83 82 83 83 83 82 82
85 84 83 83 83 83 83 83 83 84 84 86 87 87 87 87 86 87 85 85 86 87 86 85 87 69 64 63 63 63 65 74 80 82 83 83 82 81 82 83 83 83
85 84 84 83 84 83 83 83 83 83 84 86 86 87 86 86 86 87 87 86 86 85 85 85 86 71 63 62 62 62 65 77 79 81 81 81 81 81 81 82 84 84
86 85 84 84 84 83 83 84 85 85 86 86 86 87 87 87 87 87 87 88 87 86 86 85 87 73 61 61 61 60 68 78 79 80 80 81 81 80 80 80 81 85
86 85 85 85 84 84 85 85 85 85 86 86 87 88 88 87 87 87 87 87 88 88 83 84 87 75 59 61 60 59 67 79 80 80 79 80 80 80 81 80 79 82
87 85 85 85 85 85 85 85 85 86 86 87 87 88 88 87 87 86 86 87 87 88 88 87 86 79 66 59 59 58 62 79 80 79 79 79 80 79 80 79 80 80

ECMWFNIL_sfc_temp_096.txt.gz
Temp
79 78 78 79 79 78 77 75 75 78 78 79 79 79 79 80 81 81 81 80 80 80 79 78 78 78 79 79 78 78 78 77 77 76 75 75 74 74 77 74 73 74
79 79 79 78 78 78 77 77 75 77 78 79 79 79 79 79 80 81 80 80 80 80 79 79 78 78 78 78 78 77 76 77 77 79 76 75 75 75 76 75 75 75
79 79 79 78 79 79 80 78 76 77 78 79 80 79 79 80 80 80 80 81 80 80 79 79 78 78 78 78 78 78 78 76 77 78 77 76 76 76 76 77 76 76
79 79 80 80 80 80 80 78 76 76 78 78 79 80 81 81 80 79 79 82 80 80 79 79 79 80 79 78 78 78 78 77 78 78 77 77 77 77 77 76 77 77
79 79 80 80 81 80 80 79 79 78 78 79 80 79 79 79 79 79 78 80 80 80 79 79 79 79 79 78 78 78 78 78 77 77 77 77 77 77 78 77 76 77
80 80 79 80 80 79 80 80 80 80 79 79 79 80 80 80 80 80 79 79 80 81 81 80 79 79 80 79 78 78 78 77 78 77 77 77 78 78 80 78 76 76
80 79 79 80 80 80 80 80 80 81 81 81 80 80 81 81 80 80 80 80 81 80 81 80 79 79 79 78 78 77 78 78 77 76 76 76 77 77 79 78 77 76
80 81 80 80 80 80 80 80 80 80 81 81 80 80 80 82 81 82 81 80 81 80 80 81 80 79 80 79 78 77 78 79 78 77 76 76 76 77 77 78 78 76
81 81 80 80 80 81 81 81 81 81 81 81 81 82 81 82 82 82 81 80 81 80 80 80 80 80 80 79 79 78 78 79 79 78 77 76 76 76 77 78 77 76
80 81 81 81 80 81 81 82 82 82 81 81 82 82 81 81 82 82 81 80 80 80 80 80 80 80 80 80 79 79 79 78 79 78 78 78 77 77 77 77 77 76
81 81 81 81 81 82 82 83 83 83 82 82 82 82 83 82 81 82 81 80 81 80 80 80 80 80 80 80 80 80 80 79 79 78 78 78 78 78 79 77 77 77
81 81 81 81 82 82 83 83 84 83 83 83 83 83 83 83 82 81 82 81 81 81 81 81 80 80 80 80 81 80 80 80 80 79 78 79 79 79 79 79 79 78
81 81 81 82 82 82 83 84 84 84 84 84 84 84 83 83 83 82 82 82 82 82 82 81 80 81 80 80 80 80 80 79 80 80 79 78 79 79 80 79 79 79
81 82 82 82 83 82 83 83 84 84 84 84 84 84 84 84 84 83 82 82 82 82 82 82 81 80 80 80 80 81 80 79 79 80 80 79 79 79 80 80 80 80
81 82 82 82 82 82 82 82 83 83 84 84 84 84 85 85 85 85 83 82 82 82 82 82 81 81 81 81 80 80 80 80 80 80 80 79 79 79 80 80 81 81
81 82 82 81 82 81 81 82 83 84 84 84 84 84 84 84 84 85 84 83 82 81 82 82 81 82 79 74 75 81 80 81 80 80 79 79 79 78 79 80 81 82
81 81 81 80 81 82 82 82 82 83 83 83 83 83 83 83 84 84 84 84 83 82 81 81 82 82 74 69 70 73 80 80 80 79 79 79 79 78 78 79 80 81
81 81 81 80 81 81 81 82 83 83 82 82 83 83 82 84 83 83 83 84 84 83 82 82 82 77 70 68 69 69 74 81 81 80 80 79 79 79 79 79 79 80
81 81 81 81 80 81 81 81 81 82 82 82 83 83 83 82 82 83 83 84 84 82 82 83 82 75 68 66 67 68 68 76 82 81 80 79 79 79 79 79 79 79
81 81 81 81 81 81 81 81 81 81 83 84 84 83 82 82 83 83 83 82 83 83 82 83 82 76 68 65 65 65 67 71 82 81 80 80 80 80 80 79 79 79
81 81 81 81 81 81 81 81 81 81 82 84 84 83 82 82 83 83 83 83 84 84 83 83 83 73 66 64 63 63 64 68 80 82 82 80 80 80 80 80 79 80
82 81 81 81 81 81 80 80 81 81 81 83 84 84 84 84 83 84 83 83 84 84 84 82 85 71 66 64 63 62 64 71 77 80 81 80 80 79 80 80 80 80
83 82 81 81 81 81 80 81 80 81 82 83 83 84 84 83 83 84 84 84 84 83 83 83 84 74 64 62 61 61 64 74 76 78 79 80 80 80 79 80 81 81
84 83 82 81 81 81 81 82 82 83 83 83 83 83 84 84 85 84 85 85 84 83 84 84 84 76 62 61 60 60 66 75 77 77 78 79 80 80 80 80 81 83
85 84 83 83 82 82 83 82 82 82 83 84 84 85 85 85 84 84 85 85 85 85 82 83 84 78 61 61 59 59 65 77 77 77 77 78 79 79 80 80 79 81
85 84 83 83 83 83 83 83 83 84 84 84 84 85 85 85 85 84 84 84 85 85 85 84 84 84 72 59 59 58 60 76 78 77 77 78 79 79 79 78 79 79

ECMWFNIL_sfc_temp_099.txt.gz
Temp
76 75 76 75 74 74 73 73 74 75 75 76 76 76 76 77 78 77 78 78 78 77 77 76 77 76 77 76 76 76 76 75 75 74 73 73 72 71 73 71 71 70
76 76 77 76 74 75 73 74 74 75 76 76 76 77 76 77 77 78 77 77 78 77 77 77 76 76 76 76 76 75 75 75 75 76 74 73 73 72 73 72 72 71
77 76 76 76 76 75 76 74 74 76 77 77 77 77 77 77 77 77 77 78 77 78 77 76 76 76 76 76 76 76 76 74 74 75 75 74 73 73 73 73 72 72
77 77 77 77 78 77 76 74 73 74 76 76 76 78 78 79 77 77 77 79 77 77 77 76 76 76 75 75 75 75 76 75 75 75 75 74 74 74 74 72 73 73
77 77 77 77 78 77 76 74 74 74 75 76 77 77 77 76 76 76 76 77 77 77 77 77 76 76 76 75 75 75 76 75 75 75 74 74 74 74 74 73 73 74
78 78 77 77 77 77 77 76 75 75 75 75 76 77 77 77 77 77 77 77 77 78 78 77 77 76 76 76 75 75 75 75 75 75 74 74 75 75 77 74 73 73
78 77 77 77 77 77 77 77 76 75 75 77 75 76 77 77 77 77 77 77 78 78 78 78 77 76 76 76 75 75 75 75 75 75 75 74 75 74 75 74 74 73
79 79 78 78 77 77 77 77 76 76 75 75 76 77 77 78 77 78 77 77 78 77 77 78 77 77 77 76 75 75 74 76 75 74 74 74 74 74 75 76 75 73
79 79 78 78 78 78 78 78 78 77 76 76 76 77 77 78 78 78 77 77 77 77 77 77 77 77 77 76 76 76 75 76 76 75 74 74 74 74 75 75 74 74
79 79 79 78 78 79 78 79 80 79 78 77 77 77 77 77 78 78 77 76 76 76 76 77 77 77 77 77 77 77 76 76 75 75 75 75 75 75 75 75 75 74
79 79 79 78 79 79 79 80 80 80 79 79 78 78 78 77 77 77 77 76 77 77 77 76 77 78 77 78 78 78 77 77 76 75 75 75 75 75 77 75 75 75
79 79 79 79 79 80 80 80 80 80 80 80 79 79 79 79 78 78 78 77 77 77 77 77 77 78 77 78 78 78 77 77 77 76 76 75 75 75 76 76 76 76
79 79 79 80 80 80 81 81 81 81 81 80 80 80 80 80 79 78 78 78 78 78 78 78 78 78 77 78 78 78 78 77 77 77 76 76 76 76 76 76 76 76
79 80 80 80 80 80 80 80 81 81 80 81 80 80 80 80 80 79 79 79 79 78 79 79 78 78 77 77 78 78 78 77 77 77 77 76 76 76 77 77 77 77
79 80 80 80 80 79 79 80 80 80 80 80 80 80 81 81 82 81 80 78 79 78 79 79 79 78 78 78 77 77 78 78 77 77 77 77 77 77 77 77 77 78
79 79 79 79 79 79 79 79 80 80 81 80 80 81 81 81 81 81 81 80 79 78 78 79 79 79 77 73 74 78 78 79 78 77 77 77 77 76 77 77 78 78
79 79 79 78 79 79 79 79 79 80 80 79 79 80 80 80 80 80 81 81 80 79 78 79 79 80 73 68 68 71 78 78 78 77 77 77 77 76 76 77 78 78
79 79 78 78 78 78 79 79 80 79 79 79 79 79 79 80 80 80 80 81 81 80 80 79 79 75 69 67 67 67 71 79 78 78 78 77 77 77 77 77 77 78
79 79 79 79 78 79 79 79 78 79 79 79 79 80 80 79 79 80 80 80 81 79 80 80 80 73 67 66 66 66 66 73 80 79 78 78 77 77 77 77 77 77
80 79 79 79 79 79 79 79 78 78 79 81 81 80 79 79 80 79 80 79 80 80 79 81 80 74 67 65 64 64 65 68 79 79 78 78 78 78 78 77 77 77
80 79 79 79 79 79 79 78 78 78 79 80 81 80 79 79 79 79 80 80 81 81 80 81 81 71 65 63 62 62 63 66 77 79 79 79 78 78 78 78 78 78
80 79 79 79 79 79 78 78 78 78 78 79 80 81 81 81 80 81 80 80 81 81 81 80 82 69 64 63 62 61 62 69 74 77 78 79 78 78 78 78 78 78
81 80 80 79 79 79 78 79 78 78 79 80 79 80 81 81 81 81 81 81 81 81 80 80 82 73 63 61 60 60 62 71 73 75 76 77 78 78 78 78 79 79
81 81 80 80 80 79 79 79 80 80 80 80 80 80 80 81 82 81 82 82 81 81 81 81 81 75 63 60 59 59 65 72 73 74 75 76 77 78 79 78 79 81
81 81 81 81 80 80 81 80 80 80 81 81 81 81 81 82 82 81 82 82 82 82 81 81 82 78 63 60 58 58 64 74 74 74 75 75 76 77 78 78 78 80
80 81 81 81 81 81 81 81 81 81 81 81 81 82 81 81 82 81 81 81 82 82 83 82 82 82 75 59 58 57 60 73 75 75 74 75 76 76 77 77 78 78

ECMWFNIL_sfc_temp_102.txt.gz
Temp
76 75 75 74 74 74 74 74 75 76 75 76 76 76 76 77 78 78 78 78 78 78 78 78 78 78 78 78 78 78 78 77 78 77 76 75 75 75 75 74 74 75
76 76 76 75 74 75 74 75 75 75 75 75 76 77 77 77 78 78 78 78 79 79 78 78 78 78 78 78 78 77 77 77 77 78 76 76 76 75 77 76 76 74
76 76 76 75 75 75 76 75 75 75 76 77 77 77 77 78 78 78 78 79 78 79 78 78 78 78 78 78 77 78 78 77 77 78 77 77 76 76 76 77 76 76
76 76 77 77 77 76 75 74 74 74 76 76 76 78 78 79 78 78 78 79 78 78 79 78 78 78 78 78 77 77 78 77 78 77 77 77 77 77 77 76 77 77
76 76 77 77 77 76 74 74 75 75 75 76 77 77 77 77 77 78 78 78 78 78 78 78 78 78 78 77 77 77 77 78 77 77 77 77 77 77 78 77 77 77
77 76 76 77 76 75 75 75 75 75 76 76 77 78 78 78 78 78 78 78 79 79 79 79 79 78 78 77 77 77 78 78 78 77 77 77 78 78 79 78 77 77
77 76 76 77 77 77 76 75 75 75 76 77 77 77 78 78 77 78 78 78 79 78 79 79 78 78 78 77 77 76 76 77 77 76 76 77 77 77 77 78 77 77
78 78 77 77 77 77 77 76 75 75 76 76 77 77 77 78 78 78 78 78 79 78 78 79 78 78 78 78 77 76 76 78 77 76 76 77 76 77 77 77 77 77
78 78 77 77 77 77 78 78 77 76 76 76 77 78 77 78 78 78 77 77 78 78 78 78 78 78 78 78 77 77 77 77 78 77 77 77 76 77 77 77 77 77
77 78 78 78 78 78 78 79 79 78 77 77 77 78 77 77 78 78 77 77 77 77 77 78 78 78 78 78 78 78 77 77 77 77 77 77 77 78 78 77 77 77
78 79 78 78 78 79 79 80 80 79 78 78 77 77 78 77 77 78 77 77 77 77 77 77 78 78 78 78 78 79 78 78 78 77 77 77 78 77 78 78 77 78
78 78 78 78 79 79 80 80 80 80 79 79 78 78 78 78 78 77 78 77 77 78 78 78 78 78 78 78 79 79 79 79 79 78 78 78 78 78 78 78 78 78
78 78 79 79 79 79 80 80 80 81 81 80 79 79 79 79 78 77 78 78 78 78 78 78 78 78 78 78 78 79 78 78 79 79 78 78 79 79 79 79 79 79
79 79 79 79 79 78 79 80 81 80 80 80 80 79 80 80 79 78 79 79 78 78 78 79 78 78 78 78 78 79 79 79 79 79 79 79 79 79 79 80 79 79
78 79 79 79 79 78 78 79 79 79 79 79 79 80 81 81 81 81 79 78 78 78 78 79 78 78 78 78 78 78 79 79 79 79 79 78 79 79 79 79 80 80
78 78 78 78 78 78 78 78 79 80 80 80 79 80 80 79 79 80 80 79 78 78 78 78 78 79 77 72 73 79 78 79 79 79 79 79 78 78 79 79 80 81
78 78 78 77 77 78 78 78 78 79 79 78 78 79 78 78 79 79 80 80 80 79 78 78 79 79 72 67 68 70 78 79 78 78 79 78 79 78 78 79 79 80
78 78 77 77 77 77 78 78 79 78 78 78 78 78 77 79 79 79 79 80 81 80 80 79 79 75 68 66 67 66 70 79 80 79 79 79 79 79 79 79 79 80
78 78 77 78 77 78 78 78 77 77 78 78 79 79 79 77 77 79 79 79 80 79 80 80 80 72 66 66 66 65 66 73 81 80 79 79 79 79 79 79 79 79
78 78 78 78 78 78 78 78 77 77 79 80 80 79 78 78 79 78 78 78 79 79 78 80 79 73 66 64 64 64 64 68 80 80 80 80 80 80 80 80 79 79
78 78 78 78 78 78 77 77 77 78 78 79 81 80 78 77 78 78 78 79 80 80 80 80 81 71 65 63 62 62 63 65 78 81 81 80 80 80 80 80 79 80
79 78 78 78 78 78 78 77 77 77 77 78 79 81 81 80 79 80 79 79 80 81 81 80 82 69 64 62 61 61 62 70 75 78 79 80 80 80 80 79 80 80
80 79 79 79 79 78 78 78 77 77 78 79 79 80 80 80 80 80 80 80 80 80 79 79 81 72 63 61 60 60 62 72 74 76 77 78 79 80 80 80 80 80
80 80 79 79 79 78 78 79 80 80 80 79 79 79 80 81 81 81 81 81 81 80 81 80 81 75 62 60 59 59 65 73 74 75 76 77 78 79 80 80 80 80
78 80 80 80 79 80 80 80 79 80 80 80 81 81 80 81 81 81 81 81 83 82 80 80 82 77 63 60 59 58 64 75 75 75 75 76 77 77 79 79 79 80
76 77 79 80 80 80 80 80 81 81 81 81 81 81 81 81 81 81 80 81 82 82 83 82 82 82 75 60 58 56 59 74 76 75 75 75 76 76 77 77 78 79

ECMWFNIL_sfc_temp_105.txt.gz
Temp
83 83 83 83 84 84 84 84 85 85 84 86 86 85 85 85 86 86 86 86 86 86 85 85 85 85 85 85 85 85 85 85 86 86 85 85 85 86 87 86 86 86
83 83 83 84 83 83 83 85 84 84 84 84 85 86 85 85 85 86 85 85 85 86 85 86 85 85 85 86 85 85 85 85 85 88 85 84 85 86 87 87 87 87
83 83 83 83 85 84 86 85 85 85 86 87 86 85 86 86 86 85 85 86 86 87 85 85 85 85 85 86 85 85 86 85 85 88 85 85 86 85 86 89 88 87
83 83 85 85 86 85 85 84 84 84 86 85 86 87 87 88 86 85 85 85 85 86 87 87 86 87 86 86 85 86 86 85 87 86 85 86 86 87 87 87 87 88
83 83 84 85 86 85 85 84 86 86 86 86 87 86 85 85 85 86 85 85 85 86 86 86 86 87 86 85 85 85 86 86 86 85 85 85 85 86 87 87 85 86
83 83 83 84 84 84 85 85 85 86 86 87 86 88 87 86 86 87 86 87 88 88 88 88 87 87 87 86 85 85 86 88 88 85 84 84 86 87 89 86 85 85
84 83 83 85 85 85 85 85 85 85 87 88 87 86 87 87 86 86 86 87 88 87 88 87 86 86 86 86 84 84 85 85 86 85 84 85 85 85 87 86 85 84
85 85 85 85 85 85 84 85 85 85 86 86 86 86 86 88 86 88 87 87 88 87 86 87 86 85 87 86 85 84 85 87 86 84 84 84 85 84 85 86 85 84
85 85 84 84 85 86 87 87 87 86 86 85 87 88 87 87 87 88 86 86 86 86 85 86 85 86 87 86 85 85 85 87 87 86 85 85 84 84 86 86 85 85
84 85 86 86 86 87 87 88 89 88 86 86 87 89 87 86 87 87 86 84 85 85 85 85 85 86 86 87 85 86 85 85 85 85 86 86 86 86 87 86 86 85
85 86 86 85 86 88 88 89 89 89 88 87 88 88 89 87 86 86 85 84 86 86 85 85 86 86 86 87 87 87 86 87 86 85 86 86 86 86 86 86 86 86
84 85 85 86 86 88 88 89 89 89 89 88 88 88 88 89 87 87 86 85 85 86 86 86 86 86 85 86 88 88 87 87 87 86 87 86 87 87 87 87 87 86
84 84 85 87 86 87 88 89 89 90 90 89 89 88 88 89 89 87 86 86 85 86 87 86 86 87 85 85 86 87 86 86 88 87 87 87 87 88 89 89 88 88
84 85 86 85 86 85 86 88 89 89 88 88 88 87 88 89 90 89 88 88 87 87 87 87 86 86 85 85 86 87 87 86 87 87 88 88 88 88 89 90 89 89
84 85 85 85 85 84 84 85 87 87 87 87 86 87 90 90 90 91 88 87 87 86 87 87 87 86 86 86 85 85 86 87 86 86 87 87 87 89 89 89 90 91
83 83 84 84 84 83 83 84 86 86 87 87 86 87 87 86 87 88 89 88 86 86 86 87 86 87 82 75 77 85 86 88 87 86 86 87 86 86 89 89 90 91
83 83 83 82 83 83 84 84 84 85 85 84 85 85 85 84 85 86 88 89 88 87 86 87 87 87 75 69 69 71 84 86 86 85 85 86 87 85 85 88 90 90
83 83 82 82 82 82 83 83 84 84 83 83 84 85 83 86 86 85 85 87 89 88 88 87 87 79 69 67 67 67 72 85 87 87 87 86 87 87 87 88 88 89
83 83 82 82 82 82 83 83 82 83 83 84 85 85 86 83 83 85 85 86 87 86 87 89 88 76 68 66 66 65 65 75 88 87 87 88 87 87 87 86 87 87
83 83 82 82 83 83 83 82 82 82 85 86 86 85 83 83 85 84 84 84 85 85 85 87 87 77 67 65 64 64 64 69 85 87 88 88 87 88 88 87 87 87
83 83 82 83 83 83 82 82 82 82 84 85 87 86 84 82 84 84 84 84 86 87 86 87 88 73 65 64 63 62 62 66 83 87 88 87 87 88 86 87 87 88
84 83 83 83 83 83 82 82 82 82 82 84 85 88 87 86 85 86 85 85 86 87 87 86 89 70 65 63 62 61 62 74 79 83 85 86 86 86 87 86 87 87
86 85 83 83 83 83 82 83 82 82 83 84 84 86 87 86 85 86 85 86 86 86 85 85 88 75 63 61 60 60 64 78 79 81 82 84 85 86 86 87 87 87
80 84 84 84 83 83 83 84 85 85 85 85 84 85 86 88 87 87 87 87 87 86 88 86 87 78 62 60 59 59 67 79 81 81 81 82 83 85 86 86 86 81
78 80 84 86 84 85 85 85 84 84 85 86 86 86 86 86 86 87 87 87 89 89 81 84 88 82 63 59 58 58 66 79 81 82 81 81 82 83 84 86 85 82
74 77 80 84 85 85 85 85 86 86 86 86 86 87 86 87 87 86 86 87 89 89 90 88 87 88 79 58 58 56 59 78 82 81 81 81 82 82 83 83 84 85

ECMWFNIL_sfc_temp_108.txt.gz
Temp
89 89 89 89 89 90 90 90 91 91 90 92 91 90 91 91 91 91 92 92 91 90 90 88 88 88 89 89 88 89 89 88 90 91 89 89 90 91 92 91 91 91
88 89 89 90 89 89 90 91 91 91 90 90 91 92 91 91 91 91 91 91 90 91 90 90 89 89 89 90 88 88 88 89 88 93 89 88 89 90 92 91 92 92
89 89 90 90 92 91 93 92 91 92 93 93 93 92 92 92 91 91 91 91 91 93 90 90 89 89 89 89 88 89 89 88 88 92 89 88 90 89 90 94 93 92
88 89 91 92 92 92 92 92 91 91 93 93 93 94 93 95 92 91 90 90 90 90 92 91 91 92 90 90 88 90 90 88 90 90 89 89 89 91 91 91 92 93
89 89 91 92 92 92 92 91 92 93 92 93 94 93 92 91 91 92 91 90 90 91 91 90 91 91 90 90 89 89 90 91 90 89 88 88 89 90 92 92 90 91
89 89 89 91 91 91 92 92 91 93 93 94 93 95 94 92 92 92 92 92 93 93 93 93 92 92 93 91 89 89 91 92 92 89 88 88 90 92 94 92 90 89
90 90 90 92 92 92 91 92 92 92 94 95 94 93 94 94 92 92 92 93 93 92 94 92 91 91 92 91 89 88 89 90 90 89 88 89 88 89 92 91 89 89
91 92 91 92 92 92 91 93 93 92 92 93 94 93 93 95 93 94 93 93 94 92 92 93 91 90 93 92 90 89 89 93 91 89 88 88 88 88 89 90 90 88
92 92 92 91 93 94 95 95 95 94 93 92 94 96 94 94 94 95 92 92 92 92 91 91 90 91 92 92 91 90 89 91 93 91 89 89 89 88 89 90 89 89
90 92 93 94 94 95 95 96 97 96 94 93 94 96 95 93 94 94 93 90 91 91 91 90 91 91 92 92 91 91 90 89 90 90 91 90 90 90 91 90 90 89
92 93 93 93 94 96 96 97 98 98 96 95 95 96 97 95 92 93 92 91 92 92 91 90 91 92 91 93 93 93 92 92 91 90 91 90 91 90 90 91 90 90
91 92 93 94 95 96 97 98 98 98 98 97 96 95 95 97 95 93 93 91 91 92 92 91 91 91 91 91 94 94 93 93 93 92 92 91 92 92 92 92 92 91
92 91 92 95 94 95 97 97 98 99 99 98 97 96 96 97 97 94 93 93 91 93 94 92 91 92 91 90 92 93 93 92 94 94 93 93 93 93 95 94 94 93
92 92 93 92 94 92 93 96 97 97 96 97 96 95 96 97 98 97 95 95 94 94 93 93 92 92 91 90 91 92 93 93 92 93 94 94 94 94 95 96 95 95
90 92 92 92 92 91 91 93 95 95 95 95 94 96 98 98 98 99 96 94 94 93 93 94 95 93 93 92 91 90 92 93 92 92 93 93 94 95 96 95 96 97
89 89 90 90 90 90 89 91 93 94 96 95 94 95 94 94 95 96 97 96 94 93 93 94 94 95 88 80 82 91 91 94 93 92 92 92 92 92 95 96 97 98
88 88 88 88 88 89 90 89 90 92 92 91 92 92 92 91 92 94 95 97 96 95 93 94 94 95 79 71 72 75 90 92 91 91 91 91 92 91 91 94 97 97
88 88 87 87 87 87 88 88 90 90 89 90 91 91 90 93 92 92 92 95 96 96 95 94 94 84 72 69 70 70 76 91 93 92 93 92 93 93 93 94 94 96
86 87 87 87 87 87 87 87 87 88 89 90 91 91 92 89 89 91 91 92 94 93 95 96 95 80 69 67 68 68 69 80 94 93 93 94 94 93 93 92 93 93
85 85 85 86 87 87 87 87 87 86 90 92 92 90 89 89 91 89 90 89 90 91 91 94 94 81 67 66 66 65 67 72 91 93 93 94 93 94 95 94 93 93
86 85 85 86 87 87 86 86 86 87 88 90 93 92 90 88 89 89 89 90 91 92 92 93 95 76 66 64 63 63 64 69 89 93 94 93 93 94 91 93 92 94
83 84 86 86 86 87 86 86 86 85 86 88 90 94 93 92 91 91 91 91 91 92 93 92 95 73 65 63 62 62 62 77 84 87 90 91 92 92 92 91 92 92
83 82 82 85 87 87 86 87 86 86 87 88 88 91 93 93 91 92 90 92 92 91 91 91 94 78 63 61 60 60 66 82 83 85 85 87 89 90 91 92 93 92
79 81 81 82 84 86 87 88 90 90 90 89 89 89 91 94 94 92 92 92 93 92 93 92 93 81 61 61 59 58 70 83 85 84 84 85 86 88 91 91 91 85
76 78 81 83 82 83 86 86 88 89 90 91 89 91 90 92 92 92 93 93 96 95 85 90 93 84 60 61 58 58 70 84 85 85 84 84 86 86 88 90 89 87
75 75 77 80 81 81 80 76 78 84 90 93 90 89 88 90 93 92 92 94 96 95 96 94 92 94 77 58 58 57 61 82 86 85 85 84 86 86 87 87 88 90

ECMWFNIL_sfc_temp_111.txt.gz
Temp
90 90 91 90 91 91 91 91 92 91 91 92 92 91 91 92 93 93 94 92 92 91 90 89 89 89 90 89 90 90 89 89 91 91 90 90 90 91 93 92 92 91
90 90 90 91 90 91 92 92 92 92 91 91 92 92 92 93 93 93 92 92 92 92 90 90 90 89 89 90 89 89 89 89 89 95 90 89 90 91 93 93 93 93
91 91 91 91 93 92 95 94 93 93 94 94 94 93 94 94 93 92 92 92 92 94 91 90 90 89 90 90 89 89 90 88 89 93 91 90 91 90 91 95 94 93
90 91 92 94 94 94 94 93 93 93 94 93 94 95 95 97 93 93 91 91 91 91 92 92 91 90 91 90 89 90 90 89 91 91 90 90 90 92 92 92 94 94
91 91 93 93 94 93 93 93 95 94 94 94 95 94 93 92 92 93 92 91 91 92 92 92 92 92 91 90 89 89 91 89 89 90 89 89 90 91 93 92 91 92
91 91 91 93 93 93 94 94 94 96 95 96 95 96 95 94 94 93 93 93 94 94 95 94 93 93 92 91 89 90 91 92 92 89 89 88 91 93 95 93 91 90
93 92 93 94 95 94 94 94 94 94 96 97 95 95 96 95 94 93 93 94 95 93 95 93 92 92 92 91 90 89 90 89 90 90 88 89 89 90 93 93 91 90
93 94 93 94 95 95 94 95 95 94 95 95 96 95 95 96 94 95 94 94 95 93 93 95 93 91 94 93 90 90 90 94 92 89 88 89 89 88 89 92 91 89
94 94 94 94 95 96 97 97 97 96 95 95 96 97 96 96 96 96 93 93 93 92 92 92 92 93 93 93 92 90 90 92 94 91 89 89 89 88 90 90 90 89
94 94 96 96 96 97 97 98 99 97 96 96 97 99 97 95 96 96 95 92 93 92 92 91 92 93 93 93 92 92 91 90 91 91 91 91 91 90 91 90 90 89
95 96 96 96 97 98 99 99 99 100 98 97 97 98 99 97 94 95 94 93 94 93 92 91 92 92 92 93 93 93 92 92 91 91 91 91 91 91 91 91 91 91
94 96 96 97 97 99 100 100 100 100 100 98 98 97 98 100 96 95 95 93 93 93 93 92 92 92 91 92 94 94 93 93 92 91 92 92 92 93 93 93 92 91
95 94 96 98 97 98 100 100 100 101 101 100 99 98 98 99 100 96 95 95 93 94 95 94 92 93 91 91 92 93 93 92 94 94 93 93 93 94 95 95 94 94
92 93 96 95 97 95 96 99 100 100 99 99 99 97 98 99 100 99 98 97 95 95 94 94 93 93 92 91 92 93 94 93 93 94 94 94 94 94 96 96 96 96
90 94 95 95 95 95 95 96 98 98 98 98 98 99 101 100 100 101 98 96 96 94 94 96 96 94 94 93 91 91 93 94 94 93 94 94 94 96 96 96 97 98
92 92 93 93 93 93 93 94 96 97 99 98 98 98 97 96 96 98 100 98 96 94 95 96 96 97 89 82 83 92 92 95 95 93 93 93 93 93 96 97 98 99
91 91 91 90 91 92 93 93 93 95 95 94 95 96 94 94 96 97 98 99 99 97 95 96 96 97 82 74 74 78 91 92 93 92 92 93 94 92 92 95 98 98
86 90 89 89 90 90 91 91 93 92 92 93 94 96 93 96 96 95 95 98 99 99 98 96 96 86 74 72 73 72 78 92 95 94 95 94 94 94 94 94 96 98
79 86 88 88 88 89 89 90 90 91 91 92 94 95 96 93 91 94 94 95 96 95 98 98 97 83 71 69 70 70 71 82 96 95 95 96 95 95 94 93 94 94
79 79 84 87 87 88 89 89 89 89 92 94 94 93 92 93 94 92 93 92 93 94 93 97 96 84 70 67 68 68 69 74 94 96 96 96 95 95 97 95 95 95
78 77 76 80 85 88 86 86 88 88 90 91 94 94 92 91 92 92 92 93 95 95 94 97 99 78 67 66 65 65 67 71 92 96 97 96 96 96 93 95 94 96
78 78 78 80 78 80 85 86 87 85 87 88 89 93 93 93 94 93 92 93 94 95 95 94 98 76 65 65 63 64 66 79 86 90 92 93 94 94 95 93 94 95
77 79 79 79 79 79 79 78 77 77 80 81 81 82 82 82 83 90 90 93 93 94 93 93 96 81 64 62 61 62 68 84 85 87 87 89 91 92 94 95 96 94
77 78 78 79 80 80 77 74 75 76 75 74 76 77 75 80 77 76 77 78 83 87 95 94 94 84 61 60 60 60 71 84 86 86 86 86 87 90 93 93 93 88
77 77 76 77 77 78 78 74 74 77 78 78 77 77 77 78 79 78 78 81 82 80 77 81 91 88 59 60 58 58 70 85 87 86 86 86 87 87 89 91 91 89
80 78 77 77 76 77 77 77 77 77 78 79 79 79 78 78 79 80 80 79 80 79 85 83 79 81 75 56 58 57 62 83 87 87 86 86 86 86 87 87 89 90

ECMWFNIL_sfc_temp_114.txt.gz
Temp
87 87 87 87 87 87 86 87 88 88 86 88 88 87 87 86 88 87 88 88 87 86 86 87 87 86 87 87 86 85 85 86 87 87 86 86 85 87 89 88 88 85
87 87 86 88 86 87 87 88 88 87 86 87 88 88 88 88 89 89 88 88 88 88 87 88 87 87 87 87 86 86 84 86 85 91 86 86 85 86 88 88 89 89
88 88 88 88 89 89 92 90 88 89 89 90 90 89 90 90 89 89 88 89 88 89 87 87 87 87 87 87 86 86 86 85 85 89 86 85 86 85 87 91 89 90
87 88 89 90 90 90 91 89 89 88 90 89 90 92 91 93 89 89 88 89 88 88 87 87 87 88 87 87 86 86 86 85 87 87 86 86 86 88 87 87 89 89
88 88 89 90 90 89 90 90 91 91 91 90 92 90 89 88 88 89 88 88 88 89 88 88 88 88 87 86 86 86 87 86 87 86 86 85 86 87 89 88 86 87
88 88 88 89 89 89 91 90 90 92 91 93 91 92 92 91 90 90 89 90 91 90 91 90 89 89 88 87 86 86 87 88 87 86 85 85 87 88 91 88 86 85
89 89 89 90 91 91 91 90 90 90 92 93 91 91 91 92 90 90 89 90 91 89 91 88 87 88 88 87 86 85 86 87 86 85 85 86 85 86 90 88 86 85
91 91 90 90 91 92 91 91 91 90 91 91 93 91 91 93 90 92 91 90 91 89 88 90 88 87 90 88 86 85 86 90 88 85 85 85 85 85 86 88 88 85
91 91 90 91 92 92 93 94 94 93 92 91 93 94 92 92 92 92 89 89 89 88 87 89 87 88 89 88 87 86 86 88 90 86 86 86 86 85 86 86 87 86
91 91 92 92 92 93 93 94 95 95 93 93 94 95 94 91 92 91 90 87 89 88 88 88 88 89 89 89 88 88 87 86 87 87 87 87 86 87 87 87 87 85
88 93 93 92 93 94 95 95 96 96 94 94 94 95 95 93 90 91 89 88 91 89 88 88 89 89 88 90 90 90 89 89 88 87 88 87 87 86 88 86 86 86
84 84 90 94 93 95 95 96 96 96 96 95 95 93 94 96 92 92 91 89 89 89 89 88 88 88 88 88 91 91 90 90 89 88 89 88 89 89 89 89 88 87
82 82 84 91 94 94 96 96 97 97 98 96 95 94 94 96 96 92 91 91 89 91 91 90 88 90 87 88 89 90 89 89 91 90 89 89 89 90 91 91 90 90
80 80 80 78 85 91 93 96 97 96 95 95 95 94 95 95 97 95 93 93 92 92 91 91 88 89 88 87 88 89 90 89 89 89 90 89 90 90 91 92 91 91
78 79 77 78 78 81 89 92 94 94 94 94 93 95 97 96 97 98 94 92 92 90 91 92 92 90 90 89 88 88 89 90 89 89 89 89 89 92 92 91 93 94
78 78 77 78 79 80 78 80 88 94 97 95 95 95 93 92 92 93 96 93 91 90 91 93 92 93 87 81 82 88 88 91 90 88 88 88 88 88 91 93 94 94
78 78 76 75 77 77 77 77 75 77 87 90 91 92 91 90 91 93 95 96 94 93 91 92 93 94 80 73 74 78 88 88 88 87 87 88 89 87 87 90 93 94
76 77 77 76 76 76 77 77 77 76 75 77 84 91 90 93 93 91 91 94 96 95 94 93 92 86 73 71 73 72 78 88 90 89 90 89 90 90 89 90 91 93
78 78 77 76 75 76 77 77 77 76 76 76 74 75 79 86 89 91 90 92 93 90 93 94 93 82 71 69 70 70 71 81 91 90 90 91 90 90 89 88 88 88
76 77 77 77 77 77 77 77 76 76 76 76 76 76 77 77 82 87 90 89 90 90 88 92 92 81 70 67 68 68 69 74 89 91 90 91 89 90 92 90 90 89
76 76 76 77 77 77 77 76 75 76 77 76 76 76 77 78 79 77 79 81 84 87 88 91 95 78 68 66 66 65 67 71 88 92 92 91 90 90 87 89 87 92
75 76 76 76 75 76 75 75 75 75 75 76 76 77 78 79 80 81 80 81 81 81 81 81 86 69 66 64 62 63 66 76 82 86 88 89 88 87 88 86 88 89
77 75 75 75 75 75 75 75 74 74 75 76 76 77 78 79 81 81 81 81 82 81 81 80 82 75 69 63 60 60 65 79 82 83 84 85 86 87 87 89 90 89
78 78 76 76 75 74 74 74 75 75 74 77 76 77 77 80 80 80 81 81 81 81 82 81 83 78 66 62 57 58 66 80 82 83 83 84 85 86 88 88 88 88
79 78 77 77 75 74 74 73 74 75 75 75 75 77 78 79 80 80 81 82 84 83 83 82 83 79 63 60 56 57 64 77 82 83 83 83 84 84 85 86 85 87
79 78 77 78 76 76 75 74 74 75 74 74 75 77 76 75 76 79 80 82 85 85 85 84 83 84 73 58 56 55 58 75 82 83 82 83 84 83 83 83 85 85

ECMWFNIL_sfc_temp_117.txt.gz
Temp
79 80 79 80 80 81 81 80 81 81 80 80 79 80 80 80 82 82 82 82 82 81 81 81 81 81 83 81 80 80 81 80 81 80 79 78 78 79 82 80 80 79
80 80 81 81 80 81 81 81 81 81 80 81 81 80 81 82 82 82 81 82 82 82 81 82 81 81 80 81 80 79 79 80 80 84 80 79 78 79 81 80 81 80
80 80 81 81 81 82 84 83 82 81 83 83 83 83 82 83 82 82 82 82 82 83 81 81 81 81 81 80 80 80 79 79 79 81 80 79 79 79 79 82 80 81
80 81 82 82 82 82 82 82 82 82 83 83 82 85 85 87 82 83 81 83 81 81 83 82 82 82 81 80 80 80 80 79 80 79 79 80 80 80 80 79 80 80
81 81 81 82 82 82 82 81 83 83 83 83 84 82 84 81 82 82 82 82 82 81 82 82 81 81 81 80 80 80 80 80 80 79 78 79 79 80 82 80 78 79
81 80 80 82 81 81 83 82 82 83 84 83 84 83 85 82 83 83 82 83 83 83 83 82 82 82 83 81 81 81 80 81 81 79 79 79 80 81 85 81 79 79
82 81 81 82 83 82 82 83 82 82 85 84 84 83 85 83 83 84 83 83 84 82 83 82 81 81 82 81 80 80 80 80 80 79 79 79 79 79 83 81 79 79
84 83 83 82 83 83 81 83 83 82 83 84 84 84 84 85 84 85 84 84 84 82 81 82 82 81 83 81 80 80 81 84 81 80 79 78 79 79 79 81 80 78
84 84 84 83 84 83 84 84 84 85 83 84 84 85 84 85 84 85 82 83 83 82 82 81 81 82 82 82 81 80 80 82 82 81 80 79 79 79 80 80 80 78
82 84 85 85 85 85 85 86 86 86 85 84 84 85 85 83 84 85 82 81 82 81 81 82 81 82 82 82 81 81 81 80 80 80 81 81 81 80 80 80 80 78
80 83 84 84 86 87 86 87 87 87 86 87 86 86 86 85 83 84 83 82 84 82 81 81 81 82 82 82 82 82 82 82 82 80 80 81 81 81 82 80 80 80
79 78 79 79 79 81 84 86 87 88 86 88 88 87 85 86 85 84 84 82 83 83 82 81 81 81 81 82 83 83 82 83 83 82 81 81 82 82 82 82 82 80
76 76 76 78 78 78 80 81 82 85 88 88 89 88 89 87 87 85 84 84 83 84 84 82 82 82 80 81 82 83 83 82 83 83 83 82 82 83 84 83 83 82
76 76 76 76 78 78 78 79 80 80 80 82 85 88 89 89 88 87 85 85 85 85 84 84 82 82 81 80 81 82 83 82 83 82 83 83 83 83 84 85 84 84
75 76 75 75 77 76 76 76 77 77 78 78 78 80 84 86 90 89 87 85 85 84 84 85 84 83 83 83 82 81 82 81 82 83 82 82 83 84 84 85 86 87
75 74 73 74 74 74 74 76 76 76 78 77 77 79 78 78 79 83 86 87 85 84 84 86 85 85 83 80 80 83 82 85 83 82 82 82 81 81 83 84 87 88
75 74 74 73 73 73 73 74 74 75 75 75 75 76 76 77 78 80 82 86 87 86 84 86 87 88 79 72 73 76 84 82 83 80 80 81 82 80 80 83 85 86
73 74 74 73 74 73 73 74 74 73 73 75 75 75 75 79 80 80 79 82 87 87 87 86 86 83 74 70 72 71 77 84 84 83 82 81 83 83 82 82 82 84
73 74 74 74 74 75 75 75 74 74 74 75 75 75 75 76 78 80 80 79 81 81 86 87 87 78 72 70 70 70 70 79 84 84 84 82 82 83 83 82 81 81
73 73 73 73 73 74 75 75 74 74 75 76 75 74 74 75 78 79 79 78 78 78 77 80 82 79 70 67 67 68 69 73 85 85 84 84 83 83 84 83 83 83
72 72 72 73 73 72 73 74 73 73 74 75 75 75 74 74 75 75 76 77 79 79 79 80 81 68 69 67 65 63 64 68 83 86 86 85 85 84 82 83 82 85
72 71 72 72 72 72 73 72 73 72 73 74 74 75 75 75 75 77 77 77 77 78 78 78 80 68 70 66 65 65 65 70 74 80 84 85 84 83 83 82 82 82
74 73 72 72 72 72 72 72 72 72 72 74 74 74 75 75 76 77 76 77 77 78 77 76 78 71 66 66 64 61 65 72 74 76 79 81 83 83 83 83 83 82
74 74 73 72 72 71 71 71 72 72 72 74 73 73 73 75 76 76 77 77 77 77 78 78 79 77 68 62 61 60 67 73 73 75 77 79 81 83 84 84 84 85
73 73 73 74 72 72 72 71 71 72 72 71 70 71 72 74 75 75 76 77 79 79 81 79 79 78 69 66 63 57 63 72 74 74 76 78 79 81 82 82 82 84
73 73 73 74 72 72 72 72 72 71 70 70 70 71 70 71 73 74 74 76 78 79 81 80 79 79 77 65 60 57 58 72 72 74 75 77 78 79 79 80 81 81

ECMWFNIL_sfc_temp_120.txt.gz
Temp
76 77 78 78 78 78 77 77 77 78 78 78 78 77 78 78 79 79 79 79 79 78 78 78 78 78 80 78 78 78 77 77 77 77 75 76 76 75 79 77 76 75
77 78 79 78 78 79 78 79 78 79 78 78 78 78 78 79 79 80 79 79 79 79 78 79 78 78 78 78 78 77 77 77 77 80 77 76 76 76 77 76 77 76
77 77 78 78 79 79 80 80 79 79 79 80 79 79 79 80 80 79 79 80 79 80 78 79 78 78 79 78 78 78 78 77 77 78 77 77 77 76 76 78 76 77
78 78 79 80 80 80 80 80 79 79 80 79 80 81 81 83 80 80 79 81 79 79 79 79 79 79 79 78 78 78 78 77 78 77 77 77 77 77 77 76 76 77
79 78 78 79 80 80 80 80 80 79 80 80 81 81 80 80 80 80 79 79 79 79 79 79 79 79 79 78 78 77 78 78 77 76 76 76 77 77 78 77 76 76
78 78 78 79 78 79 80 80 80 80 81 81 81 81 82 81 80 80 80 80 80 80 80 80 80 80 80 78 78 78 78 78 78 76 76 76 77 78 80 78 76 75
79 78 78 79 79 79 79 80 80 81 81 82 81 80 81 81 80 81 80 81 81 80 81 80 79 79 79 79 78 78 77 77 78 77 77 77 77 77 79 78 77 76
79 79 79 79 80 79 79 79 79 80 81 81 81 81 81 82 81 82 81 81 81 80 80 80 79 79 80 79 78 78 78 80 79 77 76 77 76 76 77 78 77 75
80 80 79 79 80 80 80 81 81 80 81 81 81 82 81 82 81 82 80 80 81 80 79 79 79 79 79 79 79 78 78 79 80 78 77 77 77 77 77 77 76 76
78 80 81 81 81 81 81 82 83 82 81 81 82 82 81 81 82 82 81 79 80 80 79 78 78 79 79 79 79 79 79 78 78 78 78 78 78 78 78 78 78 76
73 79 81 81 82 82 82 82 82 84 82 82 82 82 83 81 80 81 81 80 81 80 80 79 79 79 79 80 80 80 80 80 79 78 78 78 79 79 80 78 78 78
71 71 76 81 80 82 82 81 80 81 82 83 83 82 82 83 81 81 81 80 81 81 81 80 80 79 79 80 80 80 80 80 80 79 79 79 79 79 79 79 79 79
72 72 72 75 76 78 78 78 78 79 80 81 82 84 83 83 83 82 81 81 81 81 81 81 80 80 79 79 80 81 80 80 80 80 79 79 79 80 80 81 80 80
72 72 73 75 76 76 76 77 78 77 76 77 78 80 83 84 83 83 82 82 82 82 82 82 80 79 79 79 80 81 80 80 80 80 80 80 80 79 81 81 81 81
73 74 74 74 76 75 74 74 75 75 75 75 75 77 80 78 80 82 82 81 82 81 82 82 82 80 80 80 79 79 80 80 79 80 80 80 80 80 80 81 82 83
73 73 73 73 73 73 73 74 75 74 76 76 76 77 76 76 76 78 81 81 80 80 81 82 82 82 82 77 78 80 79 81 80 79 79 79 79 79 80 81 82 83
72 72 72 72 72 72 72 73 72 73 73 72 73 74 75 76 77 77 78 79 81 81 80 81 83 84 77 70 71 74 81 79 79 78 77 78 78 78 78 80 82 82
72 72 72 72 72 72 72 72 72 72 71 72 73 73 73 75 76 76 76 78 80 80 81 82 82 80 72 69 70 70 75 81 81 80 79 78 79 79 79 79 80 81
71 72 72 72 72 73 73 72 72 72 73 73 73 74 73 73 73 75 75 75 77 76 79 82 82 77 70 68 68 68 68 76 82 81 80 80 79 79 79 79 78 78
71 71 71 71 71 72 72 72 72 72 73 74 74 73 72 72 74 74 74 74 75 75 74 76 77 78 70 66 65 65 66 69 80 82 81 81 80 80 81 80 79 79
71 71 71 71 71 72 72 72 72 71 72 73 73 73 72 72 73 73 74 74 75 76 76 78 80 70 67 66 64 63 64 66 76 82 83 81 81 81 80 80 80 81
71 70 70 71 71 71 71 71 71 71 71 72 72 72 73 73 73 74 74 74 75 75 74 74 79 69 66 66 62 62 63 69 71 74 78 80 80 80 80 80 80 80
71 71 71 71 71 70 70 70 70 70 70 70 69 70 70 72 72 73 74 74 75 75 74 73 75 71 64 64 63 61 64 70 70 72 73 75 78 79 79 80 81 81
70 71 71 71 70 70 70 70 70 70 69 70 69 69 69 71 72 73 73 74 75 75 76 76 76 73 64 62 62 61 67 71 70 71 72 73 75 78 79 79 80 83
70 70 70 71 71 71 71 70 70 70 71 70 69 69 69 69 72 71 72 73 75 76 78 77 76 75 64 59 59 59 64 72 71 71 72 72 73 75 77 78 79 81
70 70 70 70 69 70 70 69 70 71 69 70 69 69 69 68 69 71 71 72 74 75 76 76 76 76 72 62 58 55 58 72 72 72 72 73 73 74 74 75 77 78